[[{"header":{"parameterUnit":"m.s-1","parameterCategory":1,"la1":30.6,"la2":29.2853,"lo1":-89.7004,"lo2":-87.6739,"dy":0.0162,"dx":0.0183,"nx":112,"ny":82,"refTime":"2026-02-24T00:00:00:Z","depth":0,"parameterNumber":2,"parameterNumberName":"U-component_of_WINDS"},"data":[0.0,0.0,0.0,0.0,0.0,0.0,0.0,0.0,0.0,0.0,0.0,0.0,0.0,0.0,0.0,0.0,0.0,0.0,0.0,0.0,0.0,0.0,0.0,0.0,0.0,0.0,0.0,0.0,0.0,0.0,0.0,0.0,0.0,0.0,0.0,0.0,0.0,0.0,0.0,0.0,0.0,0.0,0.0,0.0,0.0,0.0,0.0,0.0,0.0,0.0,0.0,0.0,0.0,0.0,0.0,0.0,0.0,0.0,0.0,0.0,0.0,0.0,0.0,0.0,0.0,0.0,0.0,0.0,0.0,0.0,0.0,0.0,0.0,0.0,0.0,0.0,0.0,0.0,0.0,0.0,0.0,0.0,0.0,0.0,0.0,0.0,0.0,0.0,0.0,0.0,2.0537,2.1913,2.3943,2.5191,2.5191,2.5191,2.3705,2.0218,0.0,0.0,0.0,0.0,0.0,0.0,0.0,0.0,0.0,0.0,0.0,0.0,0.0,0.0,0.0,0.0,0.0,0.0,0.0,0.0,0.0,0.0,0.0,0.0,0.0,0.0,0.0,0.0,0.0,0.0,0.0,0.0,0.0,0.0,0.0,0.0,0.0,0.0,0.0,0.0,0.0,0.0,0.0,0.0,0.0,0.0,0.0,0.0,0.0,0.0,0.0,0.0,0.0,0.0,0.0,0.0,0.0,0.0,0.0,0.0,0.0,0.0,0.0,0.0,0.0,0.0,0.0,0.0,0.0,0.0,0.0,0.0,0.0,0.0,0.0,0.0,0.0,0.0,0.0,0.0,0.0,0.0,0.0,0.0,0.0,0.0,0.0,0.0,0.0,0.0,0.0,0.0,0.0,0.0,0.0,0.0,0.0,0.0,0.0,0.0,0.0,0.0,0.0,0.0,2.0514,2.4238,2.4992,2.5191,2.5191,2.5191,2.3705,2.0218,0.0,0.0,0.0,0.0,0.0,0.0,0.0,0.0,0.0,0.0,0.0,0.0,0.0,0.0,0.0,0.0,0.0,0.0,0.0,0.0,0.0,0.0,0.0,0.0,0.0,0.0,0.0,0.0,0.0,0.0,0.0,0.0,0.0,0.0,0.0,0.0,0.0,0.0,0.0,0.0,0.0,0.0,0.0,0.0,0.0,0.0,0.0,0.0,0.0,0.0,0.0,0.0,0.0,0.0,0.0,0.0,0.0,0.0,0.0,0.0,0.0,0.0,0.0,0.0,0.0,0.0,0.0,0.0,0.0,0.0,0.0,0.0,0.0,0.0,0.0,0.0,0.0,0.0,0.0,0.0,0.0,0.0,0.0,0.0,0.0,0.0,0.0,0.0,0.0,0.0,0.0,0.0,0.0,0.0,0.0,0.0,0.0,0.0,0.0,0.0,0.0,0.0,0.0,1.965,2.1569,2.4859,2.5191,2.5191,2.5191,2.5191,2.3736,2.0268,1.9601,0.0,0.0,0.0,0.0,0.0,0.0,0.0,0.0,0.0,0.0,0.0,0.0,0.0,0.0,0.0,0.0,0.0,0.0,0.0,0.0,0.0,0.0,0.0,0.0,0.0,0.0,0.0,0.0,0.0,0.0,0.0,0.0,0.0,0.0,0.0,0.0,0.0,0.0,0.0,0.0,0.0,0.0,0.0,0.0,0.0,0.0,0.0,0.0,0.0,0.0,0.0,0.0,0.0,0.0,0.0,0.0,0.0,0.0,0.0,0.0,0.0,0.0,0.0,0.0,0.0,0.0,0.0,0.0,0.0,0.0,0.0,0.0,0.0,0.0,0.0,0.0,0.0,0.0,0.0,0.0,0.0,0.0,0.0,0.0,0.0,0.0,0.0,0.0,0.0,0.0,0.0,0.0,0.0,0.0,0.0,0.0,0.0,0.0,0.0,0.0,0.0,0.0,2.213,2.292,2.4973,2.5214,2.5214,2.5191,2.4828,2.3297,2.0279,1.8726,0.0,0.0,0.0,0.0,0.0,0.0,0.0,0.0,0.0,0.0,0.0,0.0,0.0,0.0,0.0,0.0,0.0,0.0,0.0,0.0,0.0,0.0,0.0,0.0,0.0,0.0,0.0,0.0,0.0,0.0,0.0,0.0,0.0,0.0,0.0,0.0,0.0,0.0,0.0,0.0,0.0,0.0,0.0,0.0,0.0,0.0,0.0,0.0,0.0,0.0,0.0,0.0,0.0,0.0,0.0,0.0,0.0,0.0,0.0,0.0,0.0,0.0,0.0,0.0,0.0,0.0,0.0,0.0,0.0,0.0,0.0,0.0,0.0,0.0,0.0,0.0,0.0,0.0,0.0,0.0,0.0,0.0,0.0,0.0,0.0,0.0,0.0,0.0,0.0,0.0,0.0,0.0,0.0,0.0,0.0,0.0,0.0,0.0,0.0,0.0,0.0,0.0,2.248,2.4255,2.5107,2.5258,2.5269,2.5222,2.3709,2.2017,2.0203,1.7062,0.0,0.0,0.0,0.0,0.0,0.0,0.0,0.0,0.0,0.0,0.0,0.0,0.0,0.0,0.0,0.0,0.0,0.0,0.0,0.0,0.0,0.0,0.0,0.0,0.0,0.0,0.0,0.0,0.0,0.0,0.0,0.0,0.0,0.0,0.0,0.0,0.0,0.0,0.0,0.0,0.0,0.0,0.0,0.0,0.0,0.0,0.0,0.0,0.0,0.0,0.0,0.0,0.0,0.0,0.0,0.0,0.0,0.0,0.0,0.0,0.0,0.0,0.0,0.0,0.0,0.0,0.0,0.0,0.0,0.0,0.0,0.0,0.0,0.0,0.0,0.0,0.0,0.0,0.0,0.0,0.0,0.0,0.0,0.0,0.0,0.0,0.0,0.0,0.0,0.0,0.0,0.0,0.0,0.0,0.0,0.0,0.0,0.0,0.0,0.0,0.0,0.0,2.1987,2.3697,2.5116,2.5248,2.5225,2.5191,2.4599,2.304,2.027,0.0,0.0,0.0,0.0,0.0,0.0,0.0,0.0,0.0,0.0,0.0,0.0,0.0,0.0,0.0,0.0,0.0,0.0,0.0,0.0,0.0,0.0,0.0,0.0,0.0,0.0,0.0,0.0,0.0,0.0,0.0,0.0,0.0,0.0,0.0,0.0,0.0,0.0,0.0,0.0,0.0,0.0,0.0,0.0,0.0,0.0,0.0,0.0,0.0,0.0,0.0,0.0,0.0,0.0,0.0,0.0,0.0,0.0,0.0,0.0,0.0,0.0,0.0,0.0,0.0,0.0,0.0,0.0,0.0,0.0,0.0,0.0,0.0,0.0,0.0,0.0,0.0,0.0,0.0,0.0,0.0,0.0,0.0,0.0,0.0,0.0,0.0,0.0,0.0,0.0,0.0,0.0,0.0,0.0,0.0,0.0,0.0,0.0,0.0,0.0,0.0,0.0,1.9967,2.2177,2.3956,2.5177,2.5258,2.5214,2.5191,2.4465,2.2879,2.026,0.0,0.0,0.0,0.0,0.0,0.0,0.0,0.0,0.0,0.0,0.0,0.0,0.0,0.0,0.0,0.0,0.0,0.0,0.0,0.0,0.0,0.0,0.0,0.0,0.0,0.0,0.0,0.0,0.0,0.0,0.0,0.0,0.0,0.0,0.0,0.0,0.0,0.0,0.0,0.0,0.0,0.0,0.0,0.0,0.0,0.0,0.0,0.0,0.0,0.0,0.0,0.0,0.0,0.0,0.0,0.0,0.0,0.0,0.0,0.0,0.0,0.0,0.0,0.0,0.0,0.0,0.0,0.0,0.0,0.0,0.0,0.0,0.0,0.0,0.0,0.0,0.0,0.0,0.0,0.0,0.0,0.0,0.0,0.0,0.0,0.0,0.0,0.0,0.0,0.0,0.0,0.0,0.0,0.0,0.0,0.0,0.0,0.0,0.0,0.0,0.0,0.0,2.0185,2.3335,2.536,2.5302,2.5311,2.528,2.5222,2.2879,2.1063,0.0,0.0,0.0,0.0,0.0,0.0,0.0,0.0,0.0,0.0,0.0,0.0,0.0,0.0,0.0,0.0,0.0,0.0,0.0,0.0,0.0,0.0,0.0,0.0,0.0,0.0,0.0,0.0,0.0,0.0,0.0,0.0,0.0,0.0,0.0,0.0,0.0,0.0,0.0,0.0,0.0,0.0,0.0,0.0,0.0,0.0,0.0,0.0,0.0,0.0,0.0,0.0,0.0,0.0,0.0,0.0,0.0,0.0,0.0,0.0,0.0,0.0,0.0,0.0,0.0,0.0,0.0,0.0,0.0,0.0,0.0,0.0,0.0,0.0,0.0,0.0,0.0,0.0,0.0,0.0,0.0,0.0,0.0,0.0,0.0,0.0,0.0,0.0,0.0,0.0,0.0,0.0,0.0,0.0,0.0,0.0,0.0,0.0,0.0,0.0,0.0,0.0,0.0,2.023,2.3311,2.5341,2.537,2.5301,2.5214,2.5191,2.3938,2.2295,2.0222,0.0,0.0,0.0,0.0,0.0,0.0,0.0,0.0,0.0,0.0,0.0,0.0,0.0,0.0,0.0,0.0,0.0,0.0,0.0,0.0,0.0,0.0,0.0,0.0,0.0,0.0,0.0,0.0,0.0,0.0,0.0,0.0,0.0,0.0,0.0,0.0,0.0,0.0,0.0,0.0,0.0,0.0,0.0,0.0,0.0,0.0,0.0,0.0,0.0,0.0,0.0,0.0,0.0,0.0,0.0,0.0,0.0,0.0,0.0,0.0,0.0,0.0,0.0,0.0,0.0,0.0,0.0,0.0,0.0,0.0,0.0,0.0,0.0,0.0,0.0,0.0,0.0,0.0,0.0,0.0,0.0,0.0,0.0,0.0,0.0,0.0,0.0,0.0,0.0,0.0,0.0,0.0,0.0,0.0,0.0,0.0,0.0,0.0,0.0,0.0,0.0,0.0,2.0225,2.3319,2.5351,2.5361,2.525,2.5191,2.5191,2.4396,2.2811,2.026,0.0,0.0,0.0,0.0,0.0,0.0,0.0,0.0,0.0,0.0,0.0,0.0,0.0,0.0,0.0,0.0,0.0,0.0,0.0,0.0,0.0,0.0,0.0,0.0,0.0,0.0,0.0,0.0,0.0,0.0,0.0,0.0,0.0,0.0,0.0,0.0,0.0,0.0,0.0,0.0,0.0,0.0,0.0,0.0,0.0,0.0,0.0,0.0,0.0,0.0,0.0,0.0,0.0,0.0,0.0,0.0,0.0,0.0,0.0,0.0,0.0,0.0,0.0,0.0,0.0,0.0,0.0,0.0,0.0,0.0,0.0,0.0,0.0,0.0,0.0,0.0,0.0,0.0,0.0,0.0,0.0,0.0,0.0,0.0,0.0,0.0,0.0,0.0,0.0,0.0,0.0,0.0,0.0,0.0,0.0,0.0,0.0,0.0,0.0,0.0,0.0,0.0,2.0191,2.3335,2.536,2.5321,2.5236,2.5191,2.5191,2.4396,2.2849,2.0384,0.0,0.0,0.0,0.0,0.0,0.0,0.0,0.0,0.0,0.0,0.0,0.0,0.0,0.0,0.0,0.0,0.0,0.0,0.0,0.0,0.0,0.0,0.0,0.0,0.0,0.0,0.0,0.0,0.0,0.0,0.0,0.0,0.0,0.0,0.0,0.0,0.0,0.0,0.0,0.0,0.0,0.0,0.0,0.0,0.0,0.0,0.0,0.0,0.0,0.0,0.0,0.0,0.0,0.0,0.0,0.0,0.0,0.0,0.0,0.0,1.5445,1.3932,0.0,0.0,0.0,0.0,0.0,0.0,0.0,0.0,0.0,0.0,0.0,0.0,0.0,0.0,0.0,0.0,0.0,0.0,0.0,0.0,0.0,0.0,0.0,0.0,0.0,0.0,0.0,0.0,0.0,0.0,0.0,0.0,0.0,0.0,0.0,0.0,0.0,0.0,0.0,0.0,2.0172,2.3335,2.536,2.5321,2.5236,2.5191,2.5191,2.4396,2.3116,2.1235,1.875,0.0,0.0,0.0,0.0,0.0,0.0,0.0,0.0,0.0,0.0,0.0,0.0,0.0,0.0,0.0,0.0,0.0,0.0,0.0,0.0,0.0,0.0,0.0,0.0,0.0,0.0,0.0,0.0,0.0,0.0,0.0,0.0,0.0,0.0,0.0,0.0,0.0,0.0,0.0,0.0,0.0,0.0,0.0,0.0,0.0,0.0,0.0,0.0,0.0,0.0,0.0,0.0,0.0,0.0,0.0,0.0,0.0,0.0,0.0,1.7657,1.6748,0.0,0.0,0.0,0.0,0.0,0.0,0.0,0.0,0.0,0.0,0.0,0.0,0.0,0.0,0.0,0.0,0.0,0.0,0.0,0.0,0.0,0.0,0.0,0.0,0.0,0.0,0.0,0.0,0.0,0.0,0.0,0.0,0.0,0.0,0.0,0.0,0.0,0.0,0.0,0.0,2.0772,2.357,2.537,2.5269,2.5214,2.5191,2.5191,2.479,2.3804,2.2076,1.9983,0.0,0.0,0.0,0.0,0.0,0.0,0.0,0.0,0.0,0.0,0.0,0.0,0.0,0.0,0.0,0.0,0.0,0.0,0.0,0.0,0.0,0.0,0.0,0.0,0.0,0.0,0.0,0.0,0.0,0.0,0.0,0.0,0.0,0.0,0.0,0.0,0.0,0.0,0.0,0.0,0.0,0.0,0.0,0.0,0.0,0.0,0.0,0.0,0.0,0.0,0.0,0.0,0.0,1.9578,1.9704,1.9686,1.9704,2.0007,2.0499,1.9993,1.9972,2.0095,1.7807,0.0,0.0,0.0,0.0,0.0,0.0,0.0,0.0,0.0,0.0,0.0,0.0,0.0,0.0,0.0,0.0,0.0,0.0,0.0,0.0,0.0,0.0,2.0566,2.1132,2.1816,2.1737,1.9588,0.0,0.0,0.0,0.0,0.0,0.0,0.0,0.0,0.0,0.0,0.0,2.139,2.3813,2.5351,2.5214,2.5191,2.5191,2.5191,2.5191,2.4522,2.2925,2.1397,1.9773,0.0,0.0,0.0,0.0,0.0,0.0,0.0,0.0,0.0,0.0,0.0,0.0,0.0,0.0,0.0,0.0,0.0,0.0,0.0,0.0,0.0,0.0,0.0,0.0,0.0,0.0,0.0,0.0,0.0,0.0,0.0,0.0,1.2204,1.3077,0.0,0.0,0.0,0.0,0.0,0.0,0.0,0.0,0.0,0.0,0.0,0.0,0.0,1.8895,1.8788,2.0099,2.0708,2.0573,2.1907,2.2511,2.2463,2.2535,2.2728,2.3021,2.2926,0.0,2.0174,2.0587,0.0,0.0,0.0,0.0,0.0,0.0,0.0,0.0,0.0,0.0,0.0,0.0,0.0,0.0,0.0,0.0,0.0,0.0,0.0,0.0,0.0,0.0,2.4687,2.4043,2.3984,2.3984,2.3633,2.113,1.8679,1.768,1.6979,1.5947,0.0,0.0,0.0,0.0,0.0,0.0,2.139,2.3813,2.5351,2.5214,2.5191,2.5191,2.5191,2.5191,2.479,2.3785,2.2811,2.1531,1.9849,1.8054,0.0,0.0,0.0,0.0,0.0,0.0,0.0,0.0,0.0,0.0,0.0,0.0,0.0,0.0,0.0,0.0,0.0,0.0,0.0,0.0,0.0,0.0,0.0,0.0,0.0,0.0,0.0,0.0,0.0,1.3051,1.4523,1.5007,1.5433,1.5226,0.0,0.0,0.0,0.0,0.0,0.0,0.0,0.0,0.0,1.9713,2.0712,2.1151,2.1025,2.1818,2.2159,2.2054,2.2713,2.3045,2.2995,2.307,2.3151,2.3295,2.3427,2.2973,2.2108,2.1825,2.1272,2.0483,0.0,0.0,0.0,0.0,2.0855,2.0716,2.2574,2.291,2.2402,2.1603,0.0,0.0,0.0,0.0,0.0,0.0,0.0,2.1558,2.248,2.3848,2.5,2.5098,2.5137,2.5137,2.5137,2.3945,2.2361,2.054,2.0243,1.9285,1.6103,1.6787,0.0,0.0,0.0,2.1779,2.2862,2.4416,2.5351,2.5214,2.5191,2.5191,2.5191,2.5203,2.5042,2.4648,2.3847,2.3054,2.2326,2.0201,1.8267,0.0,0.0,0.0,0.0,0.0,0.0,0.0,0.0,0.0,0.0,0.0,0.0,0.0,0.0,0.0,0.0,0.0,0.0,0.0,0.0,0.0,0.0,0.0,0.0,0.0,0.0,0.0,0.0,1.483,1.6449,1.6819,1.7698,1.7648,0.0,0.0,0.0,0.0,0.0,0.0,2.0228,2.0978,2.1473,2.1696,2.252,2.2908,2.2746,2.3017,2.3052,2.2944,2.297,2.2952,2.2995,2.3028,2.3102,2.3223,2.345,2.3671,2.3769,2.2866,2.2566,2.267,2.1625,2.1297,2.157,2.293,2.3071,2.2846,2.499,2.5335,2.4745,2.4166,2.3676,2.3054,2.1604,0.0,0.0,0.0,0.0,2.3255,2.496,2.5391,2.5566,2.6211,2.6191,2.6035,2.6035,2.5859,2.5078,2.2946,2.3021,2.2275,1.8641,1.9636,0.0,1.9187,2.1333,2.3342,2.4069,2.4895,2.5359,2.525,2.5236,2.5214,2.5203,2.5195,2.5198,2.5198,2.4636,2.4206,2.4014,2.2173,2.0274,1.8375,0.0,0.0,0.0,0.0,0.0,0.0,0.0,0.0,0.0,0.0,0.0,0.0,0.0,0.0,0.0,0.0,0.0,0.0,0.0,0.0,0.0,0.0,0.0,0.0,0.0,0.0,0.0,0.0,0.0,1.8296,1.9876,0.0,0.0,0.0,0.0,1.8347,1.9882,2.1134,2.1763,2.2547,2.3253,2.3835,2.3595,2.3455,2.3455,2.3109,2.2893,2.2816,2.285,2.2919,2.2919,2.2952,2.3175,2.3504,2.3624,2.3919,2.4266,2.4081,2.4226,2.4576,2.4568,2.4708,2.4968,2.5118,2.5158,2.5255,2.6284,2.6611,2.6581,2.6587,2.5531,2.4083,2.3229,2.2978,0.0,0.0,2.4835,2.5915,2.7654,2.8105,2.8105,2.8164,2.7539,2.6934,2.6934,2.6289,2.543,2.445,2.4313,2.3764,2.194,0.0,2.1723,2.1704,2.2494,2.3391,2.4194,2.5005,2.5432,2.5302,2.5303,2.5261,2.5217,2.5187,2.5198,2.5212,2.5154,2.479,2.4033,2.388,2.2633,2.012,1.8432,0.0,0.0,0.0,0.0,0.0,0.0,0.0,0.0,0.0,0.0,0.0,0.0,0.0,0.0,0.0,0.0,0.0,0.0,0.0,0.0,0.0,0.0,0.0,0.0,0.0,0.0,0.0,0.0,2.0699,2.1774,0.0,2.0108,2.0577,2.0859,2.056,2.1421,2.2356,2.3272,2.364,2.3897,2.4058,2.3735,2.3495,2.3364,2.301,2.2816,2.2816,2.2816,2.2842,2.2842,2.2944,2.307,2.3199,2.3558,2.3777,2.3939,2.4229,2.4476,2.4723,2.4818,2.4955,2.5087,2.519,2.5253,2.5351,2.5726,2.586,2.5867,2.5936,2.5971,2.5915,2.5632,2.5937,2.6454,2.6813,2.7134,2.7512,2.8143,2.8301,2.8301,2.8301,2.8066,2.7832,2.7832,2.7598,2.7129,2.625,2.5621,2.4695,2.2972,2.3577,2.3931,2.2838,2.3862,2.4859,2.5102,2.5357,2.5466,2.5372,2.5348,2.5335,2.5274,2.5303,2.5303,2.5262,2.5253,2.5148,2.4841,2.4351,2.3102,2.1075,1.9942,1.7856,0.0,0.0,0.0,0.0,0.0,0.0,0.0,0.0,0.0,0.0,0.0,0.0,0.0,0.0,0.0,0.0,0.0,0.0,0.0,0.0,0.0,0.0,0.0,0.0,0.0,1.9231,2.106,2.1662,2.2663,2.2757,2.1362,2.1826,2.2262,2.241,2.2707,2.3254,2.408,2.4075,2.4018,2.3999,2.3588,2.3294,2.32,2.2884,2.2738,2.2738,2.2764,2.279,2.2816,2.2919,2.2995,2.3003,2.3463,2.3811,2.4151,2.4596,2.5055,2.5477,2.5059,2.4942,2.5025,2.5149,2.5243,2.5341,2.5717,2.5858,2.5882,2.5924,2.6178,2.6468,2.6466,2.6868,2.7402,2.7769,2.7854,2.7936,2.8221,2.8301,2.8379,2.8672,2.8516,2.8379,2.8672,2.8516,2.8125,2.7559,2.6735,2.5672,2.4222,2.4944,2.5317,2.4145,2.4959,2.5671,2.5636,2.5593,2.5547,2.5465,2.5447,2.5408,2.5327,2.5398,2.5401,2.5312,2.5313,2.5322,2.5303,2.4533,2.3417,2.1974,2.0597,1.8802,1.658,0.0,0.0,0.0,0.0,0.0,0.0,0.0,0.0,0.0,0.0,0.0,0.0,0.0,0.0,0.0,0.0,0.0,0.0,0.0,0.0,0.0,0.0,0.0,1.6931,1.9395,2.1033,2.1019,2.2439,2.3066,2.2162,2.2834,2.3472,2.3735,2.372,2.3824,2.4173,2.386,2.3714,2.3774,2.3194,2.2935,2.2977,2.2738,2.2596,2.2657,2.2693,2.2773,2.2825,2.2903,2.2962,2.302,2.3372,2.4055,2.4924,2.5215,2.602,2.6947,2.5498,2.4985,2.5057,2.5157,2.5252,2.5437,2.6352,2.6693,2.6769,2.6764,2.6249,2.5632,2.5643,2.566,2.5862,2.6774,2.7034,2.7229,2.8079,2.83,2.8516,2.9355,2.8906,2.8535,2.9375,2.8926,2.832,2.8301,2.7636,2.6792,2.5924,2.5765,2.5746,2.5746,2.5726,0.0,2.5707,2.5698,2.5681,2.5613,2.5547,2.5473,2.5418,2.5459,2.5444,2.5322,2.5357,2.5365,2.5313,2.4562,2.3724,2.2866,2.0422,1.9162,1.9132,0.0,0.0,0.0,0.0,0.0,0.0,0.0,0.0,0.0,0.0,0.0,0.0,0.0,0.0,0.0,0.0,0.0,0.0,0.0,0.0,0.0,1.4631,1.6563,1.8243,1.9147,2.004,2.1083,2.1356,2.1524,2.1718,2.2027,2.2496,2.3117,2.3135,2.3265,2.3602,2.3392,2.323,2.3146,2.2908,2.2721,2.2632,2.2552,2.2826,2.3412,2.3412,2.3467,2.3522,2.3586,2.3371,2.2962,2.3791,2.4366,2.4813,2.5624,2.6234,2.6594,2.5897,2.5783,2.5952,2.5409,2.5243,2.5341,2.5658,2.5779,2.5793,2.5846,2.6133,2.6469,2.6539,2.6972,2.7535,2.7797,2.7906,2.7991,2.8248,2.8297,2.8359,2.8594,2.8476,2.8379,2.8613,2.8965,2.9062,2.8418,2.8613,2.8612,2.7741,2.7054,2.6646,2.6646,2.6097,2.5707,2.5707,2.5705,2.5681,2.5676,2.5651,2.5601,2.548,2.5486,2.5439,2.5322,2.536,2.5388,2.5361,2.5157,2.4626,2.3758,2.1937,2.0641,0.0,0.0,0.0,0.0,0.0,0.0,0.0,0.0,0.0,0.0,0.0,0.0,0.0,0.0,0.0,0.0,0.0,0.0,0.0,0.0,0.0,0.0,1.4945,1.6455,1.806,1.8766,1.948,2.0416,2.0384,2.0464,2.0922,2.1189,2.1569,2.2228,2.2351,2.2556,2.2923,2.2797,2.2712,2.2695,2.252,2.2402,2.236,2.2405,2.2807,2.3579,2.3665,2.3704,2.376,2.3843,2.3536,2.2954,2.397,2.4726,2.5278,2.6225,2.6995,2.7509,0.0,0.0,0.0,0.0,2.5115,2.5203,2.5203,2.5284,2.5401,2.5406,2.5827,2.6307,2.6334,2.6714,2.7125,2.7147,2.7181,2.721,2.721,2.7219,2.7303,2.7676,2.7754,2.7969,2.8691,2.9238,2.9551,2.9414,2.9805,0.0,2.9488,2.8367,2.7542,2.7542,2.7112,2.678,2.678,2.678,2.678,2.678,2.6769,2.6564,2.6079,2.6048,0.0,0.0,0.0,2.5288,2.4904,2.4894,0.0,0.0,0.0,0.0,0.0,2.2075,0.0,0.0,1.9995,1.9628,0.0,0.0,0.0,0.0,0.0,0.0,0.0,0.0,0.0,0.0,0.0,0.0,0.0,0.0,0.0,0.0,1.5004,1.5568,1.6957,1.8135,1.8943,1.9169,1.9328,1.9536,1.9843,2.0234,2.0684,2.1209,2.1472,2.1799,2.2167,2.2113,0.0,0.0,0.0,2.2044,2.2192,2.2321,2.2721,2.3393,2.3665,2.3762,2.3704,2.3815,2.3561,2.305,2.4067,2.51,2.6201,2.709,2.8124,2.9045,2.7529,2.6412,2.5639,2.5122,2.5042,2.5201,2.519,0.0,0.0,2.5438,2.5487,2.557,2.5579,2.5595,2.5601,2.5662,2.5696,2.5705,2.5707,2.5707,2.5886,2.6679,2.6933,2.7422,2.8965,2.9453,2.9824,3.0605,3.082,3.0898,3.0898,2.9545,2.8442,2.8442,2.8362,2.8303,2.8303,2.8303,2.8303,2.8303,2.8255,0.0,2.7023,2.6947,2.6546,2.5618,2.5514,2.5151,2.4386,2.4347,2.4355,2.435,2.435,2.4725,2.5495,2.556,2.52,2.4378,2.1405,2.0801,0.0,0.0,0.0,0.0,0.0,0.0,0.0,0.0,0.0,0.0,0.0,0.0,0.0,0.0,0.0,1.445,1.5151,1.5804,1.6182,1.6544,1.7066,1.7773,1.7666,1.7773,1.8416,1.9133,1.9818,2.0407,2.0863,2.1243,2.15,2.1491,2.1601,2.184,2.1797,2.1857,2.2027,2.2631,2.3123,2.341,2.4045,0.0,2.3721,2.3749,2.3746,2.3752,2.4669,2.5935,2.7515,2.8556,2.9304,2.9643,2.7791,2.6209,2.5062,2.5586,2.583,2.601,2.6679,2.6521,2.6041,2.609,2.5773,2.5371,2.5414,2.5505,0.0,2.5621,2.5662,2.5696,2.5705,2.5707,2.5748,2.5907,2.6498,2.7087,2.7422,2.8613,2.9648,2.9824,3.043,3.0898,3.0907,3.0034,2.9354,2.9347,2.8756,2.8303,2.8303,2.8303,2.8303,2.8303,2.8298,2.8187,2.7955,2.7876,2.7459,2.6502,2.5793,2.5379,2.5252,2.5252,2.5252,2.526,2.5255,2.534,2.5495,2.5576,2.5519,2.533,2.4746,2.427,0.0,0.0,0.0,0.0,0.0,0.0,0.0,0.0,0.0,0.0,0.0,1.2719,1.2733,0.0,1.4577,1.5019,1.5413,1.5691,1.5869,1.6001,1.6306,1.6892,1.6934,1.7173,1.7733,1.8327,1.8999,1.9626,2.0108,2.0465,2.0781,2.0893,2.1071,2.1293,2.1448,2.157,2.1661,2.2219,2.2692,2.3093,2.4045,2.4584,2.4752,2.5202,2.5286,2.5092,2.5929,2.6644,2.7335,2.8469,2.8827,2.8585,2.7733,2.6971,2.6357,2.6355,2.6441,2.6613,2.6996,2.7013,2.6802,2.6797,2.6613,2.6444,2.6593,2.6695,2.676,2.687,2.6922,2.6958,2.6993,2.6683,2.6351,2.6351,2.6355,2.6592,2.7454,2.8339,2.9219,3.0078,3.0605,3.0898,3.0903,3.0536,3.0247,3.0242,2.9886,2.9591,2.9552,2.9552,2.9552,2.9591,2.9533,2.9328,2.8886,2.8384,2.7892,2.7376,2.6934,2.6721,2.6749,2.6776,2.6804,2.6804,2.6808,2.6803,2.681,2.687,2.69,2.6895,2.697,2.6529,0.0,0.0,0.0,0.0,0.0,0.0,0.0,1.1528,1.1598,1.179,1.2579,1.338,1.4011,1.4282,1.4626,1.5443,1.5468,1.5424,1.5691,1.5869,1.6032,1.6349,1.665,1.6989,1.7352,1.7814,1.8341,1.902,1.9406,1.9782,2.015,2.041,2.063,2.0828,2.1119,2.1309,2.1294,2.188,2.2413,2.2798,2.3993,2.4917,2.5567,2.6287,2.6447,2.6221,2.7234,2.7452,2.7257,2.8434,2.8466,2.7789,2.8057,2.8127,2.8,2.7237,2.7063,2.7214,2.7344,2.7454,2.7538,2.7509,2.7498,2.7568,2.7785,2.7902,2.7993,2.814,2.8197,2.8216,2.8276,2.7754,2.7247,2.7249,2.6722,2.6585,2.8008,2.8431,2.8925,3.0156,3.0527,3.0585,3.0415,3.0392,3.0506,3.086,3.0899,3.0821,3.0606,3.0567,3.0528,3.0411,3.0299,3.0037,2.9533,2.8657,2.8164,2.826,2.8113,2.8014,2.8014,2.8078,2.8105,2.8105,2.8109,2.8027,2.7847,2.7901,2.7864,2.7698,2.7948,2.7663,1.526,1.3685,1.2604,1.2539,1.2399,1.2654,0.0,1.4075,1.3518,1.3365,1.406,1.4529,1.4002,1.4339,1.4687,1.4789,1.4789,1.4937,1.5457,1.5591,1.5812,1.6349,1.6607,1.6808,1.7031,1.7516,1.8028,1.8539,1.8983,1.9406,1.9762,2.0115,2.0392,2.0561,2.0811,2.1039,2.1215,2.2556,2.3079,2.2814,2.4182,2.478,2.4644,2.4819,2.5299,2.6134,2.782,2.8644,2.8817,2.9933,3.0006,2.9457,2.9646,2.9351,2.8714,2.8101,2.7853,2.8027,2.8829,2.8666,2.811,2.8166,2.7916,2.7606,2.7704,2.7885,2.8087,2.8182,2.8198,2.8194,2.8216,2.8148,2.8073,2.8145,2.8088,2.8069,2.8266,2.891,2.9285,2.8708,2.9218,2.9491,2.8717,2.8594,2.9121,3.0665,3.0899,3.0626,2.9826,2.9728,2.9435,2.8674,2.8572,2.881,2.9447,2.87,2.8481,2.9206,2.8517,2.8097,2.8097,2.8102,2.809,2.809,2.8105,2.7711,2.6942,2.7021,2.6656,2.5902,2.6757,2.7087,1.6318,1.5475,1.4756,1.389,1.4051,1.4575,1.5061,1.4638,1.4178,1.4328,1.4369,1.4354,1.4271,1.4404,1.4536,1.4663,1.4698,1.4801,1.4983,1.513,1.5311,1.5603,1.5724,1.6107,1.6905,1.7199,1.7679,1.8422,1.8693,1.9072,1.969,1.9869,1.9975,2.003,2.0573,2.0828,2.0864,2.2205,2.2802,2.2703,2.4172,2.511,2.5581,2.6234,2.6805,2.7358,2.7774,2.8032,2.8167,2.8735,2.8913,2.8838,2.905,2.9028,2.8821,2.8654,2.8636,2.8759,2.9193,2.9163,2.8888,2.8928,2.8892,2.8852,2.9044,2.9267,2.9464,2.9609,2.9641,2.9658,2.9698,2.9343,2.8964,2.899,2.8647,2.844,2.8949,2.9338,2.9632,2.9793,2.97,2.9485,2.9125,2.8635,2.8555,2.9277,2.9394,2.9435,2.9572,2.9162,2.8693,2.8342,2.8293,2.8411,2.8725,2.8411,2.8314,2.8567,2.8236,2.8039,2.8039,2.807,2.8112,2.8112,2.8106,2.7951,2.7601,2.7643,2.7471,2.7124,2.8046,2.8192,1.6397,1.6258,1.61,1.4687,1.5114,1.5782,1.532,1.4947,1.4704,1.4926,1.4512,1.4197,1.4408,1.4326,1.428,1.4387,1.4387,1.4433,1.4582,1.472,1.4869,1.5062,1.5108,1.5501,1.6466,1.6723,1.7173,1.7867,1.8212,1.8616,1.9132,1.9281,1.9332,1.9332,2.0124,2.0504,2.0413,2.1797,2.2585,2.282,2.42,2.5324,2.6243,2.7179,2.7743,2.7959,2.7587,2.7438,2.7496,2.7719,2.795,2.8191,2.8388,2.8612,2.881,2.8923,2.9044,2.9178,2.9262,2.9344,2.9386,2.9392,2.9532,2.9731,2.9939,3.0177,3.0413,3.0579,3.0658,3.071,3.0764,3.0297,2.9847,2.9858,2.9224,2.8806,2.9455,2.9593,2.9728,3.0118,2.9867,2.9515,2.9279,2.8715,2.8383,2.8613,2.8457,2.844,2.883,2.8127,2.7581,2.7581,2.7574,2.7647,2.7824,2.7834,2.7892,2.8023,2.8039,2.8028,2.8028,2.8066,2.8106,2.8106,2.8094,2.8139,2.8193,2.8197,2.8193,2.8218,2.8846,2.8834,1.5223,1.549,1.5749,1.4657,1.5219,1.5876,1.5421,1.5421,1.5478,1.5142,1.48,1.4523,1.4269,1.3988,1.3773,1.3668,1.361,1.38,1.4326,1.4419,1.4605,1.5062,1.5108,1.5187,1.5433,1.6083,1.6502,1.6476,1.7422,1.7974,1.7867,1.8224,1.8458,1.8458,1.9419,1.9908,1.9908,2.1647,2.2763,2.3297,2.4304,2.5214,2.601,2.6657,2.7009,2.7169,2.7313,2.7407,2.7407,2.7689,2.7922,2.8126,2.8327,2.8562,2.8785,2.881,2.8929,2.9112,2.924,2.9302,2.9304,2.9372,2.9532,2.9716,2.9777,3.0032,3.0329,3.0394,3.0546,3.0695,3.0691,3.0684,3.0681,3.0751,3.0095,2.9494,2.9589,2.9593,2.9357,2.8537,2.9042,2.9335,2.8498,2.8311,2.8587,2.9435,2.8847,2.801,2.7188,2.6312,2.5785,2.5785,2.5774,2.6083,2.6861,2.6935,2.7265,2.8042,2.8094,2.8097,2.8097,2.8106,2.81,2.81,2.81,2.8119,2.8198,2.8198,2.8197,2.8205,2.8239,2.8261,1.5972,1.5793,1.5509,1.5084,1.5283,1.5534,1.5232,1.5232,1.5187,1.5006,1.4971,1.4846,1.4523,1.4337,1.4093,1.3668,1.3668,1.3763,1.3858,1.401,1.4197,1.4337,1.4384,1.4373,1.4466,1.5433,1.617,1.6502,1.7118,1.7585,1.7787,1.8066,1.8145,1.8014,1.9211,1.988,1.988,2.1642,2.2703,2.3165,2.4189,2.4902,2.5351,2.5779,2.621,2.6657,2.6741,2.7038,2.7407,2.7557,2.7719,2.7922,2.8174,2.8388,2.8612,2.8761,2.8881,2.8998,2.913,2.9237,2.9302,2.9326,2.9512,2.9793,3.0356,3.033,3.0226,3.0835,3.1137,3.1313,3.135,3.146,3.1565,3.1582,3.0959,3.0373,3.0395,3.0398,3.0303,3.0018,2.9767,2.9513,2.9218,2.9164,2.9457,3.0331,2.9726,2.8854,2.7962,2.7611,2.7433,2.7427,2.743,2.751,2.774,2.7768,2.7868,2.8089,2.8102,2.8097,2.8092,2.8094,2.81,2.81,2.81,2.8132,2.8199,2.8199,2.8216,2.8277,2.8808,2.9075,1.6048,1.5598,1.5139,1.5161,1.5187,1.5175,1.4915,1.5017,1.5062,1.4858,1.4767,1.471,1.4582,1.418,1.3878,1.3841,1.3721,1.3632,1.3647,1.3868,1.402,1.402,1.402,1.402,1.4057,1.4903,1.5611,1.5983,1.6612,1.7089,1.7229,1.7517,1.7612,1.7475,1.8836,1.9588,1.969,2.1356,2.248,2.3127,2.4074,2.4648,2.4887,2.5259,2.5689,2.6068,2.6229,2.6522,2.6908,2.7166,2.7352,2.7589,2.7989,2.8282,2.8518,2.8712,2.881,2.8881,2.9044,2.9152,2.9218,2.9262,2.9411,2.9645,3.017,3.0111,3.0007,3.0605,3.112,3.1499,3.1561,3.1952,3.2365,3.2361,3.2013,3.169,3.1726,3.1734,3.1737,3.1736,3.1309,3.0958,3.0955,3.0955,3.115,3.1716,3.1328,3.0535,2.9373,2.9237,2.9236,2.9233,2.9228,2.9201,2.9129,2.8826,2.8614,2.857,2.8276,2.8105,2.8099,2.8094,2.81,2.81,2.81,2.8287,2.8666,2.8656,2.8844,2.9209,2.9726,2.9952,1.5504,1.5061,1.4728,1.4914,1.4926,1.4812,1.4547,1.4789,1.5006,1.4721,1.435,1.4171,1.4392,1.3696,1.3302,1.4039,1.3697,1.3454,1.3758,1.3915,1.402,1.402,1.402,1.4104,1.4222,1.4674,1.4949,1.4949,1.602,1.6552,1.6244,1.6663,1.6931,1.6969,1.8323,1.9152,1.9341,2.0887,2.2123,2.3083,2.3948,2.4405,2.4542,2.5012,2.5319,2.5503,2.5815,2.5961,2.6033,2.6573,2.6905,2.7141,2.7818,2.8219,2.8466,2.8619,2.8737,2.881,2.8998,2.9108,2.9108,2.9156,2.924,2.9283,2.9347,2.9531,2.9756,2.9882,3.0633,3.1412,3.1422,3.2231,3.304,3.3054,3.3175,3.3291,3.3375,3.3384,3.3392,3.3392,3.3395,3.3417,3.3456,3.3476,3.3476,3.3534,3.3534,3.2936,3.123,3.1035,3.1016,3.0976,3.0972,3.0931,3.0879,3.0053,2.956,2.9586,2.8788,2.8299,2.8293,2.8249,2.8236,2.8236,2.8236,2.8664,2.9555,2.9567,2.9998,3.0801,3.08,3.0797,1.6101,1.6028,1.5972,1.573,1.5163,1.4616,1.4362,1.4419,1.4459,1.4038,1.4049,1.3947,1.3433,1.3574,1.374,1.3502,1.3669,1.3803,1.38,1.3999,1.4186,1.4291,1.4616,1.4834,1.488,1.5175,1.5412,1.5412,1.6001,1.6362,1.6436,1.6748,1.7111,1.7609,1.8487,1.9304,1.994,2.1374,2.2278,2.2737,2.3231,2.3566,2.3782,2.4063,2.4486,2.5059,2.5291,2.5631,2.6013,2.6264,2.6454,2.6707,2.7286,2.7654,2.7886,2.837,2.8543,2.8612,2.881,2.8929,2.904,2.9089,2.9156,2.9351,2.9987,3.0238,3.0453,3.1155,3.209,3.2881,3.2988,3.3303,3.3646,3.3848,3.3396,3.2995,3.3278,3.3258,3.3219,3.3364,3.3409,3.3612,3.4256,3.4374,3.4588,3.5232,3.5347,3.4713,3.2988,3.2754,3.2539,3.1934,3.1875,3.1836,3.1777,3.1555,3.1655,3.2192,3.1471,3.0991,3.0925,3.0365,3.003,3.003,3.003,3.0147,3.0392,3.0397,3.0526,3.0801,3.0798,3.08,1.6622,1.635,1.6032,1.5604,1.4876,1.419,1.3928,1.393,1.3781,1.2915,1.303,1.3054,1.2316,1.2754,1.3117,1.2967,1.3247,1.3558,1.3589,1.38,1.3941,1.4046,1.4269,1.4547,1.4823,1.5096,1.5457,1.5768,1.6132,1.6392,1.6479,1.6778,1.7218,1.786,1.8565,1.9489,2.0731,2.1736,2.2324,2.2615,2.2947,2.3216,2.3422,2.3668,2.4078,2.4517,2.4799,2.5114,2.5406,2.5746,2.598,2.6193,2.6839,2.7161,2.7365,2.7971,2.8237,2.8317,2.8569,2.8998,2.9357,2.9104,2.9306,2.971,2.9843,3.0424,3.1065,3.1221,3.2238,3.3308,3.3369,3.379,3.4249,3.4427,3.4175,3.3955,3.4168,3.4234,3.4276,3.4425,3.4476,3.4632,3.5108,3.4908,3.4861,3.5369,3.5096,3.4515,3.353,3.373,3.3809,3.3359,3.2949,3.2715,3.2676,3.2324,3.2251,3.2647,3.2244,3.182,3.139,3.1317,3.1098,3.071,3.069,3.0704,3.0704,3.0697,3.0735,3.0807,3.0797,3.0799,1.69,1.6302,1.5612,1.5159,1.4382,1.3695,1.3515,1.3354,1.2967,1.1736,1.1715,1.1778,1.1266,1.1533,1.1994,1.2457,1.2663,1.2919,1.3301,1.3467,1.3573,1.3621,1.3668,1.3894,1.4455,1.472,1.5175,1.5901,1.625,1.6504,1.6665,1.6935,1.7446,1.8182,1.8832,1.99,2.141,2.1949,2.2324,2.2615,2.2947,2.3157,2.3319,2.3668,2.3882,2.4024,2.4426,2.4589,2.463,2.5176,2.5481,2.5738,2.6402,2.674,2.6905,2.7517,2.7858,2.8027,2.8362,2.9039,2.9682,2.9205,2.9672,3.0299,2.9623,3.054,3.1686,3.0983,3.1964,3.3227,3.325,3.3939,3.4678,3.4756,3.4992,3.5249,3.5348,3.554,3.5706,3.5768,3.5827,3.5866,3.5801,3.5173,3.468,3.47,3.3958,3.3395,3.3395,3.4057,3.4472,3.4375,3.3672,3.3223,3.3242,3.2559,3.2123,3.2162,3.2054,3.166,3.0886,3.1491,3.146,3.071,3.069,3.069,3.069,3.0704,3.0735,3.0791,3.0797,3.0798,1.6315,1.6126,1.5831,1.5305,1.4369,1.3543,1.3223,1.279,0.0,1.1542,1.0994,1.0578,1.0433,1.0691,1.1212,1.2058,1.223,1.2481,1.3145,1.3362,1.3515,1.3716,1.4035,1.4294,1.4617,1.4709,1.5028,1.5788,1.6039,1.6554,1.7454,1.7655,1.8312,1.9601,2.0289,2.0917,2.1568,2.1996,2.2324,2.2615,2.2947,2.3157,2.3319,2.3668,2.3882,2.4024,2.4374,2.4564,2.463,2.4831,2.5084,2.5432,2.5941,2.6262,2.6505,2.7321,2.773,2.7904,2.8282,2.8626,2.9028,2.9686,3.0448,3.1114,3.1084,3.1759,3.2527,3.2428,3.3148,3.3944,3.3974,3.4204,3.4439,3.4658,3.4755,3.4908,3.5234,3.5488,3.5609,3.562,3.5732,3.5806,3.5741,3.5113,3.4618,3.4613,3.391,3.3402,3.3395,3.3537,3.3351,3.2637,3.2422,3.2344,3.2402,3.2266,3.2436,3.3044,3.2411,3.1903,3.1689,3.1208,3.0843,3.0707,3.0703,3.069,3.069,3.0697,3.0734,3.0801,3.0806,3.0801,1.5857,1.5635,1.5348,1.4635,1.382,1.3104,1.2775,0.0,0.0,1.0852,1.0366,0.9995,0.963,1.0032,1.0578,1.1216,1.1277,1.1608,1.2623,1.2695,1.2817,1.3416,1.3647,1.392,1.4398,1.449,1.4903,1.5844,1.6365,1.7005,1.774,1.8546,1.9317,1.9964,2.074,2.1326,2.1793,2.2091,2.2417,2.2843,2.3037,2.3216,2.3407,2.361,2.3797,2.4024,2.4276,2.4482,2.4589,2.4726,2.4942,2.5178,2.5492,2.5754,2.601,2.6841,2.7289,2.7582,2.8119,2.8954,2.9872,3.0436,3.0921,3.1302,3.1378,3.2316,3.3232,3.2852,3.3389,3.4074,3.4124,3.4173,3.425,3.4442,3.4607,3.4791,3.513,3.5268,3.5391,3.5514,3.5568,3.5582,3.5611,3.5014,3.4517,3.4443,3.3797,3.3312,3.3297,3.3301,3.2989,3.218,3.1735,3.1484,3.1523,3.1523,3.1634,3.1928,3.1977,3.1767,3.1254,3.1288,3.1138,3.0719,3.0688,3.0703,3.069,3.1156,3.1401,3.1443,3.1899,3.2129,1.5329,1.4977,1.4573,1.3789,1.3134,1.2579,1.2233,1.1747,1.1074,1.0107,0.9734,0.9477,0.9097,0.9422,0.9893,1.0409,1.0514,1.0945,1.2119,1.2223,1.2418,1.3137,1.3218,1.3457,1.4035,1.4186,1.464,1.568,1.6778,1.7667,1.8293,1.9514,2.0175,2.021,2.089,2.152,2.2044,2.2184,2.2555,2.3082,2.3127,2.3246,2.3509,2.361,2.3797,2.4024,2.4234,2.4426,2.4589,2.4726,2.4846,2.5005,2.5201,2.541,2.5691,2.6532,2.7096,2.7566,2.8329,2.9579,3.0854,3.1211,3.1536,3.1762,3.1814,3.2771,3.3713,3.3114,3.3442,3.3998,3.4049,3.4074,3.4124,3.4269,3.4495,3.4751,3.4962,3.5034,3.5122,3.5326,3.5353,3.5355,3.5444,3.4874,3.4398,3.436,3.366,3.3165,3.3225,3.3174,3.2939,3.2381,3.1775,3.1411,3.1415,3.1399,3.1343,3.1215,3.1859,3.1903,3.1167,3.1794,3.1851,3.1227,3.1235,3.1231,3.1246,3.1948,3.2274,3.2292,3.3,3.3359,1.4602,1.416,1.3555,1.325,1.2733,1.2205,1.1545,0.0,1.0326,0.9763,0.9096,0.8746,0.9113,0.8799,0.8838,0.9955,0.0,1.0974,1.1827,1.2589,1.3175,1.3351,1.3266,1.3362,1.381,1.3763,1.4035,1.4949,1.6912,1.8554,1.9569,2.0355,2.0845,2.0917,2.1348,2.1746,2.2184,2.2417,2.2752,2.3082,2.3231,2.3378,2.3509,2.3812,2.3982,2.4024,2.4234,2.4426,2.4589,2.4589,2.4766,2.5005,2.5201,2.5432,2.5724,2.6899,2.7707,2.838,2.9509,3.0279,3.0851,3.1808,3.2635,3.333,3.3424,3.3588,3.3707,3.3715,3.3787,3.3895,3.3921,3.3998,3.4124,3.4269,3.4473,3.4645,3.4728,3.4831,3.4945,3.4945,3.5053,3.5168,3.5296,3.4653,3.4234,3.4436,3.3654,3.3082,3.3276,3.3126,3.304,3.3096,3.3095,3.3083,3.3075,3.3025,3.297,3.2868,3.2952,3.2963,3.288,3.2938,3.2958,3.288,3.2945,3.297,3.297,3.3108,3.3189,3.3183,3.3338,3.3394,1.3781,1.363,1.3396,1.2884,1.2603,1.2205,1.1455,1.0711,1.0011,0.9514,0.8869,0.8524,0.8951,0.8704,0.8717,0.0,0.0,0.0,1.0791,1.146,1.2139,1.2864,1.3279,1.3668,1.3915,1.3952,1.4591,1.6101,1.7581,1.8796,1.9761,2.0319,2.0586,2.0536,2.1055,2.1541,2.1949,2.2449,2.2859,2.3201,2.3378,2.3494,2.3668,2.3839,2.3982,2.4124,2.4208,2.4359,2.4523,2.4589,2.4726,2.4902,2.506,2.5333,2.5718,2.6834,2.7506,2.8135,2.9462,3.0427,3.1151,3.1822,3.2665,3.3452,3.3549,3.3605,3.3643,3.3726,3.3753,3.3807,3.3868,3.3972,3.4074,3.4148,3.4269,3.4427,3.4602,3.4647,3.4711,3.4926,3.4945,3.4964,3.5086,3.4901,3.4745,3.4912,3.4648,3.453,3.4711,3.4667,3.4675,3.4808,3.3874,3.3232,3.3246,3.3301,3.325,3.3111,3.317,3.3209,3.3169,3.3112,3.3141,3.3219,3.3209,3.3227,3.3251,3.3814,3.4108,3.4157,3.4668,3.4936,1.3278,1.3263,1.3202,1.2654,1.2385,1.2073,1.1186,1.0397,0.9667,0.9086,0.8562,0.8298,0.8671,0.8492,0.8529,0.0,0.0,0.9161,1.0389,1.1082,1.1846,1.2914,1.3514,1.3915,1.4057,1.4363,1.5303,1.6987,1.7992,1.8869,1.9683,2.0067,2.022,2.0182,2.0795,2.1334,2.1793,2.2328,2.2844,2.3319,2.3466,2.3596,2.3797,2.3839,2.3982,2.4223,2.4208,2.4333,2.4523,2.4589,2.4686,2.4862,2.4966,2.5217,2.5675,2.6836,2.7582,2.8174,2.9713,3.0852,3.1691,3.201,3.2697,3.3393,3.3452,3.3538,3.3605,3.3671,3.3726,3.3753,3.3895,3.3972,3.4023,3.4124,3.4173,3.4269,3.4473,3.4517,3.4564,3.4812,3.4791,3.479,3.4944,3.4981,3.5034,3.5181,3.5273,3.5412,3.5621,3.5631,3.5697,3.584,3.4704,3.3957,3.3962,3.4039,3.4023,3.3914,3.3981,3.4007,3.3945,3.3916,3.3935,3.4002,3.3992,3.4017,3.4077,3.4706,3.5044,3.5097,3.5663,3.5948,1.3107,1.3055,1.2832,1.2578,1.2225,1.161,1.0548,0.9834,0.9181,0.8393,0.8048,0.7984,0.8262,0.808,0.8052,0.0,0.0,0.0,1.1047,1.201,1.2935,1.3893,1.401,1.4057,1.4176,1.499,1.5927,1.7022,1.7955,1.8804,1.9579,1.9759,1.9914,2.0182,2.0709,2.1237,2.1793,2.2156,2.2649,2.3319,2.3466,2.3596,2.3797,2.394,2.4082,2.4208,2.4276,2.4426,2.4589,2.4589,2.4751,2.5005,2.5005,2.5123,2.5509,2.7203,2.8073,2.8741,3.062,3.177,3.2401,3.2619,3.3006,3.3393,3.3393,3.3452,3.352,3.3671,3.3753,3.3815,3.3972,3.3998,3.4023,3.4173,3.4245,3.4293,3.4293,3.4404,3.4495,3.4495,3.4561,3.4668,3.487,3.4851,3.4889,3.5155,3.5209,3.5268,3.5481,3.55,3.5543,3.5699,3.5688,3.5693,3.5774,3.5706,3.571,3.5772,3.5772,3.5737,3.5687,3.5743,3.5736,3.5684,3.5799,3.5869,3.5869,3.594,3.5994,3.5994,3.6007,3.5994,1.2408,1.2243,1.2004,1.1426,1.0956,1.0542,1.0074,0.9366,0.8774,0.8462,0.8026,0.7724,0.7821,0.7869,0.8128,0.8805,0.0,0.0,1.0517,1.1535,1.2381,1.2836,1.3844,1.4569,1.4789,1.577,1.6636,1.7205,1.8241,1.9028,1.946,1.9617,1.9708,1.9772,2.0321,2.0759,2.1104,2.1684,2.2123,2.2402,2.2526,2.2815,2.3406,2.3406,2.3767,2.4276,2.4317,2.44,2.4539,2.4589,2.471,2.4909,2.5462,2.5919,2.6451,2.7915,2.8747,2.932,3.074,3.1432,3.1752,3.2092,3.2586,3.2988,3.2988,3.3208,3.3452,3.3605,3.3726,3.3807,3.3842,3.3868,3.3895,3.4023,3.4074,3.4124,3.4269,3.434,3.4386,3.4495,3.4517,3.4561,3.467,3.4791,3.4945,3.5181,3.5283,3.5406,3.5609,3.5679,3.5718,3.5766,3.5799,3.5815,3.5735,3.5807,3.5807,3.5737,3.5814,3.5866,3.5845,3.5806,3.5826,3.5903,3.5911,3.5923,3.5968,3.5995,3.6007,3.6007,3.5999,3.5991,1.1639,1.1532,1.1296,1.0649,1.0155,0.9772,0.9422,0.8835,0.8313,0.8056,0.7707,0.7462,0.7588,0.7608,0.7871,0.8535,0.8561,0.8886,1.0133,1.1033,1.1948,1.3043,1.4058,1.48,1.5165,1.6159,1.6898,1.7302,1.8488,1.9303,1.9473,1.9617,1.9708,1.9772,2.0016,2.0409,2.0845,2.1299,2.165,2.1996,2.2095,2.2543,2.3216,2.326,2.3666,2.4302,2.4359,2.4441,0.0,2.4645,2.4766,2.4965,2.5699,2.6157,2.6615,2.8214,2.8942,2.9313,3.0523,3.114,3.1435,3.1696,3.2248,3.2844,3.2988,3.3208,3.3452,3.3577,3.3671,3.378,3.3815,3.386,3.3868,3.3972,3.4023,3.4074,3.4197,3.453,3.4708,3.4483,3.4978,3.5379,3.5083,3.5423,3.5797,3.6002,3.5879,3.5842,3.606,3.5883,3.5775,3.5803,3.5846,3.5951,3.6209,3.6021,3.5855,3.5788,3.5855,3.5904,3.5903,3.5869,3.5894,3.5967,3.5947,3.5962,3.5996,3.5992,3.6005,3.6001,3.6001,3.5999,0.0,1.0833,1.0633,1.0089,0.9675,0.9236,0.869,0.8262,0.0,0.7345,0.7214,0.7303,0.7606,0.742,0.7381,0.794,0.7852,0.8291,0.994,1.0623,1.1798,1.412,1.4477,1.4765,1.5222,1.617,1.6947,1.7364,1.8769,1.9604,1.9617,1.9759,1.9862,1.999,1.9862,2.0207,2.0944,2.0944,2.1299,2.1949,2.2109,2.2498,2.3128,2.326,2.3681,2.4261,2.4457,2.4564,2.463,2.4742,2.4902,2.5084,2.574,2.604,2.637,2.8146,2.8864,2.9079,3.0153,3.0885,3.1359,3.1397,3.2022,3.2844,3.3208,3.3422,3.3491,3.3577,3.3643,3.3726,3.3842,3.3895,3.3895,3.3972,3.4049,3.4117,3.4173,3.4922,3.5373,3.4609,3.5843,3.6737,3.6012,3.6569,3.7175,3.7392,3.6897,3.6562,3.6697,3.6226,3.5883,3.5872,3.593,3.6315,3.7129,3.645,3.6016,3.6079,3.6079,3.6075,3.6085,3.6134,3.6153,3.6094,3.6083,3.6094,3.6094,3.6035,3.5996,3.5992,3.5992,3.6007,0.8983,0.0,0.9461,0.8936,0.8464,0.8149,0.0,0.7935,0.7668,0.7791,0.7476,0.7418,0.8159,0.7688,0.7669,0.904,0.9164,0.9493,1.0679,1.1802,1.2884,1.3971,1.4222,1.4419,1.464,1.6195,1.7242,1.7436,1.8882,1.9811,1.9875,1.9939,2.0029,2.0131,2.0131,2.0283,2.0599,2.0599,2.0812,2.1171,2.1207,2.1616,2.2296,2.2725,2.3304,2.3925,2.4385,2.4645,2.4782,2.4782,2.4902,2.5084,2.574,2.6573,2.7494,2.8466,2.9342,3.0153,3.0502,3.0773,3.0942,3.1414,3.1878,3.235,3.2795,3.319,3.3491,3.352,3.3605,3.3698,3.3753,3.3807,3.3842,3.3895,3.3947,3.4157,3.4925,3.5273,3.5609,3.6093,3.6553,3.6827,3.6737,3.6979,3.7253,3.7527,3.7548,3.7373,3.6914,3.7301,3.7383,3.6783,3.7317,3.7802,3.7995,3.7277,3.7131,3.7837,3.7882,3.7887,3.7888,3.7897,3.7925,3.7956,3.7335,3.6989,3.6989,3.6328,3.5996,3.5996,3.5996,3.5995,0.8076,0.8705,0.9259,0.8803,0.8486,0.8347,0.8483,0.8019,0.7576,0.7743,0.7542,0.7493,0.795,0.8032,0.8309,0.916,0.9648,1.0234,1.119,1.2312,1.3232,1.3826,1.4035,1.4258,1.4731,1.6136,1.7181,1.7545,1.8983,1.9926,1.999,2.0042,2.0195,2.0347,2.0385,2.0485,2.0675,2.0599,2.0699,2.0974,2.1023,2.1388,2.2044,2.2452,2.2995,2.3625,2.4036,2.4343,2.4564,2.462,2.4822,2.5084,2.5821,2.675,2.772,2.8598,2.9524,3.0401,3.0568,3.0692,3.0895,3.147,3.1787,3.2021,3.2435,3.2844,3.322,3.3491,3.3605,3.3671,3.3726,3.378,3.3899,3.432,3.4457,3.475,3.5687,3.6221,3.6552,3.6712,3.7378,3.7821,3.7499,3.7896,3.8339,3.869,3.8492,3.8255,3.8117,3.8152,3.8028,3.7594,3.7889,3.8326,3.8859,3.8404,3.8218,3.8449,3.8449,3.8468,3.8497,3.8493,3.853,3.8609,3.8149,3.7702,3.7294,3.6829,3.6384,3.6016,3.6406,3.6601,0.7851,0.8742,0.9471,0.8931,0.8906,0.8941,0.8757,0.0,0.0,0.0,0.0,0.7671,0.7862,0.8554,0.9091,0.9214,0.999,1.0883,1.1685,1.2534,1.3196,1.3674,1.3847,1.4165,1.4777,1.5944,1.6825,1.7376,1.8895,1.9823,1.9939,2.0029,2.0233,2.0461,2.0586,2.0749,2.0888,2.0749,2.0772,2.1033,2.1131,2.1471,2.1996,2.2388,2.2799,2.3275,2.3668,2.4009,2.4276,2.4441,2.4701,2.5069,2.5815,2.6711,2.7605,2.8592,2.951,3.0274,3.0443,3.0651,3.0935,3.1432,3.1603,3.1714,3.2109,3.2468,3.2925,3.3513,3.3621,3.3651,3.3899,3.3963,3.4192,3.499,3.5285,3.5625,3.65,3.7258,3.7637,3.7161,3.8199,3.8923,3.8149,3.8667,3.9289,3.9619,3.9052,3.8701,3.8981,3.8633,3.8279,3.8136,3.8194,3.8656,3.9646,3.9567,3.9286,3.8805,3.8782,3.8804,3.8871,3.8887,3.8911,3.897,3.8857,3.8427,3.7689,3.7419,3.6981,3.6406,3.7012,3.7363,0.8613,0.9149,0.9244,0.8175,0.8435,0.8818,0.8065,0.7753,0.0,0.0,0.0,0.8365,0.955,0.955,0.9743,1.0986,1.1407,1.189,1.2681,1.2992,1.3195,1.3256,1.3515,1.3658,1.3647,1.5323,1.64,1.6478,1.796,1.9081,1.9617,1.9656,1.9926,2.0461,2.0725,2.0875,2.0997,2.0934,2.1033,2.118,2.118,2.1423,2.1841,2.2434,2.2844,2.3172,2.3711,2.3982,2.4067,2.4374,2.4645,2.4871,2.5289,2.6493,2.7996,2.819,2.9181,3.0485,3.0485,3.0526,3.0593,3.0935,3.1201,3.1473,3.1714,3.2265,3.2969,3.3791,3.3786,3.3684,3.4454,3.4676,3.4962,3.5899,3.6119,3.635,3.7245,3.7589,3.7904,3.8544,3.8906,3.8868,3.8122,3.8111,3.8097,3.77,3.7737,3.7543,3.6884,3.812,3.8689,3.7795,3.8986,3.9974,4.0328,4.0328,4.0372,4.05,4.0519,4.0546,4.0614,4.063,4.061,4.0635,3.996,3.9559,3.9403,3.7998,3.7616,3.8188,3.7577,3.7695,0.7913,0.8502,0.875,0.7923,0.8639,0.9385,0.8801,0.8433,0.0,0.0,0.8755,0.917,1.0186,1.0587,1.1233,1.2489,1.2624,1.2719,1.313,1.3228,1.3218,1.3314,1.3467,1.3714,1.4049,1.5438,1.6424,1.6775,1.8008,1.8869,1.9133,1.95,1.9862,2.022,2.0699,2.101,2.1082,2.118,2.1229,2.1326,2.1471,2.1616,2.1793,2.2402,2.2723,2.2873,2.3231,2.3494,2.3696,2.3867,2.4204,2.4717,2.5497,2.6679,2.8078,2.905,2.9865,3.0526,3.0651,3.0692,3.0733,3.0992,3.1173,3.138,3.1888,3.2409,3.3073,3.4076,3.4275,3.4327,3.5217,3.5476,3.5597,3.6069,3.619,3.6329,3.683,3.6979,3.7146,3.7609,3.7719,3.7644,3.737,3.7296,3.7275,3.7156,3.7251,3.7413,3.7622,3.8435,3.8986,3.901,3.9624,4.012,4.0319,4.0334,4.0492,4.0886,4.0888,4.0926,4.0996,4.0991,4.0993,4.0994,4.0635,4.0223,3.9809,3.9037,3.8639,3.8593,3.8661,3.8922,0.7633,0.7991,0.8249,0.7965,0.0,0.9699,0.9402,0.8972,0.8776,0.9301,0.9591,0.9932,1.0606,1.1629,1.2634,1.3402,1.342,1.3314,1.3409,1.3372,1.3362,1.3467,1.3658,1.3947,1.4488,1.5455,1.6244,1.6778,1.7698,1.8407,1.8685,1.9226,1.9643,1.994,2.0472,2.0871,2.1082,2.1166,2.1326,2.1423,2.1664,2.1841,2.1902,2.237,2.2615,2.2661,2.2843,2.3053,2.329,2.3406,2.3809,2.4462,2.5601,2.6846,2.8192,2.9881,3.0526,3.0526,3.0749,3.0831,3.0814,3.1072,3.123,3.1523,3.2104,3.2713,3.3356,3.4446,3.478,3.4987,3.5775,3.5854,3.5775,3.6029,3.6113,3.619,3.6342,3.6398,3.6426,3.6545,3.6599,3.6552,3.6419,3.6556,3.6714,3.6738,3.6942,3.7373,3.8209,3.8575,3.8994,3.966,3.9781,3.9935,4.0177,4.0248,4.0427,4.0846,4.0898,4.0917,4.0971,4.098,4.0976,4.0986,4.0993,4.0701,4.0072,3.9882,3.9587,3.9198,3.9652,3.9976,0.8844,0.842,0.7881,0.8327,0.8765,0.9044,0.8969,0.8663,0.857,0.905,0.9808,1.0601,1.1214,1.2534,1.349,1.3409,1.3515,1.3563,1.3563,1.3668,1.3763,1.3763,1.3999,1.415,1.4063,1.4731,1.5356,1.5682,1.6306,1.7238,1.8447,1.8578,1.8951,1.9798,2.0003,2.0258,2.066,2.0759,2.1006,2.1423,2.1664,2.1949,2.2184,2.2463,2.2706,2.2888,2.2888,2.2888,2.2978,2.3392,2.3724,2.404,2.5211,2.6867,2.8783,3.0046,3.0526,3.0526,3.0526,3.0526,3.0568,3.0831,3.1381,3.1993,3.2232,3.3048,3.4088,3.4933,3.5129,3.5214,3.576,3.5417,3.5093,3.593,3.6208,3.6285,3.6285,3.636,3.6398,3.6398,3.6518,3.6366,3.5625,3.6159,3.6452,3.5733,3.6424,3.7005,3.6945,3.7863,3.8467,3.8357,3.9113,3.9777,4.0177,4.0367,4.0568,4.08,4.0876,4.0907,4.0907,4.0917,4.0917,4.0917,4.098,4.0979,4.0916,4.0164,4.0192,4.0896,4.0154,4.0213,0.7551,0.7536,0.7506,0.7911,0.8399,0.0,0.0,0.9111,0.9455,1.0106,1.0749,1.15,1.2454,1.3195,1.361,1.3621,1.3668,1.3763,1.3821,1.3868,1.3915,1.3915,1.4093,1.4294,1.4559,1.4898,1.5351,1.5935,1.6472,1.7081,1.7716,1.8413,1.9028,1.9384,1.9786,2.0295,2.0993,2.0709,2.1006,2.1902,2.1996,2.2184,2.2463,2.2661,2.2843,2.2888,2.2888,2.2888,2.2947,2.3201,2.3436,2.3872,2.5589,2.7295,2.8864,2.975,3.0258,3.051,3.0692,3.0733,3.0857,3.1554,3.1972,3.2377,3.3372,3.3973,3.4533,3.558,3.5174,3.4705,3.5894,3.5842,3.5442,3.5389,3.5381,3.531,3.4853,3.477,3.4798,3.4852,3.5329,3.566,3.5451,3.6088,3.656,3.6296,3.6565,3.6988,3.7478,3.7922,3.839,3.8952,3.9364,3.9754,4.0177,4.0267,4.0454,4.0784,4.0865,4.0907,4.0907,4.0888,4.0907,4.0907,4.0926,4.0968,4.0994,4.0694,4.074,4.1091,4.0757,4.076,0.7017,0.7134,0.7341,0.7755,0.0,0.0,0.9141,0.9471,0.9929,1.0651,1.1167,1.185,1.3074,1.3372,1.3515,1.3821,1.3868,1.3915,1.3973,1.4057,1.4057,1.4057,1.4186,1.4399,1.4784,1.4923,1.5266,1.6013,1.6401,1.6883,1.7439,1.8218,1.8819,1.9198,1.9552,2.0105,2.0795,2.0472,2.0809,2.1827,2.1983,2.2278,2.2615,2.2797,2.2888,2.2888,2.2888,2.2888,2.2888,2.3082,2.3452,2.4073,2.5872,2.73,2.8462,2.9447,2.9984,3.0342,3.0692,3.0981,3.129,3.1999,3.257,3.3144,3.4184,3.4658,3.5033,3.5865,3.5091,3.4263,3.54,3.5339,3.4909,3.4553,3.4511,3.4375,3.389,3.3807,3.3907,3.4191,3.4751,3.5284,3.5676,3.6424,3.6988,3.7076,3.7299,3.7679,3.8263,3.8364,3.8667,3.9413,3.9571,3.9754,4.0177,4.0196,4.0372,4.0778,4.0843,4.0856,4.0867,4.0888,4.0907,4.0907,4.0907,4.0924,4.0993,4.1007,4.1037,4.1101,4.1105,4.1093,0.7657,0.7496,0.7499,0.8,0.8511,0.9056,0.9681,0.9709,0.9753,1.0399,1.0922,1.166,1.2774,1.3016,1.3218,1.3868,1.402,1.402,1.402,1.414,1.4222,1.4222,1.4326,1.4477,1.4697,1.4708,1.5002,1.5736,1.5818,1.6411,1.7725,1.7784,1.8239,1.9158,1.9182,1.9485,1.999,1.999,2.0321,2.0993,2.1554,2.2091,2.2615,2.2797,2.2888,2.2888,2.2888,2.2888,2.2933,2.3187,2.3792,2.4732,2.5938,2.6764,2.7489,2.9166,2.9793,2.9897,3.0468,3.1175,3.185,3.2026,3.3136,3.4408,3.4479,3.503,3.5622,3.5622,3.4857,3.4019,3.4086,3.3565,3.3117,3.3502,3.3661,3.3726,3.378,3.3807,3.4045,3.4844,3.5064,3.5423,3.6353,3.723,3.7822,3.7912,3.8581,3.9101,3.9101,3.9156,3.9283,3.9469,3.9571,3.9754,4.0177,4.0196,4.0356,4.0778,4.0796,4.0792,4.0807,4.0859,4.0907,4.0907,4.0907,4.0935,4.0996,4.0993,4.1025,4.1096,4.1101,4.1054,0.7124,0.728,0.7638,0.8292,0.8898,0.9486,1.0031,1.0117,1.0343,1.115,1.1635,1.2151,1.2822,1.291,1.3104,1.3621,1.3716,1.3858,1.4244,1.4326,1.4373,1.4512,1.4605,1.4708,1.4971,1.4971,1.5177,1.5544,1.594,1.6385,1.6932,1.7735,1.8367,1.8627,1.9068,1.9617,2.0271,1.9926,2.0258,2.1272,2.1042,2.1444,2.2324,2.2706,2.2888,2.2902,2.2992,2.3037,2.3082,2.3334,2.3613,2.4014,2.5349,2.6184,2.6856,2.8249,2.918,2.9853,3.0182,3.1032,3.206,3.2774,3.3668,3.4563,3.5131,3.5453,3.5622,3.5622,3.4999,3.4303,3.41,3.3474,3.295,3.2955,3.3202,3.3408,3.3437,3.4063,3.4697,3.4935,3.5954,3.6922,3.7275,3.8024,3.8627,3.872,3.8952,3.9101,3.9101,3.9156,3.9256,3.9418,3.9495,3.9656,3.9958,3.9979,4.0158,4.0569,4.0593,4.0655,4.0787,4.0858,4.0908,4.0907,4.0907,4.0935,4.0996,4.0993,4.1025,4.1096,4.1091,4.109,0.7357,0.7677,0.818,0.8904,0.9384,0.9776,1.041,1.058,1.0729,1.1292,1.1687,1.1983,1.2398,1.2569,1.2803,1.3372,1.342,1.361,1.4093,1.4233,1.4419,1.4662,1.4789,1.4971,1.5244,1.5244,1.5379,1.5603,1.599,1.6344,1.6652,1.7411,1.8056,1.8522,1.8967,1.9495,2.0169,1.9862,2.0055,2.0782,2.0646,2.0957,2.1589,2.2063,2.2296,2.231,2.2632,2.2963,2.326,2.3422,2.3538,2.3729,2.5076,2.5786,2.626,2.7764,2.867,2.9273,2.9907,3.0997,3.221,3.3128,3.4118,3.5003,3.5442,3.5622,3.5622,3.5622,3.5081,3.4406,3.3884,3.3276,3.2772,3.2698,3.283,3.314,3.3494,3.4232,3.4984,3.5622,3.6692,3.7647,3.8106,3.8578,3.895,3.9073,3.9101,3.9101,3.9101,3.9156,3.9229,3.9301,3.9425,3.9602,3.9848,3.9892,4.008,4.0473,4.05,4.0582,4.0787,4.0848,4.0898,4.0907,4.0907,4.0926,4.0971,4.0991,4.102,4.1064,4.1084,4.1093,0.7975,0.8403,0.8868,0.9692,0.9864,1.0077,1.0883,1.1072,1.1048,1.1048,1.1263,1.1511,1.1781,1.2008,1.2393,1.3025,1.317,1.3314,1.3716,1.4031,1.4334,1.4625,1.4948,1.5222,1.5494,1.5537,1.5603,1.5792,1.5957,1.6207,1.6694,1.6916,1.7535,1.861,1.8747,1.9133,1.9723,1.9773,1.9798,1.9811,2.036,2.0588,2.0638,2.1166,2.1417,2.1465,2.2081,2.2754,2.3466,2.3509,2.3538,2.3729,2.5076,2.5615,2.5811,2.7573,2.824,2.8493,2.9738,3.1036,3.2341,3.3214,3.4392,3.5537,3.5594,3.5622,3.5622,3.5622,3.5131,3.4421,3.3694,3.3114,3.2681,3.2704,3.268,3.2889,3.3766,3.4325,3.51,3.6616,3.7252,3.7838,3.8733,3.891,3.895,3.9073,3.9101,3.9101,3.9101,3.9156,3.9183,3.9183,3.9373,3.9577,3.9758,3.9826,4.004,4.0425,4.0457,4.0559,4.0765,4.0837,4.0898,4.0907,4.0907,4.0907,4.0907,4.0971,4.0996,4.0996,4.107,4.1068,0.7617,0.8141,0.8715,0.9684,1.0145,1.0585,1.1562,1.1568,1.1362,1.1576,1.1682,1.1774,1.2,1.2076,1.2274,1.2715,1.2852,1.3045,1.342,1.3921,1.4345,1.459,1.5015,1.5434,1.5635,1.5783,1.5869,1.5792,1.6013,1.6149,1.6159,1.6798,1.7281,1.7563,1.8459,1.9033,1.9196,1.9597,1.9798,1.9811,2.042,2.0688,2.0729,2.1269,2.165,2.1888,2.2388,2.2754,2.3083,2.3436,2.361,2.3729,2.5076,2.5615,2.5764,2.7214,2.7978,2.8429,2.9465,3.0926,3.2508,3.3383,3.453,3.5594,3.5577,3.5622,3.5622,3.5622,3.5504,3.5199,3.4455,3.3812,3.3383,3.3459,3.336,3.3284,3.3477,3.4782,3.6107,3.6768,3.7479,3.8182,3.8796,3.891,3.895,3.9073,3.9101,3.9101,3.9101,3.9129,3.9129,3.9129,3.9248,3.9425,3.9626,3.9674,3.9777,4.002,4.0177,4.0353,4.0568,4.073,4.0858,4.0907,4.0907,4.0907,4.0907,4.0971,4.0996,4.0996,4.1013,4.1038,0.7693,0.8316,0.8917,1.0068,1.0761,1.1234,1.1768,1.1898,1.1893,1.1982,1.2,1.2035,1.2193,1.2351,1.2628,1.2997,1.317,1.3426,1.3761,1.4216,1.4542,1.4574,1.5169,1.5502,1.5416,1.5745,1.5957,1.5913,1.6144,1.6275,1.6219,1.6622,1.711,1.7647,1.8019,1.8606,1.9397,1.966,1.9988,2.0318,2.0885,2.1132,2.0972,2.1198,2.1385,2.1636,2.1908,2.2314,2.2934,2.3157,2.3377,2.3729,2.5076,2.5615,2.5764,2.7081,2.8006,2.8671,2.9495,3.0801,3.2273,3.3404,3.4407,3.5211,3.5532,3.5622,3.5622,3.5622,3.5622,3.5453,3.4692,3.4321,3.4032,3.3765,3.3399,3.3321,3.4088,3.5197,3.6237,3.6774,3.7556,3.8201,3.8504,3.8773,3.8997,3.9073,3.9101,3.9101,3.9101,3.9101,3.9101,3.9101,3.9175,3.9275,3.9476,3.9552,3.9631,3.9754,3.9956,4.0195,4.0496,4.0604,4.0734,4.0908,4.0898,4.0907,4.0907,4.0935,4.0943,4.0943,4.0986,4.1012,0.764,0.8494,0.9286,1.0648,1.1353,1.1756,1.1877,1.2075,1.2312,1.2343,1.2307,1.2263,1.2402,1.2663,1.3019,1.3502,1.372,1.3926,1.4194,1.451,1.4684,1.4624,1.5323,1.5694,1.5392,1.5956,1.6313,1.6313,1.6547,1.6679,1.6679,1.6767,1.7237,1.8179,1.7852,1.8317,1.966,1.9861,2.0292,2.0932,2.1581,2.178,2.1613,2.1345,2.1225,2.114,2.1188,2.1766,2.2663,2.2754,2.3068,2.3584,2.4819,2.5416,2.5779,2.713,2.8147,2.8943,2.9766,3.0852,3.2024,3.3307,3.4086,3.4675,3.5287,3.547,3.547,3.5577,3.5622,3.547,3.4905,3.4711,3.4636,3.4233,3.3671,3.3601,3.4921,3.5548,3.6085,3.6777,3.7505,3.805,3.8165,3.8554,3.8921,3.9073,3.9101,3.9305,3.9863,3.9955,3.9733,3.9157,3.9101,3.9202,3.9418,3.9546,3.9602,3.9602,3.9754,4.0001,4.0383,4.0453,4.0597,4.0826,4.0878,4.0907,4.0907,4.0907,4.0907,4.0888,4.096,4.0986,0.6442,0.7894,0.9553,1.0895,1.131,1.1532,1.2113,1.2032,1.2057,1.2968,1.2707,1.2402,1.2767,1.287,1.3072,1.3645,1.3882,1.399,1.4043,1.4463,1.4779,1.4785,1.5668,1.6315,1.6395,1.7093,1.7542,1.7542,1.779,1.7931,1.7812,1.7919,1.8041,1.8204,1.8593,1.892,1.9083,2.0075,2.0696,2.0932,2.2099,2.2686,2.2778,2.2721,2.2031,2.0799,2.118,2.1458,2.165,2.2049,2.2512,2.3052,2.3827,2.4752,2.5779,2.7244,2.8212,2.9003,3.051,3.1449,3.2127,3.3013,3.3665,3.4185,3.4721,3.4927,3.5021,3.547,3.5622,3.5605,3.5593,3.5231,3.5061,3.5694,3.5373,3.4956,3.5145,3.5739,3.637,3.6803,3.7303,3.7773,3.805,3.8231,3.8499,3.9027,3.9101,4.0123,4.2983,4.3355,4.2259,3.9398,3.9101,3.9229,3.9552,3.9596,3.9602,3.9602,3.9626,3.9731,3.9979,4.031,4.0524,4.0552,4.0779,4.0907,4.0907,4.0907,4.0907,4.0907,4.0906,4.0937,0.7024,0.8514,0.9863,1.0846,1.1418,1.1763,1.1729,1.2013,1.2341,1.258,1.2645,1.28,1.3368,1.3624,1.3883,1.4411,1.4638,1.4797,1.4797,1.4963,1.5049,1.4814,1.554,1.6127,1.6254,1.6953,1.7533,1.7894,1.8097,1.8144,1.8097,1.8157,1.8342,1.8656,1.8641,1.8906,1.9459,2.0408,2.1511,2.2583,2.3199,2.3379,2.3111,2.3111,2.2398,2.1132,2.1374,2.1439,2.1423,2.1636,2.2002,2.2569,2.354,2.4696,2.6065,2.733,2.8783,3.0243,3.0929,3.1628,3.2344,3.2998,3.3355,3.3665,3.4169,3.4577,3.4833,3.5085,3.5681,3.631,3.6418,3.6576,3.6734,3.6945,3.6999,3.6922,3.6749,3.649,3.6547,3.7416,3.7432,3.7684,3.8758,3.8682,3.8615,3.9045,4.0661,4.237,4.3819,4.4005,4.3448,4.1999,4.0197,3.9256,3.9577,3.9602,3.9602,3.9602,3.9602,3.9679,3.9892,4.0138,4.0345,4.0491,4.0768,4.0907,4.0907,4.0907,4.0907,4.0907,4.0907,4.0906,0.7475,0.8732,0.9573,1.0651,1.1456,1.1849,1.1551,1.2052,1.2563,1.2319,1.2665,1.3146,1.3719,1.4082,1.4487,1.5002,1.5245,1.541,1.541,1.541,1.5293,1.498,1.5558,1.6126,1.6373,1.7097,1.7772,1.8387,1.8557,1.8606,1.8606,1.8606,1.8794,1.9208,1.8965,1.9143,1.985,2.0872,2.2257,2.3891,2.4067,2.3877,2.3446,2.3446,2.2897,2.193,2.1642,2.1468,2.1394,2.1296,2.1506,2.2024,2.3288,2.4713,2.6282,2.7643,2.9485,3.1213,3.1435,3.1927,3.2437,3.2895,3.2986,3.3093,3.3614,3.407,3.4464,3.4807,3.5721,3.6666,3.6975,3.7589,3.8099,3.7888,3.8167,3.8384,3.8129,3.7439,3.7128,3.8039,3.7732,3.776,3.9205,3.8706,3.8456,3.9566,4.2174,4.4005,4.4005,4.4005,4.4005,4.4005,4.1813,4.0095,3.9532,3.9552,3.9602,3.9602,3.9602,3.9674,3.9823,4.0,4.0193,4.0389,4.0711,4.0888,4.0907,4.0907,4.0907,4.0907,4.0907,4.0907,0.7081,0.7712,0.8297,1.0383,1.1223,1.1618,1.1994,1.2194,1.2414,1.2768,1.2964,1.3228,1.3629,1.3867,1.4289,1.5216,1.541,1.541,1.541,1.541,1.54,1.5381,1.6073,1.6789,1.7445,1.8216,1.8984,1.9672,1.971,1.9723,1.9723,1.9723,1.9736,1.9761,1.9851,1.9927,1.999,2.1442,2.2713,2.3891,2.4067,2.4099,2.4073,2.4073,2.3733,2.3067,2.1982,2.1498,2.1472,2.0935,2.0983,2.158,2.2889,2.4501,2.6335,2.8432,3.0042,3.1289,3.2066,3.2367,3.2382,3.2437,3.2437,3.2547,3.3093,3.3235,3.355,3.4739,3.5529,3.6255,3.7084,3.7753,3.8242,3.8498,3.8577,3.8577,3.856,3.8508,3.8491,3.857,3.8173,3.8131,3.8911,3.76,3.7565,4.0945,4.2923,4.4005,4.4005,4.4005,4.4005,4.4005,4.3856,4.2482,3.9389,3.9432,3.9602,3.9602,3.9602,3.9602,3.9602,3.9916,4.0101,4.012,4.0574,4.0846,4.0907,4.0907,4.0907,4.0907,4.0907,4.0907,0.6616,0.7553,0.8368,0.9015,1.0132,1.1068,1.0926,1.1595,1.237,1.261,1.2748,1.2982,1.3351,1.3974,1.4492,1.4848,1.5177,1.541,1.541,1.541,1.5478,1.5604,1.5904,1.656,1.7688,1.8135,1.8578,1.9239,1.9604,1.9643,1.9291,1.9303,1.95,1.9926,1.9708,2.0039,2.094,2.1419,2.2252,2.3436,2.3871,2.4112,2.4112,2.4112,2.3995,2.3746,2.2949,2.2191,2.1498,2.1289,2.109,2.1076,2.2255,2.4198,2.6549,2.806,3.0051,3.202,3.2305,3.2398,3.2398,3.2398,3.2398,3.2453,3.2641,3.3246,3.3963,3.4393,3.5663,3.7075,3.787,3.8655,3.9389,3.995,4.006,4.006,4.006,3.9284,3.8732,3.9198,3.8784,3.8787,4.0155,4.0044,4.0132,4.1385,4.2092,4.2829,4.386,4.4005,4.4097,4.4296,4.4325,4.3839,4.266,4.0727,3.9902,4.0572,3.9971,3.9602,3.9602,3.9826,4.002,4.0101,4.0386,4.0648,4.0846,4.0878,4.0907,4.0907,4.0907,4.0907,0.606,0.6975,0.7975,0.8438,0.927,1.0134,1.084,1.1424,1.1986,1.2472,1.2676,1.2871,1.3142,1.3772,1.4334,1.4625,1.4963,1.5254,1.5391,1.5478,1.5546,1.5672,1.5846,1.64,1.7479,1.7699,1.8038,1.8655,1.9239,1.9291,1.8709,1.8922,1.9251,1.9617,1.9488,2.0022,2.1237,2.1289,2.1957,2.3223,2.3825,2.4112,2.4112,2.4112,2.4112,2.4099,2.3694,2.2871,2.1799,2.1642,2.1341,2.1193,2.2561,2.4657,2.7031,2.8437,3.0438,3.2398,3.2398,3.2398,3.2398,3.2398,3.2398,3.2398,3.2398,3.3122,3.3959,3.4265,3.5721,3.729,3.8167,3.9122,3.9969,4.05,4.0758,4.0888,4.0888,4.0077,3.9508,4.0008,3.9744,3.9801,4.0989,4.1408,4.1604,4.1604,4.1604,4.1984,4.3069,4.3177,4.3508,4.4248,4.444,4.4515,4.4515,4.2168,4.0835,4.1173,4.044,3.9877,3.962,3.9754,3.9895,4.004,4.0251,4.0473,4.0681,4.0796,4.0878,4.0907,4.0907,4.0907,0.0,0.0,0.0,0.8802,0.8684,0.8853,1.1715,1.1612,1.1239,1.2416,1.2793,1.2852,1.2881,1.3213,1.376,1.4609,1.4766,1.4932,1.5332,1.5594,1.5672,1.573,1.5951,1.6332,1.6955,1.7101,1.7424,1.8038,1.8655,1.8709,1.8093,1.8804,1.9069,1.8804,1.9291,1.997,2.0693,2.1222,2.2056,2.3197,2.3799,2.4086,2.4086,2.4086,2.4099,2.4099,2.4112,2.3472,2.2387,2.1957,2.1746,2.1956,2.3981,2.5939,2.7799,2.9725,3.1261,3.2398,3.2398,3.2398,3.2398,3.2398,3.2398,3.2398,3.2398,3.2875,3.364,3.4434,3.5624,3.6835,3.7866,3.9049,4.0003,4.0003,4.0434,4.0871,4.0888,4.0888,4.0888,4.0888,4.1029,4.1105,4.1209,4.1408,4.1604,4.1604,4.1604,4.1604,4.1604,4.1604,4.2198,4.3809,4.4248,4.4458,4.4487,4.3492,4.2431,4.1323,4.0985,4.0478,3.9714,3.9741,3.9838,3.9927,4.0196,4.0342,4.0406,4.0681,4.0826,4.0907,4.0907,4.0907,0.595,0.0,0.0,0.0,0.0,0.0,0.9696,1.0135,1.0631,1.1704,1.1924,1.2165,1.2764,1.2978,1.3282,1.3883,1.4439,1.488,1.5054,1.5474,1.5788,1.5951,1.6056,1.6389,1.7101,1.7202,1.7257,1.7424,1.8429,1.8614,1.7733,1.8815,1.9081,1.817,1.9174,1.9834,2.0037,2.102,2.1878,2.2648,2.3197,2.3472,2.3472,2.3472,2.3529,2.3681,2.4076,2.3896,2.3334,2.312,2.2776,2.2618,2.4086,2.5629,2.7145,2.9045,3.0586,3.1823,3.2231,3.2398,3.2398,3.2398,3.2398,3.2398,3.2398,3.3229,3.4272,3.4574,3.5783,3.7077,3.8035,3.8849,3.9506,3.9902,4.012,4.0385,4.0823,4.0888,4.0888,4.0888,4.0918,4.1012,4.1163,4.1408,4.1604,4.1604,4.1604,4.1604,4.1604,4.1604,4.1984,4.3087,4.3303,4.3477,4.373,4.2983,4.2462,4.2445,4.1948,4.1586,4.136,4.145,4.1269,4.0779,4.0933,4.0807,4.0406,4.0559,4.07,4.0834,4.0878,4.0907,0.6496,0.7027,0.7654,0.7721,0.0,0.0,0.95,0.9724,1.0059,1.1348,1.1709,1.2037,1.2594,1.285,1.3106,1.3442,1.4017,1.4532,1.4775,1.5069,1.5396,1.5563,1.5782,1.6165,1.6863,1.6881,1.7,1.7279,1.8201,1.859,1.8375,1.8697,1.859,1.7995,1.8963,1.9448,1.9448,2.0623,2.1572,2.2387,2.2782,2.3044,2.3267,2.3392,2.3461,2.3612,2.4182,2.4292,2.4169,2.4056,2.3752,2.3379,2.4627,2.5955,2.737,2.8893,3.0131,3.1175,3.1823,3.1992,3.2048,3.2342,3.2398,3.2398,3.2398,3.3367,3.4534,3.4752,3.5982,3.7345,3.7828,3.8367,3.8903,3.9209,3.9473,3.9817,4.0385,4.0549,4.0597,4.0823,4.0935,4.1012,4.1163,4.1408,4.1604,4.1604,4.1604,4.1604,4.1604,4.1604,4.1805,4.2292,4.2691,4.2995,4.3232,4.3023,4.2885,4.2906,4.2585,4.2267,4.201,4.207,4.1976,4.1632,4.1721,4.1452,4.0858,4.0627,4.0621,4.08,4.0837,4.0878,0.7177,0.7591,0.8281,0.8747,0.8191,0.0,1.0079,0.9839,0.9583,1.1035,1.1592,1.1959,1.2213,1.2626,1.2914,1.3067,1.3469,1.3952,1.4383,1.4641,1.4829,1.4829,1.5306,1.5836,1.646,1.6433,1.6708,1.7468,1.7929,1.8566,1.9565,1.8536,1.8007,1.8201,1.8762,1.9093,1.9093,2.0216,2.1335,2.2323,2.2457,2.2801,2.3342,2.3522,2.363,2.3779,2.4366,2.4677,2.4835,2.4835,2.4538,2.4175,2.5476,2.6662,2.7816,2.9069,2.9889,3.051,3.1233,3.148,3.1595,3.2216,3.2398,3.2398,3.2398,3.3378,3.45,3.4929,3.6205,3.748,3.748,3.7828,3.8238,3.8294,3.8684,3.9242,3.98,3.9902,4.012,4.071,4.0965,4.1152,4.1226,4.1408,4.1604,4.1604,4.1604,4.1604,4.1604,4.1604,4.1648,4.1719,4.2454,4.2882,4.2882,4.3338,4.3416,4.2965,4.2988,4.2799,4.2265,4.2254,4.2372,4.2545,4.2473,4.2167,4.1628,4.0818,4.0515,4.0764,4.0788,4.0826,0.8385,0.8843,0.9082,0.862,0.9106,0.0,0.8532,0.8684,0.9155,0.9515,0.9669,1.0054,1.1203,1.1514,1.1727,1.2233,1.2726,1.3307,1.4073,1.4542,1.4829,1.4945,1.507,1.5479,1.6428,1.6504,1.6776,1.7446,1.7346,1.7929,1.95,1.8632,1.8321,1.8827,1.9344,1.9656,1.9656,2.0888,2.1616,2.1825,2.1877,2.2247,2.2937,2.2856,2.3231,2.3876,2.448,2.4835,2.4948,2.4948,2.4881,2.4894,2.6172,2.6775,2.7188,2.8884,2.9566,2.9875,3.1058,3.148,3.1595,3.2216,3.2453,3.2578,3.2578,3.3222,3.4291,3.5571,3.6715,3.748,3.748,3.7583,3.7786,3.8181,3.839,3.8629,3.9242,3.9348,3.9558,4.0203,4.0724,4.1169,4.1307,4.1471,4.1604,4.1604,4.1604,4.1604,4.1604,4.1604,4.1892,4.2573,4.2806,4.2882,4.2882,4.2995,4.3087,4.3222,4.3632,4.3823,4.3703,4.3896,4.3823,4.3355,4.2933,4.2658,4.2545,4.1106,4.0422,4.0485,4.0707,4.0812,0.8903,0.9497,1.0022,0.9492,0.9805,0.0,0.0,0.9062,0.9284,1.0046,0.9836,0.9866,1.1085,1.1307,1.15,1.2097,1.2549,1.3001,1.3453,1.3916,1.4204,1.4304,1.4511,1.5035,1.6115,1.6207,1.6613,1.7596,1.7092,1.7614,1.9579,1.8429,1.8224,1.9344,1.9396,1.9552,1.9798,2.072,2.1471,2.2036,2.1799,2.2234,2.3257,2.3244,2.35,2.4041,2.4635,2.4948,2.5005,2.5005,2.5005,2.5127,2.6348,2.6823,2.6959,2.8491,2.9044,2.9233,3.0569,3.0999,3.1175,3.2104,3.2523,3.2594,3.2594,3.3488,3.4757,3.5922,3.6825,3.748,3.748,3.748,3.7583,3.7828,3.7886,3.8042,3.8629,3.8739,3.9011,3.9732,4.0203,4.0628,4.1307,4.1533,4.1604,4.1604,4.1604,4.1604,4.1604,4.1604,4.1762,4.2192,4.2652,4.2882,4.2882,4.2882,4.3032,4.3267,4.356,4.3758,4.3905,4.417,4.4279,4.427,4.3618,4.3325,4.3405,4.2202,4.1623,4.1635,4.1378,4.1299,0.9394,1.0134,1.0952,1.043,1.0508,1.0626,0.0,0.0,0.0,1.0722,1.0348,1.0096,1.1001,1.1132,1.1314,1.1922,1.2404,1.2698,1.2698,1.3062,1.3372,1.3465,1.389,1.4633,1.5808,1.6003,1.6596,1.7939,1.7014,1.7301,1.9495,1.8235,1.8174,1.9747,1.9396,1.9396,1.9965,2.0498,2.1287,2.2298,2.193,2.2432,2.3794,2.3849,2.4026,2.4313,2.4801,2.5005,2.5005,2.5005,2.5005,2.5127,2.6348,2.6823,2.6972,2.8153,2.8587,2.8766,2.9917,3.0389,3.0689,3.1864,3.2453,3.2703,3.2757,3.3888,3.5351,3.5902,3.6774,3.748,3.748,3.748,3.748,3.748,3.7524,3.7685,3.8084,3.8181,3.8446,3.9315,3.9525,3.9969,4.1088,4.1471,4.1604,4.1604,4.1604,4.1604,4.1604,4.1604,4.1675,4.1849,4.2494,4.2882,4.2882,4.2882,4.2995,4.3196,4.3267,4.3408,4.3679,4.403,4.443,4.4846,4.4307,4.4056,4.4162,4.3555,4.312,4.2868,4.2232,4.2021,1.0579,1.1299,1.1787,1.0686,1.1269,1.1687,0.9832,0.0,1.0288,0.9711,0.0,0.9623,1.0216,0.0,0.0,1.0791,1.1513,1.2009,1.2009,1.2212,1.2519,1.2951,1.3414,1.4318,1.5927,1.6291,1.7013,1.8499,1.692,1.6785,1.8883,1.8394,1.8573,1.9786,1.9747,2.0016,2.0599,2.0775,2.1242,2.1954,2.1887,2.2643,2.4068,2.3959,2.4242,2.491,2.4978,2.5005,2.5005,2.5005,2.5005,2.5127,2.6348,2.6823,2.6972,2.8153,2.8587,2.8716,2.9407,3.0011,3.0629,3.1507,3.2342,3.3043,3.3203,3.4218,3.541,3.5489,3.6453,3.748,3.748,3.748,3.748,3.748,3.7685,3.7786,3.7626,3.7786,3.8141,3.8854,3.8945,3.9318,4.0642,4.1272,4.1604,4.1604,4.1604,4.1604,4.1604,4.1604,4.1892,4.2691,4.2844,4.2882,4.2882,4.2882,4.292,4.2957,4.316,4.3408,4.3679,4.4298,4.4667,4.4719,4.4751,4.4787,4.4811,4.4832,4.4143,4.2794,4.2774,4.2768,1.0813,1.155,1.2112,1.1358,1.1661,1.1837,1.0742,1.0396,1.0372,1.0644,0.0,0.0,0.0,0.0,0.0,0.0,1.0968,1.1266,1.1408,1.1579,1.2055,1.3053,1.2936,1.3531,1.5453,1.5792,1.6365,1.7325,1.638,1.6397,1.7945,1.8056,1.8666,1.9876,1.9901,2.0207,2.0848,2.1292,2.1807,2.2445,2.2791,2.3486,2.4527,2.4471,2.4606,2.5005,2.5005,2.5005,2.5005,2.5005,2.5005,2.5127,2.6348,2.6823,2.6972,2.8153,2.8587,2.8716,2.9282,2.995,3.0689,3.1992,3.2703,3.3096,3.3256,3.4273,3.5394,3.5394,3.639,3.748,3.748,3.748,3.748,3.748,3.7669,3.7844,3.7583,3.7876,3.8246,3.8567,3.8701,3.9119,4.0153,4.1053,4.1604,4.1604,4.1604,4.1604,4.1604,4.1604,4.1917,4.2806,4.2882,4.2882,4.2882,4.2882,4.2882,4.2882,4.316,4.3408,4.3679,4.4121,4.4458,4.4712,4.4764,4.4821,4.4895,4.4943,4.4649,4.4015,4.3692,4.3579,1.1019,1.1853,1.2477,1.1929,1.1867,1.1845,1.1389,1.0887,1.072,1.1437,1.0888,0.0,0.0,0.0,1.0578,1.0688,0.0,1.0979,1.0918,1.0991,1.1561,1.2901,1.2918,1.3437,1.4976,1.5129,1.55,1.6402,1.5842,1.6008,1.7267,1.8018,1.8784,1.975,2.0067,2.051,2.0997,2.1619,2.2205,2.2871,2.3472,2.4158,2.4835,2.4835,2.4892,2.5005,2.5005,2.5005,2.5005,2.5005,2.5005,2.5127,2.6348,2.6823,2.6972,2.8153,2.8587,2.8716,2.9345,3.0194,3.1145,3.2523,3.3058,3.3181,3.3477,3.4431,3.5426,3.5616,3.6548,3.748,3.748,3.748,3.748,3.748,3.7801,3.796,3.7685,3.8091,3.8504,3.8504,3.8655,3.9007,3.9679,4.0611,4.1363,4.156,4.1604,4.1604,4.1604,4.1736,4.2103,4.2806,4.2882,4.2882,4.2882,4.2882,4.2882,4.2882,4.316,4.3373,4.3579,4.3905,4.4258,4.4532,4.4605,4.4685,4.477,4.4821,4.4865,4.4846,4.4456,4.4341,1.1566,1.2355,1.2987,1.2253,1.2083,1.19,1.1108,1.125,1.158,1.1601,1.1934,1.2224,1.2256,1.2066,1.1675,1.084,1.124,0.0,0.0,1.0432,1.0845,1.2011,1.3538,1.4555,1.4644,1.4325,1.4764,1.627,1.5504,1.5605,1.7127,1.8371,1.9092,1.913,2.0335,2.0997,2.0997,2.1619,2.2257,2.299,2.3608,2.4269,2.5005,2.5005,2.5005,2.5005,2.5005,2.5005,2.5005,2.5005,2.5005,2.5127,2.6348,2.6823,2.6972,2.8153,2.8587,2.8716,2.9498,3.0778,3.2155,3.285,3.3203,3.3419,3.4067,3.4794,3.5537,3.62,3.6911,3.748,3.748,3.748,3.748,3.748,3.7934,3.8278,3.796,3.8343,3.8805,3.8805,3.8766,3.8821,3.9272,3.9935,4.0707,4.1498,4.1604,4.1604,4.1604,4.1995,4.2432,4.2862,4.2882,4.2882,4.2882,4.2882,4.2882,4.2882,4.316,4.3303,4.3303,4.3841,4.4109,4.4121,4.4364,4.4515,4.4515,4.4632,4.4712,4.4712,4.4948,4.5,1.1569,1.2206,1.2657,1.2139,1.2132,1.2057,1.1499,1.1508,1.1612,1.1612,1.1986,1.2307,1.2307,1.2212,1.2031,1.1676,1.1641,1.1431,0.0,1.0845,1.113,1.1877,1.3116,1.3938,1.3938,1.4246,1.467,1.5311,1.5325,1.5769,1.6794,1.8287,1.9192,1.9371,2.0518,2.118,2.1277,2.2261,2.2868,2.3122,2.4177,2.4759,2.5005,2.5005,2.5005,2.5005,2.5005,2.5005,2.5005,2.5005,2.5236,2.567,2.6497,2.7054,2.7501,2.8302,2.8587,2.8766,2.9964,3.0955,3.1834,3.2796,3.3203,3.3435,3.4099,3.481,3.5537,3.6232,3.6927,3.748,3.748,3.748,3.7524,3.7727,3.8091,3.8391,3.8262,3.8711,3.9094,3.886,3.8985,3.9255,3.9679,3.9969,4.0449,4.1453,4.1604,4.1736,4.2019,4.2205,4.2432,4.2862,4.2882,4.2882,4.2882,4.2882,4.2882,4.2882,4.316,4.3303,4.3303,4.3646,4.3905,4.4109,4.4199,4.4306,4.4515,4.4542,4.4551,4.4578,4.4745,4.4846,1.1669,1.2367,1.2871,1.2644,1.2807,1.2824,1.2192,1.2182,1.2297,1.2173,1.2507,1.284,1.2884,1.284,1.2667,1.2306,1.1943,1.1487,0.0,1.0949,1.1341,1.1884,1.2779,1.3506,1.3908,1.3793,1.4132,1.5273,1.5114,1.5505,1.6879,1.8422,1.9297,1.9467,2.0655,2.1421,2.1735,2.2674,2.3297,2.3513,2.4544,2.5005,2.5005,2.5005,2.5005,2.5005,2.5005,2.5005,2.5005,2.5005,2.5358,2.5955,2.6579,2.7189,2.7773,2.837,2.883,2.9373,3.054,3.1304,3.1962,3.2904,3.3203,3.3467,3.4399,3.5015,3.5584,3.6532,3.7133,3.748,3.748,3.748,3.7583,3.7828,3.8148,3.8448,3.8504,3.8931,3.9218,3.904,3.9148,3.9415,3.9679,3.9885,4.0137,4.0676,4.1272,4.1675,4.1917,4.2145,4.245,4.2747,4.2862,4.2882,4.2882,4.2882,4.2882,4.2882,4.305,4.316,4.316,4.3408,4.3646,4.3791,4.3999,4.417,4.4383,4.444,4.4515,4.4515,4.4578,4.4685]},{"header":{"parameterUnit":"m.s-1","parameterCategory":1,"la1":30.6,"la2":29.2853,"lo1":-89.7004,"lo2":-87.6739,"dy":0.0162,"dx":0.0183,"nx":112,"ny":82,"refTime":"2026-02-24T00:00:00:Z","depth":0,"parameterNumber":3,"parameterNumberName":"V-component_of_WINDS"},"data":[0.0,0.0,0.0,0.0,0.0,0.0,0.0,0.0,0.0,0.0,0.0,0.0,0.0,0.0,0.0,0.0,0.0,0.0,0.0,0.0,0.0,0.0,0.0,0.0,0.0,0.0,0.0,0.0,0.0,0.0,0.0,0.0,0.0,0.0,0.0,0.0,0.0,0.0,0.0,0.0,0.0,0.0,0.0,0.0,0.0,0.0,0.0,0.0,0.0,0.0,0.0,0.0,0.0,0.0,0.0,0.0,0.0,0.0,0.0,0.0,0.0,0.0,0.0,0.0,0.0,0.0,0.0,0.0,0.0,0.0,0.0,0.0,0.0,0.0,0.0,0.0,0.0,0.0,0.0,0.0,0.0,0.0,0.0,0.0,0.0,0.0,0.0,0.0,0.0,0.0,0.376,0.416,0.4871,0.5297,0.5297,0.5297,0.5147,0.4807,0.0,0.0,0.0,0.0,0.0,0.0,0.0,0.0,0.0,0.0,0.0,0.0,0.0,0.0,0.0,0.0,0.0,0.0,0.0,0.0,0.0,0.0,0.0,0.0,0.0,0.0,0.0,0.0,0.0,0.0,0.0,0.0,0.0,0.0,0.0,0.0,0.0,0.0,0.0,0.0,0.0,0.0,0.0,0.0,0.0,0.0,0.0,0.0,0.0,0.0,0.0,0.0,0.0,0.0,0.0,0.0,0.0,0.0,0.0,0.0,0.0,0.0,0.0,0.0,0.0,0.0,0.0,0.0,0.0,0.0,0.0,0.0,0.0,0.0,0.0,0.0,0.0,0.0,0.0,0.0,0.0,0.0,0.0,0.0,0.0,0.0,0.0,0.0,0.0,0.0,0.0,0.0,0.0,0.0,0.0,0.0,0.0,0.0,0.0,0.0,0.0,0.0,0.0,0.0,0.3988,0.4986,0.5198,0.5297,0.5297,0.5297,0.5147,0.4807,0.0,0.0,0.0,0.0,0.0,0.0,0.0,0.0,0.0,0.0,0.0,0.0,0.0,0.0,0.0,0.0,0.0,0.0,0.0,0.0,0.0,0.0,0.0,0.0,0.0,0.0,0.0,0.0,0.0,0.0,0.0,0.0,0.0,0.0,0.0,0.0,0.0,0.0,0.0,0.0,0.0,0.0,0.0,0.0,0.0,0.0,0.0,0.0,0.0,0.0,0.0,0.0,0.0,0.0,0.0,0.0,0.0,0.0,0.0,0.0,0.0,0.0,0.0,0.0,0.0,0.0,0.0,0.0,0.0,0.0,0.0,0.0,0.0,0.0,0.0,0.0,0.0,0.0,0.0,0.0,0.0,0.0,0.0,0.0,0.0,0.0,0.0,0.0,0.0,0.0,0.0,0.0,0.0,0.0,0.0,0.0,0.0,0.0,0.0,0.0,0.0,0.0,0.0,0.3509,0.4193,0.5171,0.5297,0.5297,0.5297,0.5297,0.5099,0.4679,0.4615,0.0,0.0,0.0,0.0,0.0,0.0,0.0,0.0,0.0,0.0,0.0,0.0,0.0,0.0,0.0,0.0,0.0,0.0,0.0,0.0,0.0,0.0,0.0,0.0,0.0,0.0,0.0,0.0,0.0,0.0,0.0,0.0,0.0,0.0,0.0,0.0,0.0,0.0,0.0,0.0,0.0,0.0,0.0,0.0,0.0,0.0,0.0,0.0,0.0,0.0,0.0,0.0,0.0,0.0,0.0,0.0,0.0,0.0,0.0,0.0,0.0,0.0,0.0,0.0,0.0,0.0,0.0,0.0,0.0,0.0,0.0,0.0,0.0,0.0,0.0,0.0,0.0,0.0,0.0,0.0,0.0,0.0,0.0,0.0,0.0,0.0,0.0,0.0,0.0,0.0,0.0,0.0,0.0,0.0,0.0,0.0,0.0,0.0,0.0,0.0,0.0,0.0,0.3952,0.43,0.5194,0.5187,0.5187,0.5297,0.5221,0.5005,0.4542,0.4323,0.0,0.0,0.0,0.0,0.0,0.0,0.0,0.0,0.0,0.0,0.0,0.0,0.0,0.0,0.0,0.0,0.0,0.0,0.0,0.0,0.0,0.0,0.0,0.0,0.0,0.0,0.0,0.0,0.0,0.0,0.0,0.0,0.0,0.0,0.0,0.0,0.0,0.0,0.0,0.0,0.0,0.0,0.0,0.0,0.0,0.0,0.0,0.0,0.0,0.0,0.0,0.0,0.0,0.0,0.0,0.0,0.0,0.0,0.0,0.0,0.0,0.0,0.0,0.0,0.0,0.0,0.0,0.0,0.0,0.0,0.0,0.0,0.0,0.0,0.0,0.0,0.0,0.0,0.0,0.0,0.0,0.0,0.0,0.0,0.0,0.0,0.0,0.0,0.0,0.0,0.0,0.0,0.0,0.0,0.0,0.0,0.0,0.0,0.0,0.0,0.0,0.0,0.3762,0.4277,0.5222,0.4967,0.4912,0.5246,0.5039,0.473,0.4525,0.3978,0.0,0.0,0.0,0.0,0.0,0.0,0.0,0.0,0.0,0.0,0.0,0.0,0.0,0.0,0.0,0.0,0.0,0.0,0.0,0.0,0.0,0.0,0.0,0.0,0.0,0.0,0.0,0.0,0.0,0.0,0.0,0.0,0.0,0.0,0.0,0.0,0.0,0.0,0.0,0.0,0.0,0.0,0.0,0.0,0.0,0.0,0.0,0.0,0.0,0.0,0.0,0.0,0.0,0.0,0.0,0.0,0.0,0.0,0.0,0.0,0.0,0.0,0.0,0.0,0.0,0.0,0.0,0.0,0.0,0.0,0.0,0.0,0.0,0.0,0.0,0.0,0.0,0.0,0.0,0.0,0.0,0.0,0.0,0.0,0.0,0.0,0.0,0.0,0.0,0.0,0.0,0.0,0.0,0.0,0.0,0.0,0.0,0.0,0.0,0.0,0.0,0.0,0.3976,0.4606,0.4882,0.5022,0.5132,0.5297,0.5173,0.4897,0.4401,0.0,0.0,0.0,0.0,0.0,0.0,0.0,0.0,0.0,0.0,0.0,0.0,0.0,0.0,0.0,0.0,0.0,0.0,0.0,0.0,0.0,0.0,0.0,0.0,0.0,0.0,0.0,0.0,0.0,0.0,0.0,0.0,0.0,0.0,0.0,0.0,0.0,0.0,0.0,0.0,0.0,0.0,0.0,0.0,0.0,0.0,0.0,0.0,0.0,0.0,0.0,0.0,0.0,0.0,0.0,0.0,0.0,0.0,0.0,0.0,0.0,0.0,0.0,0.0,0.0,0.0,0.0,0.0,0.0,0.0,0.0,0.0,0.0,0.0,0.0,0.0,0.0,0.0,0.0,0.0,0.0,0.0,0.0,0.0,0.0,0.0,0.0,0.0,0.0,0.0,0.0,0.0,0.0,0.0,0.0,0.0,0.0,0.0,0.0,0.0,0.0,0.0,0.3029,0.391,0.4602,0.4666,0.4967,0.5187,0.5297,0.5144,0.4811,0.4353,0.0,0.0,0.0,0.0,0.0,0.0,0.0,0.0,0.0,0.0,0.0,0.0,0.0,0.0,0.0,0.0,0.0,0.0,0.0,0.0,0.0,0.0,0.0,0.0,0.0,0.0,0.0,0.0,0.0,0.0,0.0,0.0,0.0,0.0,0.0,0.0,0.0,0.0,0.0,0.0,0.0,0.0,0.0,0.0,0.0,0.0,0.0,0.0,0.0,0.0,0.0,0.0,0.0,0.0,0.0,0.0,0.0,0.0,0.0,0.0,0.0,0.0,0.0,0.0,0.0,0.0,0.0,0.0,0.0,0.0,0.0,0.0,0.0,0.0,0.0,0.0,0.0,0.0,0.0,0.0,0.0,0.0,0.0,0.0,0.0,0.0,0.0,0.0,0.0,0.0,0.0,0.0,0.0,0.0,0.0,0.0,0.0,0.0,0.0,0.0,0.0,0.0,0.2747,0.3487,0.4187,0.4632,0.4691,0.4857,0.5246,0.4811,0.4429,0.0,0.0,0.0,0.0,0.0,0.0,0.0,0.0,0.0,0.0,0.0,0.0,0.0,0.0,0.0,0.0,0.0,0.0,0.0,0.0,0.0,0.0,0.0,0.0,0.0,0.0,0.0,0.0,0.0,0.0,0.0,0.0,0.0,0.0,0.0,0.0,0.0,0.0,0.0,0.0,0.0,0.0,0.0,0.0,0.0,0.0,0.0,0.0,0.0,0.0,0.0,0.0,0.0,0.0,0.0,0.0,0.0,0.0,0.0,0.0,0.0,0.0,0.0,0.0,0.0,0.0,0.0,0.0,0.0,0.0,0.0,0.0,0.0,0.0,0.0,0.0,0.0,0.0,0.0,0.0,0.0,0.0,0.0,0.0,0.0,0.0,0.0,0.0,0.0,0.0,0.0,0.0,0.0,0.0,0.0,0.0,0.0,0.0,0.0,0.0,0.0,0.0,0.0,0.2394,0.364,0.4411,0.4245,0.4746,0.5187,0.5297,0.5088,0.4739,0.4344,0.0,0.0,0.0,0.0,0.0,0.0,0.0,0.0,0.0,0.0,0.0,0.0,0.0,0.0,0.0,0.0,0.0,0.0,0.0,0.0,0.0,0.0,0.0,0.0,0.0,0.0,0.0,0.0,0.0,0.0,0.0,0.0,0.0,0.0,0.0,0.0,0.0,0.0,0.0,0.0,0.0,0.0,0.0,0.0,0.0,0.0,0.0,0.0,0.0,0.0,0.0,0.0,0.0,0.0,0.0,0.0,0.0,0.0,0.0,0.0,0.0,0.0,0.0,0.0,0.0,0.0,0.0,0.0,0.0,0.0,0.0,0.0,0.0,0.0,0.0,0.0,0.0,0.0,0.0,0.0,0.0,0.0,0.0,0.0,0.0,0.0,0.0,0.0,0.0,0.0,0.0,0.0,0.0,0.0,0.0,0.0,0.0,0.0,0.0,0.0,0.0,0.0,0.2438,0.3589,0.4356,0.4301,0.4908,0.5297,0.5297,0.5186,0.4849,0.4353,0.0,0.0,0.0,0.0,0.0,0.0,0.0,0.0,0.0,0.0,0.0,0.0,0.0,0.0,0.0,0.0,0.0,0.0,0.0,0.0,0.0,0.0,0.0,0.0,0.0,0.0,0.0,0.0,0.0,0.0,0.0,0.0,0.0,0.0,0.0,0.0,0.0,0.0,0.0,0.0,0.0,0.0,0.0,0.0,0.0,0.0,0.0,0.0,0.0,0.0,0.0,0.0,0.0,0.0,0.0,0.0,0.0,0.0,0.0,0.0,0.0,0.0,0.0,0.0,0.0,0.0,0.0,0.0,0.0,0.0,0.0,0.0,0.0,0.0,0.0,0.0,0.0,0.0,0.0,0.0,0.0,0.0,0.0,0.0,0.0,0.0,0.0,0.0,0.0,0.0,0.0,0.0,0.0,0.0,0.0,0.0,0.0,0.0,0.0,0.0,0.0,0.0,0.2703,0.3487,0.4187,0.4636,0.5077,0.5297,0.5297,0.5186,0.4857,0.4333,0.0,0.0,0.0,0.0,0.0,0.0,0.0,0.0,0.0,0.0,0.0,0.0,0.0,0.0,0.0,0.0,0.0,0.0,0.0,0.0,0.0,0.0,0.0,0.0,0.0,0.0,0.0,0.0,0.0,0.0,0.0,0.0,0.0,0.0,0.0,0.0,0.0,0.0,0.0,0.0,0.0,0.0,0.0,0.0,0.0,0.0,0.0,0.0,0.0,0.0,0.0,0.0,0.0,0.0,0.0,0.0,0.0,0.0,0.0,0.0,0.5356,0.4061,0.0,0.0,0.0,0.0,0.0,0.0,0.0,0.0,0.0,0.0,0.0,0.0,0.0,0.0,0.0,0.0,0.0,0.0,0.0,0.0,0.0,0.0,0.0,0.0,0.0,0.0,0.0,0.0,0.0,0.0,0.0,0.0,0.0,0.0,0.0,0.0,0.0,0.0,0.0,0.0,0.27,0.3487,0.4187,0.4636,0.5077,0.5297,0.5297,0.5186,0.4914,0.4465,0.3943,0.0,0.0,0.0,0.0,0.0,0.0,0.0,0.0,0.0,0.0,0.0,0.0,0.0,0.0,0.0,0.0,0.0,0.0,0.0,0.0,0.0,0.0,0.0,0.0,0.0,0.0,0.0,0.0,0.0,0.0,0.0,0.0,0.0,0.0,0.0,0.0,0.0,0.0,0.0,0.0,0.0,0.0,0.0,0.0,0.0,0.0,0.0,0.0,0.0,0.0,0.0,0.0,0.0,0.0,0.0,0.0,0.0,0.0,0.0,0.6866,0.589,0.0,0.0,0.0,0.0,0.0,0.0,0.0,0.0,0.0,0.0,0.0,0.0,0.0,0.0,0.0,0.0,0.0,0.0,0.0,0.0,0.0,0.0,0.0,0.0,0.0,0.0,0.0,0.0,0.0,0.0,0.0,0.0,0.0,0.0,0.0,0.0,0.0,0.0,0.0,0.0,0.2919,0.3628,0.4245,0.4912,0.5187,0.5297,0.5297,0.5213,0.506,0.4642,0.4248,0.0,0.0,0.0,0.0,0.0,0.0,0.0,0.0,0.0,0.0,0.0,0.0,0.0,0.0,0.0,0.0,0.0,0.0,0.0,0.0,0.0,0.0,0.0,0.0,0.0,0.0,0.0,0.0,0.0,0.0,0.0,0.0,0.0,0.0,0.0,0.0,0.0,0.0,0.0,0.0,0.0,0.0,0.0,0.0,0.0,0.0,0.0,0.0,0.0,0.0,0.0,0.0,0.0,0.8361,0.8415,0.8458,0.8415,0.8699,0.918,0.8333,0.7918,0.7764,0.6175,0.0,0.0,0.0,0.0,0.0,0.0,0.0,0.0,0.0,0.0,0.0,0.0,0.0,0.0,0.0,0.0,0.0,0.0,0.0,0.0,0.0,0.0,0.0045,0.0138,0.0143,0.019,0.0299,0.0,0.0,0.0,0.0,0.0,0.0,0.0,0.0,0.0,0.0,0.0,0.3149,0.3718,0.4356,0.5187,0.5297,0.5297,0.5297,0.5297,0.5156,0.4873,0.4548,0.4203,0.0,0.0,0.0,0.0,0.0,0.0,0.0,0.0,0.0,0.0,0.0,0.0,0.0,0.0,0.0,0.0,0.0,0.0,0.0,0.0,0.0,0.0,0.0,0.0,0.0,0.0,0.0,0.0,0.0,0.0,0.0,0.0,0.3965,0.4186,0.0,0.0,0.0,0.0,0.0,0.0,0.0,0.0,0.0,0.0,0.0,0.0,0.0,0.7018,0.7353,0.8583,0.9383,0.9813,1.0508,1.0919,1.1017,1.087,1.0598,1.019,0.9969,0.0,0.8202,0.7954,0.0,0.0,0.0,0.0,0.0,0.0,0.0,0.0,0.0,0.0,0.0,0.0,0.0,0.0,0.0,0.0,0.0,0.0,0.0,0.0,0.0,0.0,0.0,0.0,0.0052,0.0052,0.0052,0.0369,0.0693,0.0733,0.0667,0.0557,0.0,0.0,0.0,0.0,0.0,0.0,0.3149,0.3718,0.4356,0.5187,0.5297,0.5297,0.5297,0.5297,0.5213,0.5056,0.4849,0.4576,0.4219,0.3837,0.0,0.0,0.0,0.0,0.0,0.0,0.0,0.0,0.0,0.0,0.0,0.0,0.0,0.0,0.0,0.0,0.0,0.0,0.0,0.0,0.0,0.0,0.0,0.0,0.0,0.0,0.0,0.0,0.0,0.3804,0.4267,0.3986,0.4207,0.4151,0.0,0.0,0.0,0.0,0.0,0.0,0.0,0.0,0.0,0.6263,0.7335,0.8119,0.8494,0.9771,1.0569,1.0876,1.1262,1.1427,1.1528,1.1377,1.1167,1.0863,1.0431,0.9811,0.9045,0.8106,0.6963,0.5729,0.0,0.0,0.0,0.0,0.3537,0.342,0.3424,0.3424,0.3248,0.2748,0.0,0.0,0.0,0.0,0.0,0.0,0.0,0.0423,0.0098,0.0,0.0,0.0,0.0,0.0,0.0,0.0157,0.0342,0.0538,0.0663,0.0673,0.0562,0.0586,0.0,0.0,0.0,0.2049,0.3061,0.3649,0.4356,0.5187,0.5297,0.5297,0.5297,0.5242,0.5152,0.5127,0.4852,0.4638,0.4492,0.4064,0.3675,0.0,0.0,0.0,0.0,0.0,0.0,0.0,0.0,0.0,0.0,0.0,0.0,0.0,0.0,0.0,0.0,0.0,0.0,0.0,0.0,0.0,0.0,0.0,0.0,0.0,0.0,0.0,0.0,0.4043,0.4562,0.4154,0.4659,0.477,0.0,0.0,0.0,0.0,0.0,0.0,0.6184,0.6665,0.6977,0.7049,0.8364,0.9255,0.9597,1.0672,1.1368,1.1628,1.1578,1.1569,1.1528,1.1418,1.1267,1.1015,1.0379,0.9865,0.9363,0.8097,0.7278,0.6608,0.5542,0.4819,0.4388,0.425,0.4016,0.3823,0.3902,0.3843,0.3698,0.3182,0.2855,0.2627,0.2033,0.0,0.0,0.0,0.0,0.0558,0.0218,0.0055,0.0,0.0,0.0,0.0,0.0,0.0,0.0055,0.035,0.0553,0.0681,0.0651,0.0686,0.0,0.067,0.1211,0.1888,0.2689,0.3333,0.4073,0.4908,0.5077,0.5187,0.5242,0.5183,0.5069,0.5069,0.4789,0.465,0.4613,0.426,0.3895,0.353,0.0,0.0,0.0,0.0,0.0,0.0,0.0,0.0,0.0,0.0,0.0,0.0,0.0,0.0,0.0,0.0,0.0,0.0,0.0,0.0,0.0,0.0,0.0,0.0,0.0,0.0,0.0,0.0,0.0,0.542,0.5652,0.0,0.0,0.0,0.0,0.5522,0.5842,0.6361,0.7282,0.7708,0.8292,0.903,0.9894,1.032,1.032,1.1209,1.1728,1.1877,1.1769,1.1678,1.1678,1.1569,1.1116,1.0403,1.0028,0.9302,0.8474,0.8646,0.8047,0.7047,0.664,0.5932,0.5023,0.4769,0.4549,0.4453,0.4222,0.4155,0.4091,0.35,0.2796,0.216,0.1828,0.1506,0.0,0.0,0.065,0.0396,0.0362,0.0184,0.0,0.0,0.0,0.0,0.0,0.0,0.0055,0.0373,0.0424,0.0519,0.0766,0.0,0.0806,0.0805,0.108,0.1482,0.201,0.2573,0.3292,0.4177,0.4519,0.4853,0.5073,0.5124,0.5069,0.4901,0.4889,0.4819,0.4617,0.4588,0.4348,0.3865,0.3541,0.0,0.0,0.0,0.0,0.0,0.0,0.0,0.0,0.0,0.0,0.0,0.0,0.0,0.0,0.0,0.0,0.0,0.0,0.0,0.0,0.0,0.0,0.0,0.0,0.0,0.0,0.0,0.0,0.618,0.6605,0.0,0.6244,0.6636,0.703,0.718,0.7903,0.8303,0.8298,0.8429,0.8639,0.8935,0.971,1.0277,1.0525,1.141,1.1877,1.1877,1.1877,1.1828,1.1828,1.1628,1.1377,1.1065,1.0182,0.9607,0.9249,0.8402,0.7717,0.7031,0.6534,0.5991,0.5504,0.5011,0.468,0.447,0.4247,0.4154,0.3981,0.3357,0.2902,0.2495,0.1905,0.1757,0.1618,0.1112,0.0888,0.066,0.0246,0.0062,0.0,0.0,0.0,0.0,0.0,0.0,0.0,0.0115,0.0447,0.0755,0.0852,0.0875,0.0836,0.0798,0.1094,0.1466,0.1921,0.2386,0.2845,0.3453,0.3619,0.3843,0.4343,0.4291,0.4405,0.4739,0.468,0.4604,0.4548,0.4403,0.4177,0.3859,0.3651,0.3108,0.0,0.0,0.0,0.0,0.0,0.0,0.0,0.0,0.0,0.0,0.0,0.0,0.0,0.0,0.0,0.0,0.0,0.0,0.0,0.0,0.0,0.0,0.0,0.0,0.0,0.6952,0.7406,0.7459,0.797,0.8171,0.7722,0.8324,0.8713,0.8602,0.9232,0.9336,0.8764,0.9001,0.9099,0.9093,1.0012,1.0677,1.088,1.166,1.2026,1.2026,1.1977,1.1927,1.1877,1.1678,1.1528,1.1469,1.0446,0.9985,0.988,0.877,0.796,0.7305,0.6539,0.6046,0.5778,0.5117,0.4736,0.4525,0.4303,0.4038,0.3753,0.3298,0.2983,0.2665,0.2025,0.1879,0.1796,0.1152,0.0973,0.0854,0.0308,0.0062,0.0,0.0,0.0,0.0,0.0,0.0,0.0,0.0,0.0408,0.0784,0.0899,0.0926,0.0884,0.0843,0.1035,0.1289,0.1568,0.1902,0.2235,0.2676,0.2843,0.3176,0.3898,0.3683,0.3796,0.4577,0.4349,0.4294,0.4519,0.4271,0.4076,0.3825,0.3539,0.302,0.2293,0.0,0.0,0.0,0.0,0.0,0.0,0.0,0.0,0.0,0.0,0.0,0.0,0.0,0.0,0.0,0.0,0.0,0.0,0.0,0.0,0.0,0.0,0.0,0.8673,0.8635,0.8982,0.9358,0.9815,1.0089,1.01,1.0226,1.0084,0.971,0.9644,0.9384,0.8679,0.9399,0.9762,0.9666,1.0939,1.156,1.1519,1.2026,1.2332,1.2302,1.2194,1.2045,1.1945,1.1796,1.1637,1.1477,1.0836,1.0459,1.026,0.9742,0.8959,0.7918,0.6713,0.6114,0.59,0.5175,0.4794,0.4657,0.4292,0.387,0.3465,0.3346,0.3049,0.2581,0.2018,0.1794,0.1695,0.111,0.0944,0.0951,0.0613,0.0247,0.0,0.0,0.0,0.0,0.0,0.0,0.0,0.0,0.0181,0.0526,0.0849,0.09,0.0899,0.0899,0.0898,0.0,0.0898,0.1122,0.1458,0.1903,0.2235,0.279,0.3685,0.3239,0.335,0.4408,0.3959,0.3904,0.4463,0.422,0.4023,0.3826,0.328,0.2864,0.2519,0.0,0.0,0.0,0.0,0.0,0.0,0.0,0.0,0.0,0.0,0.0,0.0,0.0,0.0,0.0,0.0,0.0,0.0,0.0,0.0,0.0,1.3348,1.3837,1.1678,1.1965,1.2341,1.2233,1.2579,1.2679,1.2225,1.2272,1.1899,1.0965,1.0973,1.0787,1.0079,1.0415,1.0771,1.104,1.1484,1.1891,1.2224,1.2372,1.2523,1.2712,1.2712,1.261,1.2507,1.2344,1.2037,1.1637,1.1412,1.1104,1.0725,1.0353,0.9809,0.9092,0.761,0.6548,0.5753,0.5112,0.4736,0.4525,0.4179,0.391,0.3682,0.3288,0.3035,0.284,0.2322,0.2064,0.1865,0.1396,0.1157,0.0977,0.0863,0.0432,0.0,0.0,0.0,0.0,0.0,0.0,0.0,0.0,0.0062,0.0312,0.0848,0.0945,0.0872,0.0872,0.0911,0.0898,0.0898,0.0954,0.1065,0.1177,0.1288,0.179,0.2903,0.2847,0.3236,0.4408,0.4187,0.4135,0.4301,0.4097,0.3955,0.3816,0.3573,0.3269,0.0,0.0,0.0,0.0,0.0,0.0,0.0,0.0,0.0,0.0,0.0,0.0,0.0,0.0,0.0,0.0,0.0,0.0,0.0,0.0,0.0,0.0,1.6027,1.6745,1.5424,1.5061,1.4813,1.4563,1.4675,1.4597,1.4178,1.4025,1.3543,1.2512,1.2453,1.212,1.1366,1.1616,1.1823,1.194,1.2227,1.2482,1.2715,1.2676,1.2838,1.3138,1.2983,1.287,1.2767,1.2611,1.2187,1.1696,1.1626,1.1399,1.1123,1.0997,1.0498,0.9674,0.0,0.0,0.0,0.0,0.5281,0.4842,0.4842,0.4401,0.3796,0.3627,0.3286,0.2881,0.242,0.2102,0.1837,0.1482,0.1187,0.095,0.095,0.0653,0.0298,0.006,0.0,0.0,0.0,0.0,0.0,0.0,0.0,0.0,0.0515,0.0805,0.0962,0.0962,0.0947,0.0935,0.0935,0.0935,0.0935,0.0935,0.1227,0.1741,0.2626,0.2738,0.0,0.0,0.0,0.3892,0.3944,0.3887,0.0,0.0,0.0,0.0,0.0,0.3053,0.0,0.0,0.0436,0.0128,0.0,0.0,0.0,0.0,0.0,0.0,0.0,0.0,0.0,0.0,0.0,0.0,0.0,0.0,0.0,0.0,1.8611,1.9311,1.9082,1.7743,1.676,1.659,1.6435,1.6248,1.5997,1.5596,1.5028,1.4171,1.3878,1.3358,1.2541,1.2831,0.0,0.0,0.0,1.318,1.3007,1.3017,1.3184,1.3506,1.3185,1.2969,1.287,1.2663,1.2265,1.1808,1.1738,1.1705,1.1597,1.1709,1.1149,1.0072,0.8945,0.8201,0.7656,0.6908,0.6128,0.5529,0.5931,0.0,0.0,0.4314,0.3752,0.297,0.2519,0.2127,0.179,0.1457,0.1178,0.0954,0.0898,0.0898,0.0791,0.0233,0.0059,0.006,0.0,0.0,0.0,0.0,0.0,0.0,0.0135,0.058,0.0931,0.0931,0.099,0.0988,0.0988,0.0988,0.0988,0.0988,0.1604,0.0,0.2602,0.2773,0.3201,0.4058,0.3699,0.3479,0.359,0.3584,0.3531,0.3422,0.3422,0.342,0.3413,0.2517,0.1652,0.0905,0.0234,-0.0091,0.0,0.0,0.0,0.0,0.0,0.0,0.0,0.0,0.0,0.0,0.0,0.0,0.0,0.0,0.0,1.8004,1.9219,2.0047,1.9894,1.9543,1.9037,1.8405,1.8454,1.8324,1.7706,1.6928,1.612,1.5239,1.4744,1.4261,1.3763,1.3956,1.3894,1.3515,1.3621,1.3525,1.317,1.3531,1.362,1.3516,1.3743,0.0,1.288,1.2828,1.2626,1.2364,1.2502,1.272,1.2904,1.2789,1.2138,1.1009,0.8829,0.7515,0.6833,0.6916,0.668,0.6365,0.659,0.6245,0.5714,0.5486,0.4661,0.3735,0.3572,0.285,0.0,0.1792,0.1457,0.1178,0.0954,0.0898,0.0843,0.0735,0.0578,0.0355,0.006,0.0,0.0,0.0,0.0,0.0202,0.0809,0.0524,0.032,0.0704,0.0879,0.0988,0.0988,0.0988,0.0988,0.0988,0.1112,0.1416,0.2016,0.25,0.2947,0.3548,0.3682,0.368,0.3605,0.3605,0.3605,0.355,0.3437,0.3392,0.3413,0.235,0.1561,0.1051,-0.0162,-0.0583,0.0,0.0,0.0,0.0,0.0,0.0,0.0,0.0,0.0,0.0,0.0,1.6062,1.6151,0.0,1.8997,1.9223,1.9906,2.0357,2.022,2.0115,1.9869,1.9347,1.931,1.9072,1.8525,1.7854,1.7107,1.6323,1.5852,1.5421,1.496,1.4903,1.4686,1.4362,1.4129,1.3941,1.38,1.3682,1.377,1.4013,1.4093,1.398,1.372,1.3755,1.3516,1.3132,1.3426,1.3357,1.2965,1.2601,1.2014,1.126,0.9685,0.8764,0.8247,0.8121,0.7769,0.738,0.7677,0.7175,0.6496,0.6433,0.5839,0.4901,0.4271,0.3574,0.2872,0.2115,0.1647,0.1354,0.1002,0.0932,0.092,0.092,0.0805,0.0696,0.0599,0.0247,0.0,0.0,0.0,0.0202,0.0944,0.08,0.066,0.0858,0.0978,0.1033,0.1032,0.1032,0.1032,0.1033,0.1483,0.1665,0.1514,0.2733,0.361,0.3787,0.3845,0.3815,0.3759,0.3704,0.3648,0.3648,0.347,0.335,0.3292,0.2115,0.1351,0.0998,-0.0353,-0.0868,0.0,0.0,0.0,0.0,0.0,0.0,0.0,1.4688,1.5251,1.6228,1.7393,1.8332,1.8593,1.939,2.0131,2.04,2.0527,2.0561,2.0357,2.022,2.0065,1.9833,1.9581,1.9288,1.8936,1.8447,1.7867,1.7201,1.6795,1.638,1.5957,1.5591,1.5266,1.4994,1.4582,1.4373,1.443,1.4074,1.4073,1.4524,1.4487,1.4459,1.4465,1.4496,1.4285,1.3796,1.4177,1.3837,1.2855,1.229,1.1864,1.151,1.084,1.0377,0.9984,0.9445,0.8859,0.8385,0.8753,0.8132,0.725,0.7435,0.6856,0.586,0.4837,0.4108,0.3437,0.24,0.191,0.1602,0.1173,0.103,0.1011,0.0952,0.0933,0.0928,0.1039,0.062,0.0189,0.0066,0.0067,0.02,0.0929,0.1061,0.1132,0.1078,0.1079,0.1076,0.1069,0.1067,0.1066,0.1062,0.1787,0.1903,0.1031,0.2949,0.4209,0.4224,0.4014,0.3875,0.3875,0.3697,0.3638,0.3638,0.3451,0.3317,0.3173,0.1951,0.1217,0.0967,-0.0244,-0.0845,1.4106,1.3158,1.3052,1.5076,1.5041,1.5488,0.0,1.8935,1.8352,1.9538,2.0173,2.0369,1.9904,2.0384,2.0879,2.0926,2.0926,2.0845,2.0512,2.041,2.0239,1.9833,1.9617,1.942,1.925,1.8784,1.8266,1.7747,1.7242,1.6795,1.6436,1.6001,1.5647,1.5424,1.5051,1.4731,1.4581,1.5214,1.5203,1.4534,1.5332,1.5185,1.4228,1.4042,1.4023,1.4042,1.4405,1.4204,1.3668,1.3249,1.2737,1.2126,1.1603,1.112,1.0593,0.9813,0.9455,0.9242,0.9367,0.9107,0.8661,0.8544,0.735,0.5868,0.5385,0.4354,0.3138,0.259,0.2405,0.2219,0.1602,0.1414,0.1348,0.1044,0.0981,0.098,0.0925,0.0946,0.0831,0.0438,0.0191,0.0193,0.0877,0.1061,0.1081,0.1071,0.1079,0.1069,0.1042,0.1038,0.1028,0.1001,0.1123,0.1006,0.0578,0.2259,0.3623,0.4235,0.3944,0.3699,0.3699,0.3513,0.3449,0.3449,0.3326,0.3157,0.301,0.2186,0.1514,0.0905,0.0234,-0.0414,1.6247,1.5955,1.5963,1.7,1.7121,1.7447,1.9364,1.9514,1.9514,2.0463,2.1005,2.118,2.0764,2.0957,2.115,2.1039,2.0991,2.0942,2.0812,2.073,2.0597,2.0426,2.0308,1.998,1.9362,1.9101,1.863,1.7868,1.7585,1.7173,1.6522,1.6306,1.6175,1.6076,1.6146,1.62,1.6154,1.6356,1.6264,1.5897,1.5923,1.5691,1.5219,1.5146,1.5012,1.4777,1.4535,1.4206,1.3891,1.3476,1.2948,1.239,1.1885,1.1361,1.0919,1.0358,1.0,0.9762,0.9697,0.9476,0.9247,0.9121,0.8148,0.6993,0.624,0.5095,0.3944,0.3047,0.2724,0.253,0.2012,0.173,0.1518,0.1392,0.1188,0.0993,0.0948,0.1024,0.097,0.0845,0.0648,0.0643,0.0953,0.1,0.106,0.1086,0.1091,0.1028,0.1033,0.1018,0.1002,0.099,0.0679,0.062,0.1191,0.1924,0.2851,0.4015,0.3843,0.3691,0.3691,0.3447,0.3265,0.3265,0.314,0.2938,0.2718,0.1994,0.1259,0.0533,-0.0184,-0.08,1.7584,1.7898,1.8118,1.8465,1.8748,1.906,1.9433,1.9746,2.0146,2.0733,2.1214,2.145,2.1261,2.134,2.1371,2.1229,2.1229,2.1197,2.1119,2.1023,2.0942,2.0827,2.0794,2.0478,1.9711,1.9493,1.9072,1.8341,1.8054,1.7666,1.7076,1.6909,1.6879,1.6879,1.7188,1.7435,1.7511,1.7494,1.7408,1.7196,1.6788,1.6446,1.6161,1.593,1.5537,1.5102,1.4514,1.4207,1.401,1.3519,1.3033,1.2552,1.205,1.156,1.1059,1.0814,1.0428,1.0047,0.9862,0.9676,0.9548,0.9338,0.8748,0.7897,0.6981,0.5866,0.4749,0.3687,0.3155,0.2822,0.2421,0.2119,0.1825,0.163,0.1404,0.1132,0.1029,0.0969,0.1038,0.1052,0.0978,0.0966,0.1022,0.094,0.0929,0.1062,0.1056,0.0993,0.1007,0.0982,0.0963,0.0963,0.0481,0.0724,0.219,0.2313,0.2747,0.3814,0.3691,0.3628,0.3628,0.3322,0.314,0.314,0.3077,0.2833,0.2467,0.191,0.1293,0.0493,-0.0252,-0.0881,1.7667,1.7977,1.8604,1.9451,1.9834,2.0139,2.0465,2.0465,2.0447,2.0745,2.1038,2.123,2.1355,2.154,2.1724,2.1768,2.1781,2.1661,2.134,2.1277,2.1151,2.0827,2.0794,2.0712,2.0481,1.9949,1.9579,1.9549,1.8765,1.8291,1.8341,1.7987,1.7747,1.7747,1.7951,1.8083,1.8083,1.8652,1.8598,1.7957,1.8148,1.7655,1.657,1.5624,1.5048,1.4675,1.4446,1.4267,1.4267,1.358,1.3094,1.2744,1.2243,1.1685,1.1122,1.1059,1.0744,1.0238,0.9926,0.9804,0.9734,0.9402,0.8818,0.8102,0.7562,0.6384,0.5143,0.461,0.3954,0.3362,0.282,0.2684,0.2482,0.1746,0.1577,0.1481,0.1098,0.0969,0.1025,0.0997,0.1078,0.1088,0.0995,0.0741,0.0624,0.1028,0.107,0.0978,0.1009,0.0919,0.09,0.09,0.0619,0.1253,0.3358,0.3546,0.3589,0.3816,0.3574,0.3388,0.3388,0.314,0.3015,0.3015,0.3015,0.2831,0.2405,0.2405,0.191,0.0985,0.0431,-0.0247,1.8619,1.8822,1.8982,2.0108,2.0374,2.0429,2.0679,2.0679,2.0712,2.0844,2.0893,2.1006,2.123,2.1356,2.1495,2.1768,2.1768,2.1708,2.1648,2.1573,2.145,2.1356,2.1325,2.1309,2.1246,2.0481,1.9879,1.9579,1.9095,1.8693,1.8419,1.8145,1.8066,1.8252,1.9044,1.9451,1.9451,2.0006,2.0086,1.9611,1.8814,1.8093,1.7424,1.6821,1.614,1.5468,1.5284,1.4834,1.4267,1.389,1.3519,1.3094,1.2544,1.205,1.156,1.1185,1.087,1.0555,1.0244,0.9996,0.9804,0.967,0.8952,0.8192,0.8205,0.7281,0.6218,0.6064,0.528,0.4401,0.4127,0.3376,0.2692,0.2486,0.2165,0.1858,0.146,0.1394,0.1323,0.1114,0.1039,0.1031,0.1084,0.0955,0.0964,0.1125,0.1103,0.0882,0.061,0.0602,0.0658,0.0898,0.0778,0.1261,0.2488,0.3348,0.3793,0.376,0.3513,0.3388,0.3263,0.3077,0.3015,0.3015,0.3015,0.2709,0.2157,0.2157,0.1602,0.0494,-0.0063,-0.0634,1.9041,1.9262,1.9377,2.0489,2.0712,2.0697,2.0909,2.086,2.0827,2.0926,2.0703,2.0623,2.1119,2.0826,2.077,2.1519,2.1434,2.1398,2.1735,2.1664,2.1589,2.1589,2.1589,2.1589,2.1542,2.0893,2.0345,2.0004,1.9536,1.9147,1.8968,1.8703,1.864,1.8822,1.9849,2.0373,2.0301,2.0986,2.1055,2.0372,1.915,1.8405,1.8081,1.7523,1.6922,1.6368,1.6073,1.5623,1.5069,1.4597,1.4163,1.3606,1.2903,1.2297,1.174,1.131,1.1059,1.087,1.0428,1.018,0.9989,0.9862,0.9344,0.8781,0.8865,0.8139,0.7204,0.7136,0.6331,0.5483,0.5352,0.449,0.3545,0.3401,0.2942,0.2355,0.1802,0.1663,0.1594,0.1178,0.1093,0.1081,0.1149,0.1149,0.1156,0.1177,0.1094,0.0866,0.032,0.0255,0.0319,0.0574,0.0765,0.102,0.1335,0.303,0.3958,0.3698,0.3534,0.3326,0.3202,0.3077,0.3015,0.3015,0.3015,0.2724,0.2193,0.2067,0.1575,0.0765,-0.013,-0.0719,1.9061,1.9364,1.9813,2.0717,2.0925,2.0958,2.1166,2.1023,2.0844,2.0927,2.0399,2.0144,2.0941,2.0021,1.9628,2.111,2.0891,2.0816,2.1595,2.1634,2.1589,2.1589,2.1589,2.1511,2.1386,2.1055,2.0861,2.0861,2.005,1.9639,1.997,1.9596,1.9391,1.9435,2.0349,2.0809,2.0741,2.1535,2.1458,2.0422,1.9307,1.8727,1.8578,1.7841,1.7401,1.7202,1.6765,1.6539,1.6425,1.5575,1.4914,1.4355,1.3268,1.249,1.1864,1.149,1.1247,1.1059,1.0555,1.0308,1.0308,1.011,0.9926,0.9798,0.9606,0.8958,0.8252,0.7937,0.7354,0.6749,0.6607,0.5828,0.5012,0.4645,0.3853,0.2913,0.2041,0.1896,0.175,0.1312,0.1239,0.1167,0.1168,0.1169,0.1169,0.1171,0.1171,0.0934,0.0136,0.0,0.0,0.0,0.0541,0.0607,0.0067,0.2497,0.3957,0.3764,0.3535,0.3349,0.3224,0.3094,0.303,0.303,0.303,0.2886,0.2586,0.2197,0.19,0.1547,0.0202,-0.047,2.0608,2.0887,2.1004,2.1453,2.1356,2.1167,2.1293,2.1277,2.1038,2.0521,2.0157,1.9919,1.9728,1.975,1.9991,2.0692,2.1049,2.1357,2.1661,2.1556,2.1433,2.1388,2.1167,2.099,2.0958,2.0697,2.0545,2.0545,2.0115,1.9848,1.9762,1.9523,1.9597,1.9991,2.0622,2.1067,2.1383,2.1467,2.1326,2.0835,2.0283,1.9862,1.9604,1.9226,1.862,1.7875,1.7545,1.7045,1.6492,1.6016,1.5661,1.5187,1.4204,1.3563,1.3078,1.2042,1.1677,1.156,1.1059,1.0744,1.0498,1.0301,1.011,0.9963,1.0033,0.9898,0.9675,0.9525,0.8899,0.8274,0.792,0.7155,0.6236,0.5285,0.514,0.4784,0.3058,0.3056,0.3052,0.1895,0.1386,0.1174,0.1196,0.12,0.1208,0.123,0.1312,0.0985,0.0144,0.0,0.0,0.0,0.0139,0.0139,0.0,0.0689,0.2005,0.4167,0.3795,0.3531,0.3592,0.3326,0.3156,0.3156,0.3156,0.2969,0.2659,0.2593,0.2202,0.1547,0.0403,-0.0269,2.1662,2.1795,2.1666,2.1977,2.1746,2.1337,2.1043,2.0947,2.0624,1.9698,1.9317,1.8993,1.8432,1.882,1.9447,1.9968,2.0693,2.1282,2.1748,2.1661,2.157,2.1526,2.1355,2.1166,2.0974,2.0778,2.0512,2.0273,2.001,1.9797,1.9726,1.9472,1.9633,2.0187,2.0709,2.1269,2.1846,2.1547,2.1277,2.0997,2.0662,2.036,2.0093,1.9772,1.9239,1.8643,1.8267,1.7831,1.7379,1.68,1.6472,1.613,1.5031,1.4442,1.4094,1.2895,1.2351,1.2166,1.1615,1.1277,1.1049,1.0665,1.045,1.0302,1.0276,1.0327,1.0319,1.022,0.9856,0.9472,0.9254,0.8582,0.7671,0.6926,0.6488,0.5835,0.4422,0.4052,0.3678,0.2709,0.1958,0.1588,0.184,0.1524,0.1217,0.1235,0.1226,0.1055,0.0585,0.0221,0.0,0.0,0.0,0.0,0.0,0.0,0.0985,0.3287,0.3745,0.3837,0.3646,0.343,0.3269,0.3228,0.3226,0.3092,0.2889,0.2753,0.2284,0.1412,0.047,-0.0336,2.253,2.2438,2.2091,2.2475,2.2146,2.1497,2.0613,2.0368,1.9968,1.8691,1.8126,1.7711,1.7183,1.7591,1.8294,1.9274,2.0069,2.0877,2.1811,2.1869,2.1827,2.1797,2.1768,2.1601,2.123,2.1023,2.0697,2.017,1.9889,1.9756,1.9773,1.9568,1.9719,2.0371,2.0915,2.1528,2.217,2.1664,2.1277,2.0997,2.0662,2.0398,2.0182,1.9772,1.9512,1.9368,1.8827,1.8614,1.856,1.771,1.7268,1.6955,1.5786,1.5206,1.4914,1.3795,1.3139,1.2773,1.2112,1.1806,1.1617,1.1065,1.0873,1.0804,1.049,1.059,1.0679,1.0442,1.0463,1.0556,1.0484,0.9892,0.913,0.8827,0.7838,0.6692,0.5915,0.4916,0.4068,0.368,0.282,0.2272,0.2896,0.2074,0.1363,0.1363,0.1334,0.1239,0.1239,0.0594,0.015,0.0,0.0,0.0,0.0,0.0,0.0631,0.2038,0.3511,0.4168,0.3587,0.3449,0.3376,0.3228,0.3226,0.3226,0.3226,0.2889,0.2284,0.1344,0.047,-0.0403,2.4075,2.3684,2.3034,2.3456,2.2665,2.1569,2.0755,2.0174,0.0,1.7773,1.701,1.6604,1.6535,1.6462,1.7101,1.9296,1.9764,2.0367,2.1769,2.1911,2.184,2.1738,2.1509,2.1291,2.1071,2.1007,2.078,2.0208,1.9984,1.9993,2.0256,2.0132,2.0517,2.1484,2.2045,2.2235,2.2044,2.1616,2.1277,2.0997,2.0662,2.0398,2.0182,1.9772,1.9512,1.9368,1.8958,1.8679,1.856,1.829,1.7975,1.7479,1.6606,1.6093,1.569,1.4222,1.345,1.3086,1.2297,1.1784,1.1361,1.1173,1.1308,1.1479,1.116,1.1246,1.1359,1.1166,1.1172,1.1193,1.1039,1.0703,1.0201,0.9205,0.8988,0.8542,0.6769,0.5541,0.4846,0.4768,0.3834,0.329,0.3756,0.2918,0.2193,0.2269,0.1926,0.1531,0.1239,0.1098,0.0728,0.0071,0.0,0.0,0.0,0.0,0.0566,0.2021,0.3478,0.4271,0.4102,0.3694,0.3446,0.3431,0.3295,0.3226,0.3226,0.3159,0.2554,0.1547,0.0941,0.0,2.3958,2.3847,2.3521,2.3535,2.2775,2.1702,2.0345,0.0,0.0,1.6473,1.5811,1.5539,1.5263,1.5748,1.6766,1.8393,1.8676,1.932,2.1217,2.1128,2.1122,2.1786,2.1735,2.1538,2.1245,2.1182,2.0893,2.0189,2.0299,2.0355,2.0318,2.0779,2.1267,2.1787,2.2241,2.2278,2.1793,2.152,2.118,2.0749,2.0562,2.036,2.008,1.9811,1.9617,1.9368,1.9052,1.8786,1.8614,1.8464,1.8205,1.7877,1.7357,1.6965,1.657,1.5108,1.4282,1.3752,1.2666,1.2216,1.2145,1.1836,1.1715,1.1703,1.1498,1.1603,1.1768,1.1553,1.1497,1.1484,1.1335,1.1186,1.0881,1.0121,0.976,0.916,0.7387,0.6696,0.624,0.5625,0.4999,0.4606,0.4688,0.3757,0.302,0.3392,0.2957,0.2402,0.2037,0.1964,0.1585,0.0702,0.0415,0.0206,0.0,0.0,0.0621,0.2023,0.3502,0.4253,0.4115,0.3842,0.3617,0.35,0.3429,0.3295,0.3226,0.3275,0.254,0.1167,0.0975,-0.0,2.3604,2.3736,2.3666,2.3409,2.2863,2.1898,2.006,1.8983,1.7723,1.549,1.4777,1.4455,1.4143,1.4932,1.6065,1.7238,1.7585,1.8397,2.0471,2.0545,2.077,2.1864,2.1998,2.1853,2.1509,2.1433,2.1103,2.0342,2.0719,2.087,2.0586,2.1484,2.2017,2.1959,2.2207,2.2091,2.1568,2.1423,2.1033,2.0511,2.0461,2.0296,1.999,1.9811,1.9617,1.9368,1.9105,1.8827,1.8614,1.8464,1.8302,1.8084,1.781,1.7545,1.7166,1.61,1.5252,1.4427,1.3285,1.2938,1.2938,1.2531,1.2185,1.2033,1.1895,1.2009,1.2104,1.1808,1.176,1.1706,1.1558,1.1484,1.1335,1.0887,1.0218,0.9311,0.8232,0.8008,0.7706,0.6707,0.6234,0.5996,0.5693,0.4746,0.3995,0.4143,0.391,0.3413,0.2761,0.2902,0.2665,0.1626,0.1179,0.096,0.0823,0.0685,0.1231,0.2662,0.3841,0.4413,0.4172,0.4045,0.3911,0.3696,0.3628,0.3489,0.3353,0.3217,0.2398,0.0916,0.072,-0.0218,2.3946,2.3801,2.3477,2.3539,2.3089,2.2131,2.0509,0.0,1.7356,1.5548,1.4074,1.3277,1.39,1.3615,1.4007,1.6165,0.0,1.8174,1.9781,2.1055,2.1819,2.1895,2.1969,2.1911,2.1678,2.1708,2.1509,2.0861,2.1262,2.1628,2.1829,2.2409,2.2649,2.2529,2.2203,2.1841,2.1423,2.118,2.0848,2.0511,2.0283,2.0144,1.999,1.9629,1.942,1.9368,1.9105,1.8827,1.8614,1.8614,1.841,1.8084,1.781,1.7479,1.7188,1.6808,1.5916,1.4852,1.4393,1.3719,1.3096,1.2932,1.302,1.2961,1.2663,1.2558,1.2519,1.2271,1.2131,1.2003,1.1929,1.1706,1.1335,1.0887,1.0293,0.9771,0.9468,0.9008,0.8551,0.847,0.8012,0.7395,0.6861,0.6266,0.5346,0.4,0.4281,0.4135,0.2619,0.3409,0.3837,0.2896,0.2677,0.2822,0.333,0.3035,0.3393,0.4839,0.5072,0.5,0.4621,0.4483,0.4339,0.4329,0.3972,0.3756,0.3756,0.2751,0.1885,0.1159,0.0364,-0.051,2.2936,2.3139,2.3321,2.3005,2.2737,2.2131,2.0559,1.9028,1.7427,1.5679,1.4057,1.3188,1.3982,1.3467,1.3552,0.0,0.0,0.0,1.7439,1.861,1.9522,2.0289,2.1251,2.1768,2.1634,2.1587,2.1633,2.1859,2.2202,2.26,2.2934,2.2966,2.2963,2.3008,2.248,2.2016,2.1664,2.1118,2.0673,2.0347,2.0144,1.9978,1.9772,1.9565,1.942,1.9275,1.917,1.8946,1.8732,1.8614,1.8464,1.8259,1.8041,1.7656,1.7266,1.7095,1.6527,1.5676,1.5012,1.4513,1.4114,1.3508,1.3364,1.3346,1.3046,1.29,1.2746,1.2526,1.2452,1.2305,1.2077,1.1781,1.1484,1.126,1.0887,1.0443,0.9922,0.969,0.9382,0.8466,0.8551,0.8475,0.7778,0.7339,0.6832,0.5921,0.572,0.5084,0.3648,0.3873,0.3798,0.2816,0.274,0.3127,0.4082,0.3427,0.3715,0.5318,0.4662,0.4372,0.4809,0.4654,0.4584,0.4595,0.4225,0.3566,0.269,0.2216,0.1489,0.0447,0.0076,-0.061,2.2099,2.2517,2.2982,2.2596,2.2344,2.178,2.0284,1.8756,1.7173,1.5502,1.4041,1.3216,1.3743,1.3394,1.3324,0.0,0.0,1.4311,1.6308,1.7395,1.8506,1.9886,2.1009,2.1634,2.1542,2.1598,2.1855,2.244,2.2823,2.3197,2.3666,2.3392,2.326,2.3319,2.2694,2.2189,2.1793,2.1188,2.066,2.0182,2.0042,1.9888,1.9617,1.9565,1.942,1.9182,1.917,1.9011,1.8732,1.8614,1.8518,1.8313,1.8139,1.7822,1.74,1.7595,1.7152,1.6513,1.5965,1.5466,1.4947,1.4252,1.3795,1.3492,1.3346,1.3127,1.29,1.2673,1.2526,1.2452,1.2003,1.1781,1.1632,1.1335,1.1186,1.0887,1.0293,1.0143,0.9911,0.8922,0.916,0.9241,0.8309,0.8237,0.8008,0.7238,0.6777,0.6005,0.4611,0.4533,0.4146,0.3136,0.3113,0.3344,0.402,0.3503,0.3651,0.4842,0.4022,0.3799,0.462,0.454,0.4543,0.4779,0.4098,0.3126,0.2084,0.1667,0.0994,0.0077,-0.0233,-0.0784,2.1814,2.2163,2.2338,2.246,2.1941,2.1054,1.9631,1.8018,1.6393,1.491,1.3869,1.3158,1.3031,1.3122,1.3139,0.0,0.0,0.0,1.7092,1.8493,1.9918,2.1393,2.1573,2.1542,2.1417,2.181,2.2226,2.2487,2.2878,2.3325,2.3752,2.3653,2.3523,2.3319,2.2799,2.2282,2.1793,2.1396,2.0845,2.0182,2.0042,1.9888,1.9617,1.9473,1.9328,1.917,1.9052,1.8827,1.8614,1.8614,1.8398,1.8084,1.8084,1.792,1.7779,1.8348,1.8057,1.7355,1.7589,1.6715,1.5455,1.5037,1.4266,1.3492,1.3492,1.3346,1.3119,1.2673,1.2452,1.2224,1.1781,1.1706,1.1632,1.1186,1.0962,1.0812,1.0812,1.0519,1.0218,1.0218,0.9992,0.9614,0.8533,0.8851,0.8699,0.7073,0.7003,0.6696,0.5461,0.5464,0.5312,0.4462,0.4224,0.383,0.3209,0.3517,0.3675,0.3444,0.3444,0.3599,0.4066,0.3915,0.4151,0.5015,0.3368,0.2508,0.2508,0.1098,0.0393,0.0393,-0.0786,-0.1257,2.0548,2.0579,2.0584,2.0195,1.9563,1.8921,1.8555,1.725,1.5993,1.5585,1.4331,1.3312,1.3278,1.3227,1.3527,1.451,0.0,0.0,1.7332,1.8194,1.8974,2.0052,2.0817,2.1199,2.1023,2.1906,2.2483,2.2421,2.3348,2.3921,2.3925,2.3797,2.3696,2.3668,2.3172,2.2754,2.2434,2.1874,2.1458,2.1166,2.1006,2.0633,1.9991,1.9991,1.9592,1.9052,1.8999,1.8893,1.8744,1.8614,1.8452,1.8348,1.8585,1.8318,1.7926,1.8829,1.8669,1.8055,1.7927,1.7423,1.6706,1.6088,1.5108,1.4258,1.4258,1.384,1.3346,1.29,1.2526,1.2305,1.215,1.2077,1.2003,1.1632,1.1484,1.1335,1.0887,1.0663,1.0513,1.0218,1.0143,0.9992,0.9533,0.916,0.847,0.7238,0.6619,0.5925,0.4846,0.4618,0.4465,0.4233,0.3763,0.3606,0.3992,0.3054,0.2818,0.3599,0.2976,0.2823,0.3294,0.329,0.3292,0.3299,0.2747,0.1961,0.0785,-0.0236,-0.0786,-0.0786,-0.11,-0.1335,1.937,1.9479,1.9369,1.8727,1.8041,1.745,1.7264,1.6272,1.5311,1.5072,1.4195,1.3461,1.3412,1.3379,1.3633,1.4489,1.4178,1.4644,1.6948,1.7657,1.8487,1.9988,2.0744,2.1038,2.0777,2.1937,2.2629,2.2346,2.3452,2.4051,2.394,2.3797,2.3696,2.3668,2.3436,2.3068,2.2649,2.2249,2.1935,2.1616,2.1431,2.093,2.0181,2.0131,1.9683,1.8987,1.8946,1.8839,0.0,1.8572,1.841,1.8305,1.8757,1.8657,1.8378,1.912,1.9156,1.8764,1.8522,1.7978,1.7335,1.6853,1.5728,1.4537,1.4258,1.384,1.3346,1.2973,1.2673,1.2378,1.2224,1.2157,1.2077,1.1781,1.1632,1.1484,1.1111,1.097,1.086,1.046,1.0444,1.0396,1.0226,0.9741,0.9091,0.8064,0.7137,0.6159,0.5148,0.4565,0.4155,0.4079,0.3688,0.362,0.3966,0.2835,0.2429,0.3052,0.2429,0.2275,0.2589,0.2508,0.2431,0.2515,0.1884,0.102,-0.0,-0.055,-0.0864,-0.1021,-0.1021,-0.11,0.0,1.8576,1.8511,1.7832,1.7101,1.6407,1.5839,1.5138,0.0,1.3813,1.3639,1.3592,1.3582,1.3595,1.3594,1.3548,1.3599,1.436,1.638,1.7336,1.8698,2.1032,2.1262,2.1087,2.076,2.1953,2.2592,2.2224,2.3178,2.3782,2.3797,2.3653,2.3566,2.3509,2.3566,2.3246,2.2558,2.2558,2.2249,2.1664,2.1444,2.0979,2.0283,2.0131,1.9695,1.904,1.8851,1.8679,1.856,1.8476,1.8259,1.8141,1.8701,1.8919,1.8896,1.9254,1.9378,1.9338,1.9117,1.8375,1.7472,1.7404,1.614,1.4537,1.384,1.3419,1.3193,1.2973,1.2746,1.2526,1.215,1.2003,1.2003,1.1781,1.1558,1.1416,1.1434,1.1347,1.1153,1.0912,1.0958,1.0969,1.0667,1.0572,1.0222,0.9236,0.818,0.7107,0.6141,0.5091,0.4406,0.4166,0.4173,0.3897,0.3412,0.2869,0.2361,0.197,0.197,0.2048,0.2207,0.1657,0.1658,0.2366,0.0866,0.0079,0.0079,0.0,-0.0157,-0.055,-0.055,-0.0786,1.5404,0.0,1.6143,1.5477,1.4734,1.4329,0.0,1.4315,1.3905,1.4349,1.3987,1.3951,1.5105,1.4383,1.4348,1.6649,1.6447,1.6778,1.9069,2.0339,2.1128,2.1411,2.1386,2.1277,2.1103,2.1886,2.2368,2.2217,2.3111,2.361,2.3581,2.3553,2.3451,2.3363,2.3363,2.3231,2.2978,2.2978,2.2812,2.2505,2.2445,2.1996,2.1251,2.0733,2.008,1.946,1.8881,1.8572,1.8422,1.8422,1.8259,1.8141,1.8701,1.878,1.872,1.92,1.9329,1.9117,1.8967,1.8674,1.8317,1.7413,1.6507,1.5517,1.4601,1.3833,1.3193,1.3119,1.29,1.2599,1.2452,1.2305,1.215,1.2003,1.1855,1.1845,1.1771,1.1717,1.157,1.1467,1.1438,1.1347,1.0969,1.0342,0.9548,0.8405,0.7554,0.659,0.5517,0.5159,0.4839,0.4761,0.4582,0.4474,0.4161,0.3507,0.2922,0.2646,0.2566,0.2483,0.2151,0.1986,0.1822,0.1574,0.0815,0.0484,0.0484,0.0159,-0.0079,-0.0157,-0.0157,-0.0236,1.3988,1.5001,1.5876,1.517,1.4699,1.4531,1.4993,1.4246,1.3598,1.4042,1.3818,1.38,1.4641,1.4641,1.5068,1.6784,1.7139,1.7907,1.9879,2.0901,2.1487,2.1598,2.1509,2.1339,2.1039,2.1906,2.239,2.2156,2.3028,2.3538,2.3509,2.3466,2.3334,2.3201,2.3142,2.3053,2.2962,2.2978,2.2888,2.2689,2.2644,2.2245,2.1568,2.1028,2.0434,1.9823,1.9291,1.8934,1.8679,1.8637,1.8367,1.8141,1.8589,1.8731,1.8874,1.9109,1.9265,1.9274,1.9008,1.8808,1.8472,1.7354,1.6724,1.6228,1.5384,1.4537,1.376,1.3193,1.29,1.2673,1.2526,1.2378,1.2338,1.2322,1.2287,1.222,1.2201,1.2207,1.2141,1.184,1.1875,1.1834,1.1554,1.1046,1.0183,0.8666,0.8006,0.709,0.5527,0.5277,0.5175,0.5033,0.5325,0.5301,0.4685,0.4545,0.4101,0.311,0.311,0.2859,0.2439,0.2186,0.1851,0.1348,0.1082,0.0987,0.0895,0.0723,0.0397,0.0,0.0,0.0,1.3667,1.5295,1.6655,1.5547,1.5426,1.5564,1.5399,0.0,0.0,0.0,0.0,1.3769,1.411,1.5043,1.5906,1.6285,1.7304,1.8569,2.0137,2.0655,2.1118,2.1672,2.1631,2.1401,2.1007,2.2046,2.2635,2.224,2.3126,2.3625,2.3553,2.3451,2.3275,2.3127,2.2963,2.2843,2.2795,2.2843,2.2768,2.2555,2.2463,2.2137,2.1616,2.1153,2.0709,2.0233,1.9772,1.9356,1.9052,1.8839,1.853,1.813,1.8329,1.8617,1.8972,1.8835,1.9072,1.9473,1.9208,1.8875,1.8405,1.7423,1.707,1.6862,1.6097,1.5313,1.4402,1.3455,1.3075,1.2833,1.2506,1.2446,1.2445,1.2822,1.2755,1.2616,1.2657,1.2738,1.2593,1.2164,1.232,1.2366,1.2028,1.2006,1.1359,0.9329,0.8836,0.7962,0.6087,0.5774,0.5635,0.5529,0.6306,0.6382,0.5308,0.5737,0.5347,0.3736,0.3564,0.331,0.2974,0.2464,0.2039,0.1616,0.1527,0.151,0.1398,0.1307,0.0888,0.0159,0.0081,0.0,1.4919,1.659,1.7294,1.4449,1.4683,1.5274,1.404,1.3566,0.0,0.0,0.0,1.5014,1.688,1.688,1.722,1.9029,1.9462,2.0084,2.1636,2.1838,2.1852,2.1953,2.184,2.1751,2.1735,2.2505,2.2992,2.2889,2.3834,2.4204,2.3797,2.3739,2.3538,2.3127,2.2917,2.2781,2.2615,2.2646,2.2555,2.2417,2.2417,2.2184,2.1746,2.1104,2.066,2.0321,1.972,1.942,1.9316,1.8958,1.8572,1.8236,1.7956,1.8038,1.8355,1.8307,1.868,1.9142,1.9142,1.9075,1.8931,1.8405,1.7833,1.7267,1.6862,1.5737,1.4593,1.4518,1.3822,1.3184,1.314,1.3051,1.2898,1.3066,1.3146,1.3141,1.3189,1.3035,1.2959,1.2897,1.2735,1.2535,1.2111,1.2016,1.1466,0.9925,0.8886,0.8151,0.7588,0.7065,0.6996,0.7518,0.7932,0.777,0.6568,0.6568,0.6034,0.4614,0.4259,0.3993,0.3464,0.3019,0.2751,0.2663,0.2182,0.1987,0.1979,0.1493,0.1231,0.1083,0.0328,0.0,1.4349,1.6074,1.7265,1.5384,1.6685,1.8125,1.6997,1.6462,0.0,0.0,1.6293,1.6801,1.7642,1.8154,1.8975,2.0682,2.1011,2.1273,2.196,2.2015,2.1998,2.194,2.1869,2.1947,2.2266,2.2781,2.3239,2.3517,2.4116,2.4369,2.4162,2.3867,2.3566,2.326,2.2888,2.2629,2.2509,2.2417,2.237,2.2278,2.2137,2.1996,2.1793,2.1166,2.0822,2.0686,2.0283,1.9978,1.9708,1.95,1.9081,1.8541,1.8271,1.825,1.8408,1.8596,1.8843,1.9075,1.8875,1.8808,1.8741,1.8347,1.7998,1.7754,1.7767,1.7051,1.6131,1.598,1.4726,1.3522,1.3607,1.3529,1.3487,1.3396,1.3351,1.3312,1.3133,1.3004,1.2881,1.2675,1.2529,1.2322,1.1962,1.1939,1.1485,1.0217,0.9634,0.9068,0.8341,0.7995,0.7932,0.8203,0.8875,0.8803,0.7837,0.7658,0.6776,0.4839,0.4478,0.4121,0.3587,0.3406,0.3136,0.2867,0.2663,0.2372,0.2086,0.1875,0.1603,0.1263,0.0928,0.051,1.428,1.5854,1.7294,1.6888,0.0,2.0107,1.9492,1.881,1.8297,1.8255,1.8326,1.8388,1.8278,1.9353,2.0617,2.1657,2.1899,2.194,2.1882,2.1928,2.1911,2.1869,2.1751,2.1892,2.231,2.2699,2.3199,2.385,2.4248,2.4427,2.4461,2.4063,2.3724,2.345,2.3038,2.2678,2.2509,2.2402,2.2278,2.2184,2.1949,2.1746,2.1712,2.1229,2.0997,2.0947,2.0749,2.0485,2.0156,1.9991,1.954,1.894,1.8858,1.8798,1.8837,1.9036,1.9075,1.9075,1.8751,1.8617,1.8607,1.8212,1.8213,1.8291,1.8535,1.8133,1.7642,1.7362,1.5759,1.4136,1.4002,1.3853,1.3733,1.356,1.3502,1.3351,1.3048,1.2889,1.281,1.2406,1.2246,1.2141,1.1921,1.1878,1.1576,1.0621,1.0332,1.0014,0.935,0.8994,0.8913,0.9156,0.9826,0.9772,0.8632,0.8097,0.7037,0.5015,0.4569,0.421,0.3855,0.3765,0.3585,0.3226,0.3136,0.2846,0.2275,0.2177,0.1815,0.1283,0.1125,0.0611,1.6289,1.7168,1.7806,1.8377,1.8584,1.8645,1.8594,1.7961,1.7572,1.8251,1.8741,1.9224,1.9821,2.086,2.1694,2.1882,2.184,2.1811,2.1811,2.1768,2.1708,2.1708,2.1556,2.1481,2.1655,2.2151,2.2766,2.3582,2.4175,2.4505,2.4592,2.4542,2.4256,2.3595,2.3421,2.3201,2.2844,2.2754,2.2526,2.2184,2.1949,2.1664,2.1423,2.1131,2.0898,2.0699,2.0699,2.0699,2.0599,2.0067,1.9643,1.938,1.9345,1.9342,1.9323,1.9141,1.9075,1.9075,1.9075,1.9075,1.9008,1.8617,1.8763,1.9034,1.8703,1.8413,1.8221,1.8379,1.7039,1.5311,1.4358,1.3684,1.3383,1.3434,1.3358,1.3206,1.3206,1.3055,1.2889,1.2889,1.2485,1.208,1.1834,1.1836,1.1756,1.1438,1.0789,1.0611,1.1295,1.0589,1.0307,1.0999,1.1123,1.0472,0.8632,0.7482,0.6425,0.5371,0.4928,0.4661,0.4661,0.4391,0.421,0.421,0.3765,0.3315,0.2861,0.2369,0.1843,0.1339,0.0438,-0.0351,1.5744,1.6827,1.801,1.8751,1.9668,0.0,0.0,2.0829,2.136,2.1428,2.1441,2.1403,2.1248,2.1532,2.1781,2.1797,2.1768,2.1708,2.1694,2.1664,2.1634,2.1634,2.1495,2.1596,2.21,2.2297,2.2652,2.3294,2.3967,2.4281,2.4162,2.4324,2.4245,2.3937,2.358,2.3143,2.2512,2.2799,2.2526,2.1712,2.1616,2.1423,2.1131,2.0947,2.0749,2.0699,2.0699,2.0699,2.0662,2.0347,2.0016,1.9679,1.9813,1.965,1.9378,1.9598,1.9462,1.9065,1.8808,1.8741,1.8724,1.8587,1.8645,1.8882,1.9268,1.9319,1.924,1.9118,1.8213,1.6927,1.5607,1.4572,1.3783,1.3319,1.3229,1.3027,1.2685,1.257,1.2494,1.2342,1.2338,1.2279,1.1862,1.1988,1.2056,1.1793,1.1529,1.1485,1.1817,1.1504,1.1372,1.1538,1.1381,1.0559,0.8632,0.8101,0.7224,0.5641,0.5018,0.4661,0.4661,0.4478,0.43,0.43,0.4121,0.3674,0.2867,0.2667,0.2224,0.1345,0.0622,-0.0356,1.5668,1.6705,1.8057,1.8837,0.0,0.0,2.1666,2.2587,2.339,2.3371,2.3151,2.2764,2.2084,2.1928,2.184,2.1694,2.1664,2.1634,2.162,2.1542,2.1542,2.1542,2.1433,2.155,2.2021,2.2021,2.2213,2.2764,2.3207,2.356,2.3784,2.3958,2.4087,2.4135,2.3824,2.3334,2.2694,2.3038,2.2709,2.1732,2.1602,2.1326,2.0997,2.0799,2.0699,2.0699,2.0699,2.0699,2.0699,2.0511,2.0297,2.011,2.0213,2.0109,1.9929,2.005,1.9846,1.933,1.8808,1.8708,1.8801,1.8755,1.8899,1.9232,1.9736,2.001,2.0023,1.9778,1.8954,1.7931,1.679,1.5366,1.4015,1.3264,1.2989,1.2852,1.2419,1.2305,1.2257,1.2276,1.2391,1.2408,1.211,1.2276,1.2376,1.2047,1.2119,1.2152,1.2248,1.2188,1.2006,1.1768,1.144,1.0559,0.8632,0.8544,0.7665,0.5822,0.5196,0.4926,0.4837,0.4478,0.43,0.43,0.43,0.3941,0.3136,0.2957,0.251,0.1615,0.0807,-0.0269,1.6514,1.7037,1.7992,1.8734,2.0173,2.1596,2.2264,2.2464,2.2701,2.3356,2.3289,2.2884,2.2237,2.2096,2.1998,2.1664,2.1589,2.1589,2.1589,2.1464,2.1386,2.1386,2.134,2.1262,2.1087,2.1103,2.1326,2.1859,2.1872,2.2382,2.3522,2.36,2.377,2.4193,2.4223,2.3955,2.3509,2.3509,2.3172,2.2512,2.203,2.152,2.0997,2.0799,2.0699,2.0699,2.0699,2.0699,2.0649,2.0334,2.0411,2.0661,2.054,2.0816,2.1188,2.0422,2.0096,1.9977,1.9131,1.9104,1.9422,1.9054,1.9518,2.0167,2.0007,2.0225,2.0566,2.0566,1.9421,1.8184,1.7933,1.61,1.4057,1.3112,1.2753,1.2526,1.2378,1.2305,1.2392,1.2768,1.2676,1.2544,1.2606,1.2638,1.2655,1.2318,1.2536,1.2705,1.2705,1.2534,1.2198,1.1785,1.144,1.0559,0.8632,0.8544,0.7753,0.5822,0.5552,0.528,0.501,0.4565,0.43,0.43,0.43,0.4032,0.3587,0.3136,0.2689,0.2154,0.0987,-0.0269,1.6581,1.7152,1.8103,1.9417,2.0963,2.2347,2.307,2.3267,2.3231,2.3116,2.3465,2.3466,2.2434,2.2248,2.2135,2.1797,2.1738,2.1648,2.1419,2.134,2.1309,2.1214,2.1151,2.1103,2.0893,2.0893,2.0889,2.091,2.1346,2.1744,2.1966,2.2802,2.3299,2.3417,2.3865,2.3797,2.3216,2.3538,2.3201,2.2221,2.2466,2.2109,2.1277,2.0898,2.0699,2.0712,2.0612,2.0562,2.0511,2.0195,2.0079,2.015,2.0896,2.1015,2.0794,2.1287,2.091,2.0042,1.9507,1.9297,1.9264,1.9209,1.9536,2.0056,2.0283,2.0469,2.0566,2.0566,2.0004,1.9211,1.8323,1.7333,1.616,1.4673,1.3753,1.3244,1.3171,1.2905,1.2714,1.2802,1.3086,1.3166,1.2926,1.3093,1.3018,1.2675,1.2656,1.2705,1.2705,1.2534,1.2283,1.1957,1.1699,1.0997,0.9593,0.9506,0.8719,0.6789,0.652,0.5985,0.5008,0.4746,0.448,0.43,0.43,0.4032,0.3587,0.3136,0.2689,0.2154,0.0448,-0.0538,1.7331,1.8086,1.904,2.06,2.1711,2.2754,2.3799,2.4045,2.3957,2.3675,2.3962,2.3903,2.2716,2.2443,2.2287,2.1928,2.1899,2.1781,2.1495,2.1402,2.1277,2.1135,2.1023,2.0893,2.0695,2.0695,2.0595,2.0426,2.0744,2.1013,2.1218,2.1889,2.2498,2.2975,2.3319,2.3441,2.3304,2.3566,2.3377,2.268,2.283,2.2572,2.1969,2.1492,2.1251,2.1264,2.0921,2.0586,2.0309,2.0093,1.9926,1.9911,2.1041,2.1256,2.0982,2.1789,2.1604,2.088,2.0554,2.0226,2.0029,2.0102,2.0198,2.0311,2.0566,2.0566,2.0566,2.0566,2.0254,1.9664,1.8879,1.8162,1.7242,1.5421,1.4617,1.4152,1.4217,1.3657,1.3341,1.3585,1.3627,1.3517,1.3214,1.3283,1.3222,1.279,1.2705,1.2705,1.2705,1.2534,1.2369,1.2203,1.1866,1.1262,1.012,0.9946,0.9069,0.7228,0.6959,0.6337,0.5008,0.4835,0.4569,0.43,0.43,0.4121,0.3855,0.3406,0.3048,0.2691,0.0896,-0.0179,1.8341,1.9326,2.0274,2.1896,2.2418,2.2901,2.4444,2.4724,2.467,2.467,2.4573,2.4134,2.2998,2.2703,2.2473,2.2113,2.2027,2.194,2.1738,2.1606,2.1453,2.1279,2.1053,2.0856,2.0655,2.0525,2.0426,2.0304,2.015,2.0375,2.0987,2.0983,2.1462,2.2576,2.2742,2.3005,2.3505,2.3565,2.3595,2.361,2.3216,2.3067,2.3022,2.2402,2.2081,2.2035,2.1417,2.0759,2.0042,1.999,1.9926,1.9911,2.1041,2.1493,2.1562,2.2031,2.2163,2.2061,2.1804,2.1531,2.1203,2.1364,2.1179,2.0829,2.0654,2.0566,2.0566,2.0566,2.0283,1.9873,1.9453,1.8735,1.7744,1.5951,1.5413,1.5336,1.5299,1.4659,1.4271,1.4794,1.43,1.3678,1.3432,1.3398,1.3222,1.279,1.2705,1.2705,1.2705,1.2534,1.2448,1.2448,1.2037,1.1348,1.0467,1.0207,0.9244,0.7492,0.7316,0.6605,0.5186,0.4924,0.4569,0.43,0.43,0.43,0.43,0.3855,0.3587,0.3587,0.1883,0.0717,1.7517,1.8503,1.9573,2.175,2.2785,2.3636,2.508,2.4949,2.4506,2.4406,2.4355,2.4007,2.2929,2.2712,2.2605,2.236,2.226,2.2147,2.1899,2.2278,2.2518,2.236,2.2053,2.1738,2.1618,2.0755,2.022,2.0304,2.0131,2.0122,2.0314,2.0652,2.0963,2.1212,2.2194,2.2783,2.2877,2.3355,2.3595,2.361,2.4015,2.4223,2.4163,2.2708,2.1935,2.1698,2.1153,2.0759,2.0422,2.0016,1.9811,1.9911,2.1041,2.1493,2.1619,2.2533,2.2555,2.2111,2.2204,2.1655,2.091,2.1063,2.0954,2.0654,2.0644,2.0566,2.0566,2.0566,2.0498,2.0322,1.9893,1.9325,1.8695,1.8072,1.6998,1.6144,1.6147,1.5943,1.5606,1.5042,1.4953,1.4657,1.3548,1.3398,1.3222,1.279,1.2705,1.2705,1.2705,1.2619,1.2619,1.2619,1.2375,1.1866,1.1176,1.1003,1.0472,0.9331,0.8632,0.7661,0.6425,0.5453,0.4746,0.43,0.43,0.43,0.43,0.3855,0.3587,0.3587,0.2239,0.1164,1.7484,1.8789,1.9911,2.222,2.3342,2.4091,2.4812,2.4944,2.4795,2.4296,2.42,2.4008,2.3423,2.3229,2.3258,2.3568,2.3516,2.3371,2.313,2.3312,2.3272,2.2766,2.2279,2.1834,2.1415,2.0612,2.015,2.0185,2.0025,1.9919,1.994,2.0165,2.0572,2.1218,2.1569,2.2173,2.3116,2.343,2.3716,2.4,2.4671,2.4743,2.434,2.3543,2.2733,2.1921,2.1623,2.1175,2.056,2.0308,2.0055,1.9911,2.1041,2.1493,2.1619,2.2723,2.2984,2.2908,2.3252,2.2896,2.2284,2.211,2.1709,2.1262,2.0722,2.0566,2.0566,2.0566,2.0566,2.0469,2.0029,1.9616,1.9254,1.8813,1.7852,1.7161,1.7463,1.7167,1.6705,1.6469,1.5845,1.5144,1.43,1.373,1.3143,1.279,1.2705,1.2705,1.2705,1.2705,1.2705,1.2705,1.254,1.2289,1.1693,1.1435,1.1084,1.0559,0.9685,0.8452,0.6868,0.6068,0.5272,0.448,0.4389,0.43,0.43,0.4032,0.3942,0.3942,0.2686,0.188,1.7059,1.8966,2.0494,2.2705,2.3668,2.4102,2.4217,2.462,2.483,2.4356,2.4155,2.4068,2.3952,2.3815,2.3979,2.4739,2.4752,2.4615,2.4461,2.4389,2.4079,2.3289,2.2718,2.2104,2.148,2.0794,2.0416,2.0416,2.0252,2.0143,2.0143,2.007,2.0543,2.1665,2.1276,2.1829,2.343,2.367,2.397,2.44,2.5156,2.5165,2.4429,2.4663,2.3885,2.2374,2.2328,2.1766,2.0858,2.0759,2.0409,2.0054,2.1104,2.1516,2.1631,2.2664,2.3306,2.3753,2.432,2.4213,2.3805,2.343,2.2883,2.209,2.1098,2.0789,2.0789,2.0644,2.0566,2.0478,2.0051,1.9839,1.9496,1.8976,1.8377,1.8055,1.8568,1.8211,1.7795,1.7937,1.6698,1.547,1.513,1.4223,1.3307,1.279,1.2705,1.2771,1.2952,1.2982,1.291,1.2723,1.2705,1.2454,1.1957,1.1527,1.1262,1.1262,1.0559,0.9327,0.7394,0.677,0.5977,0.5013,0.4567,0.43,0.43,0.43,0.43,0.4297,0.3314,0.2686,1.4385,1.7222,2.0371,2.2588,2.319,2.3385,2.3903,2.3615,2.3537,2.4648,2.441,2.3952,2.376,2.3704,2.395,2.4616,2.4662,2.4601,2.4571,2.505,2.5341,2.5225,2.4593,2.4075,2.3855,2.258,2.1759,2.1759,2.1581,2.1464,2.1512,2.1449,2.15,2.1695,2.2158,2.2547,2.2843,2.3924,2.4447,2.44,2.5534,2.5982,2.5745,2.5795,2.4684,2.2797,2.2417,2.2123,2.1935,2.1479,2.0993,2.0575,2.1173,2.1422,2.1631,2.2558,2.3257,2.3802,2.4487,2.4241,2.3665,2.3876,2.3463,2.2734,2.1907,2.1614,2.1461,2.0789,2.0566,2.0557,2.0343,1.9832,1.9335,1.9481,1.9007,1.8586,1.8687,1.8903,1.8833,1.8149,1.7098,1.6034,1.547,1.4963,1.4203,1.2869,1.2705,1.3037,1.3966,1.4087,1.3731,1.2801,1.2705,1.2369,1.1435,1.1354,1.1262,1.1262,1.1176,1.0646,0.9506,0.7471,0.6328,0.6151,0.4917,0.43,0.43,0.43,0.43,0.43,0.4119,0.3582,1.515,1.7751,2.0223,2.2611,2.3028,2.2963,2.3397,2.345,2.3456,2.366,2.3781,2.4074,2.4878,2.4962,2.5176,2.5866,2.5873,2.5759,2.5759,2.6047,2.6065,2.5659,2.5112,2.4482,2.3761,2.2807,2.2141,2.1901,2.1759,2.1719,2.1759,2.1734,2.1859,2.2233,2.2118,2.2431,2.3191,2.4,2.4855,2.5864,2.6337,2.6309,2.5893,2.5893,2.4985,2.347,2.3224,2.279,2.2184,2.1921,2.1527,2.1046,2.1288,2.1753,2.2261,2.273,2.3516,2.4382,2.4713,2.4711,2.4484,2.4195,2.3902,2.3463,2.2723,2.2134,2.1766,2.1395,2.1123,2.0858,2.0709,2.0589,2.0467,2.0164,1.9984,1.9839,1.954,1.9402,1.9127,1.8452,1.7654,1.6778,1.5955,1.5043,1.4055,1.2875,1.3212,1.3767,1.4238,1.4298,1.4117,1.3646,1.3061,1.2283,1.1348,1.1262,1.1262,1.1262,1.1262,1.0911,0.9946,0.8532,0.7386,0.6413,0.5006,0.43,0.43,0.43,0.43,0.43,0.43,0.4119,1.5585,1.7514,1.8993,2.1838,2.2484,2.2522,2.2917,2.3276,2.3381,2.3047,2.3326,2.4087,2.5532,2.5668,2.5868,2.6788,2.6808,2.6691,2.6691,2.6691,2.6488,2.5947,2.5513,2.4832,2.3822,2.3211,2.2748,2.2305,2.2214,2.2173,2.2173,2.2173,2.2398,2.2892,2.2304,2.2512,2.3551,2.4117,2.5267,2.7003,2.6846,2.6518,2.6039,2.6039,2.5429,2.4355,2.4036,2.3429,2.2644,2.2441,2.2077,2.1643,2.1907,2.235,2.2847,2.3299,2.3983,2.4828,2.4893,2.5057,2.5229,2.4564,2.4409,2.4264,2.3537,2.2872,2.2381,2.2282,2.189,2.149,2.1348,2.1375,2.1227,2.0679,2.0615,2.0624,2.0273,1.9907,1.9534,1.9173,1.8607,1.8011,1.725,1.6132,1.5245,1.4695,1.4419,1.4298,1.4298,1.4298,1.4298,1.4298,1.3586,1.2738,1.171,1.1435,1.1262,1.1262,1.1262,1.1003,1.0299,0.9419,0.8269,0.7031,0.545,0.4478,0.43,0.43,0.43,0.43,0.43,0.43,1.3972,1.5054,1.5938,1.963,2.1108,2.1849,2.2556,2.2693,2.2863,2.3515,2.363,2.3864,2.4714,2.476,2.5128,2.6488,2.6691,2.6691,2.6691,2.6691,2.6674,2.664,2.6229,2.573,2.5147,2.4618,2.4081,2.3548,2.349,2.3505,2.3505,2.3505,2.352,2.355,2.3448,2.3435,2.3509,2.4449,2.5672,2.7003,2.6846,2.6765,2.6736,2.6736,2.6358,2.5618,2.4413,2.3876,2.3743,2.3149,2.2601,2.225,2.3292,2.3353,2.2994,2.4391,2.4875,2.4888,2.5165,2.5288,2.53,2.5229,2.5229,2.5087,2.4264,2.4036,2.3931,2.3764,2.3073,2.2326,2.2393,2.1797,2.1089,2.0578,2.0512,2.0512,2.0503,2.0475,2.0466,2.04,2.019,1.985,1.9613,1.9261,1.9244,1.986,1.6692,1.4298,1.4298,1.4298,1.4298,1.4298,1.425,1.3803,1.2703,1.1774,1.1262,1.1262,1.1262,1.1262,1.1262,0.9767,0.889,0.8803,0.6517,0.5015,0.43,0.43,0.43,0.43,0.43,0.43,1.2916,1.4432,1.599,1.7984,1.9673,2.0925,2.1329,2.2038,2.2664,2.2867,2.288,2.3062,2.384,2.47,2.5484,2.5978,2.642,2.6691,2.6691,2.6691,2.6674,2.6623,2.6468,2.5994,2.5144,2.4847,2.4542,2.4078,2.3782,2.3724,2.4036,2.4051,2.3867,2.3538,2.3696,2.3775,2.3772,2.4858,2.5712,2.6258,2.6628,2.6779,2.6779,2.6779,2.6649,2.6373,2.5487,2.4646,2.3876,2.3644,2.3219,2.2701,2.3146,2.347,2.3696,2.4285,2.4772,2.5129,2.524,2.5312,2.5312,2.5312,2.5312,2.5241,2.4933,2.4714,2.4562,2.4532,2.4282,2.3847,2.3093,2.277,2.2399,2.1466,2.13,2.13,2.13,2.0888,2.0594,2.0842,2.0622,2.0407,2.057,2.0184,2.0009,2.0296,1.9072,1.7196,1.4675,1.4298,1.401,1.3437,1.334,1.3194,1.2839,1.1871,1.1348,1.1634,1.1462,1.1262,1.1262,1.0207,0.9331,0.889,0.7485,0.6166,0.5015,0.4567,0.43,0.43,0.43,0.43,1.1642,1.3257,1.5159,1.6832,1.8096,1.9364,2.0934,2.1599,2.1961,2.2385,2.2405,2.2519,2.2994,2.4096,2.5079,2.5588,2.6047,2.642,2.6657,2.6674,2.6657,2.6606,2.6503,2.6118,2.5313,2.516,2.4942,2.4533,2.4078,2.4036,2.4492,2.4328,2.4094,2.3797,2.3852,2.3968,2.4109,2.5148,2.5708,2.5792,2.646,2.6779,2.6779,2.6779,2.6779,2.6765,2.6315,2.54,2.421,2.3931,2.3598,2.323,2.3879,2.4231,2.4446,2.5159,2.5315,2.5312,2.5312,2.5312,2.5312,2.5312,2.5312,2.5312,2.5312,2.5301,2.5359,2.5471,2.5362,2.5153,2.4315,2.374,2.3193,2.2334,2.19,2.1741,2.1741,2.131,2.1007,2.1273,2.1021,2.0829,2.0998,2.0645,2.0292,2.0292,2.0292,1.9355,1.664,1.6358,1.5514,1.3528,1.2953,1.2764,1.2764,1.2091,1.1709,1.1806,1.1596,1.1435,1.1267,1.0559,0.9854,0.9244,0.8281,0.7228,0.608,0.5099,0.4567,0.43,0.43,0.43,0.0,0.0,0.0,1.6045,1.6419,1.719,2.1353,2.1276,2.07,2.2058,2.2271,2.226,2.231,2.2885,2.3833,2.5304,2.5575,2.5862,2.6556,2.6607,2.6606,2.6572,2.6417,2.6137,2.5738,2.5594,2.5351,2.4942,2.4533,2.4492,2.4902,2.4395,2.4188,2.4395,2.4036,2.4011,2.4552,2.5179,2.5597,2.5763,2.6431,2.675,2.675,2.675,2.6765,2.6765,2.6779,2.6068,2.4863,2.4067,2.3731,2.3856,2.5493,2.5601,2.514,2.6882,2.6582,2.5312,2.5312,2.5312,2.5312,2.5312,2.5312,2.5312,2.5312,2.5685,2.6164,2.6542,2.636,2.6153,2.6146,2.4638,2.3096,2.3096,2.2413,2.1731,2.1741,2.1741,2.1741,2.1741,2.1472,2.1284,2.0997,2.0645,2.0292,2.0292,2.0292,2.0292,2.0292,2.0292,1.8788,1.4765,1.3528,1.2958,1.2861,1.2574,1.2167,1.1849,1.1752,1.1607,1.1294,1.0835,1.0396,1.0047,0.8819,0.8025,0.7489,0.608,0.5013,0.43,0.43,0.43,1.1015,0.0,0.0,0.0,0.0,0.0,1.7314,1.8097,1.8984,2.0374,2.0653,2.0964,2.2107,2.2479,2.289,2.3806,2.4884,2.5644,2.5814,2.627,2.6537,2.6417,2.633,2.6101,2.5594,2.5503,2.5465,2.5351,2.4679,2.4589,2.5208,2.441,2.4204,2.4895,2.4105,2.3743,2.3879,2.494,2.539,2.5154,2.5763,2.6068,2.6068,2.6068,2.6017,2.5957,2.639,2.6078,2.5242,2.5121,2.4747,2.4361,2.5716,2.5967,2.5759,2.6614,2.6588,2.6,2.5523,2.5312,2.5312,2.5312,2.5312,2.5312,2.5312,2.5961,2.6656,2.6649,2.6964,2.7186,2.6141,2.4988,2.3973,2.327,2.2931,2.2501,2.182,2.1741,2.1741,2.1741,2.1642,2.1463,2.1087,2.0645,2.0292,2.0292,2.0292,2.0292,2.0292,2.0292,1.9355,1.6756,1.619,1.5717,1.5057,1.3966,1.3286,1.3078,1.2426,1.1925,1.186,1.1398,1.0865,1.0262,0.9544,0.8674,0.7489,0.6605,0.5811,0.5104,0.4567,0.43,1.1964,1.2875,1.4024,1.3786,0.0,0.0,1.6706,1.7275,1.7961,1.9655,2.0281,2.0745,2.1596,2.2035,2.236,2.2706,2.3796,2.4671,2.4958,2.5329,2.5497,2.5396,2.5628,2.562,2.5118,2.5505,2.5684,2.5497,2.4823,2.4558,2.4719,2.4477,2.4558,2.4997,2.4271,2.3909,2.3909,2.4687,2.5035,2.4863,2.5191,2.5481,2.5727,2.564,2.5603,2.5543,2.616,2.6165,2.5692,2.5797,2.536,2.4853,2.6065,2.6412,2.6316,2.718,2.7249,2.6744,2.6,2.5791,2.5721,2.5382,2.5312,2.5312,2.5312,2.6069,2.686,2.6546,2.6991,2.7383,2.661,2.5757,2.4904,2.4382,2.3953,2.3454,2.2501,2.2246,2.2157,2.182,2.1651,2.1463,2.1087,2.0645,2.0292,2.0292,2.0292,2.0292,2.0292,2.0292,1.9828,1.8719,1.7792,1.7044,1.6487,1.513,1.4141,1.3631,1.302,1.252,1.2145,1.1865,1.1247,1.0476,1.0113,0.938,0.8035,0.7255,0.6343,0.5371,0.4924,0.4567,1.3149,1.3836,1.5016,1.5382,1.4776,0.0,1.7635,1.748,1.7287,1.9113,2.0078,2.061,2.0733,2.1328,2.1815,2.1747,2.2417,2.322,2.4056,2.4128,2.4081,2.4081,2.4614,2.4857,2.4518,2.5425,2.5852,2.5416,2.502,2.4527,2.3839,2.4599,2.5013,2.4823,2.4451,2.4219,2.4219,2.4416,2.4543,2.4684,2.4615,2.4883,2.5473,2.5334,2.534,2.5388,2.6016,2.6233,2.6056,2.6056,2.5745,2.5364,2.6497,2.6895,2.6979,2.8071,2.8117,2.7471,2.6676,2.6414,2.6277,2.5511,2.5312,2.5312,2.5312,2.5961,2.6713,2.6441,2.679,2.7231,2.7231,2.661,2.5913,2.583,2.5242,2.4402,2.3444,2.327,2.2931,2.1989,2.1553,2.1195,2.1006,2.0645,2.0292,2.0292,2.0292,2.0292,2.0292,2.0292,2.0201,2.0011,1.835,1.7326,1.7326,1.6096,1.4949,1.396,1.3761,1.3187,1.2319,1.2216,1.1651,1.0608,1.0491,0.9929,0.8848,0.7934,0.6871,0.5638,0.546,0.5013,1.5205,1.5709,1.6135,1.5005,1.5852,0.0,1.4853,1.5193,1.5937,1.6315,1.6496,1.7154,1.8925,1.9353,1.9613,2.006,2.0766,2.1716,2.3079,2.3731,2.4081,2.4033,2.4116,2.4297,2.447,2.47,2.4989,2.5384,2.5476,2.502,2.3867,2.4502,2.4759,2.4426,2.3994,2.3739,2.3739,2.3818,2.3902,2.3923,2.3875,2.4172,2.4705,2.4726,2.4912,2.527,2.5909,2.6056,2.5948,2.5948,2.5877,2.5892,2.7102,2.7605,2.7666,2.8261,2.8427,2.8103,2.6879,2.6414,2.6277,2.5511,2.5241,2.5111,2.5111,2.5492,2.5958,2.6562,2.6921,2.7231,2.7231,2.7056,2.6704,2.5997,2.5652,2.5326,2.4402,2.4231,2.3887,2.2746,2.1882,2.1203,2.0934,2.0564,2.0292,2.0292,2.0292,2.0292,2.0292,2.0292,1.9646,1.8071,1.7512,1.7326,1.7326,1.7044,1.6539,1.5732,1.4493,1.3712,1.357,1.3003,1.205,1.091,0.9912,0.9262,0.9043,0.799,0.7401,0.7048,0.5902,0.5282,1.6657,1.7134,1.7623,1.6441,1.6982,0.0,0.0,1.5539,1.5839,1.6886,1.6533,1.6584,1.8358,1.8726,1.8952,1.9548,2.0279,2.101,2.174,2.2488,2.2953,2.2891,2.3222,2.3375,2.3122,2.3581,2.406,2.4442,2.4869,2.4694,2.3752,2.4679,2.4855,2.3994,2.3952,2.3824,2.3595,2.3419,2.3638,2.4259,2.3894,2.4158,2.494,2.4926,2.4981,2.5113,2.5734,2.5948,2.5893,2.5893,2.5893,2.602,2.7284,2.7776,2.7917,2.874,2.9044,2.8853,2.7404,2.6947,2.6744,2.5652,2.5182,2.5123,2.5123,2.5465,2.5955,2.6581,2.7002,2.7231,2.7231,2.7231,2.7056,2.661,2.6528,2.6268,2.5326,2.5158,2.4734,2.3521,2.2746,2.2059,2.0934,2.0482,2.0292,2.0292,2.0292,2.0292,2.0292,2.0292,1.992,1.8896,1.7885,1.7326,1.7326,1.7326,1.6951,1.6285,1.5425,1.4854,1.4478,1.3715,1.2592,1.1038,1.007,0.9506,0.9226,0.8586,0.8091,0.7717,0.6924,0.6172,1.8142,1.8567,1.9161,1.8065,1.8109,1.8221,0.0,0.0,0.0,1.7756,1.7138,1.672,1.7952,1.8078,1.8195,1.8805,1.947,1.9932,1.9932,2.0603,2.1193,2.1549,2.2228,2.2425,2.1758,2.2436,2.2948,2.3064,2.3634,2.3812,2.3441,2.4531,2.4673,2.3638,2.3952,2.3952,2.348,2.3068,2.3435,2.4549,2.3933,2.4267,2.5294,2.5242,2.5208,2.5177,2.5683,2.5893,2.5893,2.5893,2.5893,2.602,2.7284,2.7776,2.7931,2.9153,2.9602,2.9401,2.8143,2.7604,2.7271,2.5918,2.5241,2.4981,2.4909,2.5421,2.6039,2.6445,2.6841,2.7231,2.7231,2.7231,2.7231,2.7231,2.7138,2.688,2.6174,2.5997,2.5568,2.4211,2.3867,2.3076,2.1275,2.0564,2.0292,2.0292,2.0292,2.0292,2.0292,2.0292,2.0102,1.9737,1.8257,1.7326,1.7326,1.7326,1.7044,1.6473,1.6285,1.5906,1.5146,1.4094,1.2845,1.1389,1.0637,1.0171,0.979,0.9457,0.8969,0.8236,0.7923,0.722,2.0322,2.0489,2.0416,1.8232,1.9226,1.9841,1.6445,0.0,1.7037,1.5925,0.0,1.5704,1.6509,0.0,0.0,1.6303,1.683,1.7151,1.7151,1.7936,1.9094,2.0626,2.1466,2.1838,2.1623,2.1619,2.1581,2.1469,2.1852,2.2274,2.2705,2.3228,2.3559,2.358,2.3638,2.3436,2.2978,2.2872,2.308,2.3645,2.3574,2.407,2.5033,2.5137,2.5434,2.5795,2.5865,2.5893,2.5893,2.5893,2.5893,2.602,2.7284,2.7776,2.7931,2.9153,2.9602,2.9477,2.8648,2.7986,2.7338,2.6321,2.5382,2.4562,2.4345,2.4975,2.5727,2.5784,2.6485,2.7231,2.7231,2.7231,2.7231,2.7231,2.688,2.6704,2.6962,2.6704,2.6091,2.4872,2.4692,2.4094,2.1952,2.0916,2.0292,2.0292,2.0292,2.0292,2.0292,2.0292,1.9646,1.7792,1.7419,1.7326,1.7326,1.7326,1.7232,1.7138,1.6567,1.5906,1.5146,1.3227,1.2073,1.1878,1.1365,1.1063,1.0965,1.0453,0.9786,0.8999,0.8314,0.7927,2.0662,2.073,2.0769,1.9378,1.9698,1.9798,1.779,1.7132,1.7009,1.7117,0.0,0.0,0.0,0.0,0.0,0.0,1.6184,1.624,1.6141,1.6926,1.8042,1.9443,1.9638,1.978,2.0048,2.0032,2.0299,2.1205,2.106,2.1662,2.3281,2.3319,2.3361,2.3478,2.3508,2.3246,2.2752,2.3034,2.3488,2.4069,2.444,2.4967,2.5621,2.5675,2.5816,2.5893,2.5893,2.5893,2.5893,2.5893,2.5893,2.602,2.7284,2.7776,2.7931,2.9153,2.9602,2.9477,2.8776,2.8051,2.7271,2.5791,2.4981,2.449,2.4273,2.49,2.5716,2.5716,2.6439,2.7231,2.7231,2.7231,2.7231,2.7231,2.6869,2.6622,2.7056,2.6644,2.6041,2.5527,2.5253,2.4563,2.2833,2.1257,2.0292,2.0292,2.0292,2.0292,2.0292,2.0292,1.9546,1.7512,1.7326,1.7326,1.7326,1.7326,1.7326,1.7326,1.6567,1.5906,1.5146,1.3806,1.2748,1.198,1.1785,1.1487,1.1194,1.0998,1.0719,1.0263,0.9287,0.857,2.1281,2.1165,2.1076,2.0152,1.9848,1.9519,1.8585,1.7679,1.7323,1.8303,1.7425,0.0,0.0,0.0,1.5905,1.5996,0.0,1.5607,1.5027,1.5551,1.6511,1.8003,1.8111,1.8242,1.8659,1.8434,1.8887,2.0345,1.9917,2.0582,2.2914,2.2753,2.2787,2.3124,2.3186,2.2979,2.2615,2.3183,2.3812,2.4419,2.5061,2.5568,2.6056,2.6056,2.6002,2.5893,2.5893,2.5893,2.5893,2.5893,2.5893,2.602,2.7284,2.7776,2.7931,2.9153,2.9602,2.9477,2.8712,2.7789,2.6718,2.5182,2.4574,2.4441,2.4434,2.5015,2.5739,2.5876,2.6554,2.7231,2.7231,2.7231,2.7231,2.7231,2.6715,2.6456,2.688,2.6302,2.5728,2.5728,2.5464,2.485,2.3724,2.205,2.0736,2.0382,2.0292,2.0292,2.0292,2.0019,1.9188,1.7512,1.7326,1.7326,1.7326,1.7326,1.7326,1.7326,1.6567,1.6001,1.5432,1.4478,1.3426,1.2559,1.237,1.2078,1.1683,1.1487,1.1394,1.1389,1.0263,0.9425,2.2822,2.2405,2.1613,2.0094,1.9717,1.9325,1.7863,1.8004,1.8443,1.8476,1.9005,1.9468,1.9518,1.8759,1.7639,1.6223,1.5613,0.0,0.0,1.3115,1.4007,1.6381,1.7406,1.7894,1.7923,1.7224,1.7211,1.8229,1.7914,1.8597,2.0685,2.0856,2.1391,2.2497,2.2585,2.2615,2.2615,2.3183,2.3763,2.4226,2.4878,2.5463,2.5893,2.5893,2.5893,2.5893,2.5893,2.5893,2.5893,2.5893,2.5893,2.602,2.7284,2.7776,2.7931,2.9153,2.9602,2.9477,2.861,2.7111,2.5463,2.4754,2.4345,2.4281,2.4751,2.5279,2.5819,2.6301,2.6818,2.7231,2.7231,2.7231,2.7231,2.7231,2.6561,2.6063,2.6456,2.5863,2.52,2.52,2.5295,2.5211,2.454,2.329,2.1872,2.0464,2.0292,2.0292,2.0292,1.9471,1.845,1.7426,1.7326,1.7326,1.7326,1.7326,1.7326,1.7326,1.6567,1.619,1.619,1.4669,1.3908,1.3806,1.3141,1.2764,1.2764,1.2273,1.198,1.198,1.0895,1.0596,2.2952,2.2598,2.2033,2.1025,2.019,1.9389,1.8402,1.8327,1.8493,1.8493,1.9088,1.9601,1.9601,1.8805,1.7753,1.6598,1.5804,1.4764,0.0,1.2698,1.3148,1.4408,1.5562,1.6247,1.6247,1.6316,1.6802,1.7848,1.7552,1.8382,2.0831,2.0852,2.1222,2.2186,2.2392,2.2417,2.2324,2.3356,2.3992,2.4154,2.5145,2.5751,2.5893,2.5893,2.5893,2.5893,2.5893,2.5893,2.5893,2.5893,2.6132,2.6582,2.7439,2.8015,2.8478,2.9307,2.9602,2.9401,2.8065,2.6909,2.5894,2.4826,2.4345,2.4292,2.4774,2.5291,2.5819,2.6324,2.6829,2.7231,2.7231,2.7231,2.7138,2.6787,2.6302,2.5895,2.6052,2.538,2.4786,2.5115,2.4956,2.4529,2.3724,2.3193,2.2306,2.0555,2.0292,2.0019,1.9371,1.9012,1.845,1.7426,1.7326,1.7326,1.7326,1.7326,1.7326,1.7326,1.6567,1.619,1.619,1.5242,1.4478,1.3908,1.3619,1.3335,1.2764,1.2667,1.2565,1.2467,1.178,1.1389,2.2902,2.2777,2.2519,2.168,2.1106,2.0522,1.9512,1.9495,1.9584,1.9293,1.9822,2.035,2.0322,1.9491,1.843,1.7252,1.6067,1.4571,0.0,1.2375,1.2706,1.3373,1.4381,1.5198,1.5651,1.5386,1.5974,1.7804,1.7009,1.7602,2.0205,2.0549,2.0967,2.1526,2.2053,2.2376,2.2507,2.3583,2.423,2.4455,2.5416,2.5893,2.5893,2.5893,2.5893,2.5893,2.5893,2.5893,2.5893,2.5893,2.6259,2.6877,2.7523,2.8155,2.8759,2.9378,2.9338,2.8739,2.7378,2.6501,2.5767,2.4683,2.4345,2.4315,2.4992,2.544,2.5853,2.6542,2.6978,2.7231,2.7231,2.7231,2.7056,2.661,2.6218,2.5812,2.5728,2.5041,2.4625,2.4871,2.47,2.4272,2.3724,2.3377,2.294,2.1971,2.0916,2.0102,1.9546,1.9096,1.8458,1.7707,1.7426,1.7326,1.7326,1.7326,1.7326,1.7326,1.685,1.6567,1.6567,1.5906,1.5242,1.4758,1.419,1.3715,1.3147,1.2953,1.2764,1.2764,1.2467,1.2078]}]]